[[{"header":{"parameterUnit":"m.s-1","parameterCategory":1,"la1":30.6,"la2":28.766,"lo1":-90.7593,"lo2":-88.6598,"dx":0.0162,"dy":0.0183,"nx":116,"ny":114,"refTime":"2023-01-08T06:00:00:Z","depth":0,"parameterNumber":2,"parameterNumberName":"U-component_of_WINDS"},"data":[0.0,0.0,0.0,0.0,0.0,0.0,0.0,0.0,0.0,0.0,0.0,0.0,0.0,0.0,0.0,0.0,0.0,0.0,0.0,0.0,0.0,0.0,0.0,0.0,0.0,0.0,0.0,0.0,0.0,0.0,0.0,0.0,0.0,0.0,0.0,0.0,0.0,0.0,0.0,0.0,0.0,0.0,0.0,0.0,0.0,0.0,0.0,0.0,0.0,0.0,0.0,0.0,0.0,0.0,0.0,0.0,0.0,0.0,0.0,0.0,0.0,0.0,0.0,0.0,0.0,0.0,0.0,0.0,0.0,0.0,0.0,0.0,0.0,0.0,0.0,0.0,0.0,0.0,0.0,0.0,0.0,0.0,0.0,0.0,0.0,0.0,0.0,0.0,0.0,0.0,0.0,0.0,0.0,0.0,0.0,0.0,0.0,0.0,0.0,0.0,0.0,0.0,0.0,0.0,0.0,0.0,0.0,0.0,0.0,0.0,0.0,0.0,0.0,0.0,0.0,0.0,0.0,0.0,0.0,0.0,0.0,0.0,0.0,0.0,0.0,0.0,0.0,0.0,0.0,0.0,0.0,0.0,0.0,0.0,0.0,0.0,0.0,0.0,0.0,0.0,0.0,0.0,0.0,0.0,0.0,0.0,0.0,0.0,0.0,0.0,0.0,0.0,0.0,0.0,0.0,0.0,0.0,0.0,0.0,0.0,0.0,0.0,0.0,0.0,0.0,0.0,0.0,0.0,0.0,0.0,0.0,0.0,0.0,0.0,0.0,0.0,0.0,0.0,0.0,0.0,0.0,0.0,0.0,0.0,0.0,0.0,0.0,0.0,0.0,0.0,0.0,0.0,0.0,0.0,0.0,0.0,0.0,0.0,0.0,0.0,0.0,0.0,0.0,0.0,0.0,0.0,0.0,0.0,0.0,0.0,0.0,0.0,0.0,0.0,0.0,0.0,0.0,0.0,0.0,0.0,0.0,0.0,0.0,0.0,0.0,0.0,0.0,0.0,0.0,0.0,0.0,0.0,0.0,0.0,0.0,0.0,0.0,0.0,0.0,0.0,0.0,0.0,0.0,0.0,0.0,0.0,0.0,0.0,0.0,0.0,0.0,0.0,0.0,0.0,0.0,0.0,0.0,0.0,0.0,0.0,0.0,0.0,0.0,0.0,0.0,0.0,0.0,0.0,0.0,0.0,0.0,0.0,0.0,0.0,0.0,0.0,0.0,0.0,0.0,0.0,0.0,0.0,0.0,0.0,0.0,0.0,0.0,0.0,0.0,0.0,0.0,0.0,0.0,0.0,0.0,0.0,0.0,0.0,0.0,0.0,0.0,0.0,0.0,0.0,0.0,0.0,0.0,0.0,0.0,0.0,0.0,0.0,0.0,0.0,0.0,0.0,0.0,0.0,0.0,0.0,0.0,0.0,0.0,0.0,0.0,0.0,0.0,0.0,0.0,0.0,0.0,0.0,0.0,0.0,0.0,0.0,0.0,0.0,0.0,0.0,0.0,0.0,0.0,0.0,0.0,0.0,0.0,0.0,0.0,0.0,0.0,0.0,0.0,0.0,0.0,0.0,0.0,0.0,0.0,0.0,0.0,0.0,0.0,0.0,0.0,0.0,0.0,0.0,0.0,0.0,0.0,0.0,0.0,0.0,0.0,0.0,0.0,0.0,0.0,0.0,0.0,0.0,0.0,0.0,0.0,0.0,0.0,0.0,0.0,0.0,0.0,0.0,0.0,0.0,0.0,0.0,0.0,0.0,0.0,0.0,0.0,0.0,0.0,0.0,0.0,0.0,0.0,0.0,0.0,0.0,0.0,0.0,0.0,0.0,0.0,0.0,0.0,0.0,0.0,0.0,0.0,0.0,0.0,0.0,0.0,0.0,0.0,0.0,0.0,0.0,0.0,0.0,0.0,0.0,0.0,0.0,0.0,0.0,0.0,0.0,0.0,0.0,0.0,0.0,0.0,0.0,0.0,0.0,0.0,0.0,0.0,0.0,0.0,0.0,0.0,0.0,0.0,0.0,0.0,0.0,0.0,0.0,0.0,0.0,0.0,0.0,0.0,0.0,0.0,0.0,0.0,0.0,0.0,0.0,0.0,0.0,0.0,0.0,0.0,0.0,0.0,0.0,0.0,0.0,0.0,0.0,0.0,0.0,0.0,0.0,0.0,0.0,0.0,0.0,0.0,0.0,0.0,0.0,0.0,0.0,0.0,0.0,0.0,0.0,0.0,0.0,0.0,0.0,0.0,0.0,0.0,0.0,0.0,0.0,0.0,0.0,0.0,0.0,0.0,0.0,0.0,0.0,0.0,0.0,0.0,0.0,0.0,0.0,0.0,0.0,0.0,0.0,0.0,0.0,0.0,0.0,0.0,0.0,0.0,0.0,0.0,0.0,0.0,0.0,0.0,0.0,0.0,0.0,0.0,0.0,0.0,0.0,0.0,0.0,0.0,0.0,0.0,0.0,0.0,0.0,0.0,0.0,0.0,0.0,0.0,0.0,0.0,0.0,0.0,0.0,0.0,0.0,0.0,0.0,0.0,0.0,0.0,0.0,0.0,0.0,0.0,0.0,0.0,0.0,0.0,0.0,0.0,0.0,0.0,0.0,0.0,0.0,0.0,0.0,0.0,0.0,0.0,0.0,0.0,0.0,0.0,0.0,0.0,0.0,0.0,0.0,0.0,0.0,0.0,0.0,0.0,0.0,0.0,0.0,0.0,0.0,0.0,0.0,0.0,0.0,0.0,0.0,0.0,0.0,0.0,0.0,0.0,0.0,0.0,0.0,0.0,0.0,0.0,0.0,0.0,0.0,0.0,0.0,0.0,0.0,0.0,0.0,0.0,0.0,0.0,0.0,0.0,0.0,0.0,0.0,0.0,0.0,0.0,0.0,0.0,0.0,0.0,0.0,0.0,0.0,0.0,0.0,0.0,0.0,0.0,0.0,0.0,0.0,0.0,0.0,0.0,0.0,0.0,0.0,0.0,0.0,0.0,0.0,0.0,0.0,0.0,0.0,0.0,0.0,0.0,0.0,0.0,0.0,0.0,0.0,0.0,0.0,0.0,0.0,0.0,0.0,0.0,0.0,0.0,0.0,0.0,0.0,0.0,0.0,0.0,0.0,0.0,0.0,0.0,0.0,0.0,0.0,0.0,0.0,0.0,0.0,0.0,0.0,0.0,0.0,0.0,0.0,0.0,0.0,0.0,0.0,0.0,0.0,0.0,0.0,0.0,0.0,0.0,0.0,0.0,0.0,0.0,0.0,0.0,0.0,0.0,0.0,0.0,0.0,0.0,0.0,0.0,0.0,0.0,0.0,0.0,0.0,0.0,0.0,0.0,0.0,0.0,0.0,0.0,0.0,0.0,0.0,0.0,0.0,0.0,0.0,0.0,0.0,0.0,0.0,0.0,0.0,0.0,0.0,0.0,0.0,0.0,0.0,0.0,0.0,0.0,0.0,0.0,0.0,0.0,0.0,0.0,0.0,0.0,0.0,0.0,0.0,0.0,0.0,0.0,0.0,0.0,0.0,0.0,0.0,0.0,0.0,0.0,0.0,0.0,0.0,0.0,0.0,0.0,0.0,0.0,0.0,0.0,0.0,0.0,0.0,0.0,0.0,0.0,0.0,0.0,0.0,0.0,0.0,0.0,0.0,0.0,0.0,0.0,0.0,0.0,0.0,0.0,0.0,0.0,0.0,0.0,0.0,0.0,0.0,0.0,0.0,0.0,0.0,0.0,0.0,0.0,0.0,0.0,0.0,0.0,0.0,0.0,0.0,0.0,0.0,0.0,0.0,0.0,0.0,0.0,0.0,0.0,0.0,0.0,0.0,0.0,0.0,0.0,0.0,0.0,0.0,0.0,0.0,0.0,0.0,0.0,0.0,0.0,0.0,0.0,0.0,0.0,0.0,0.0,0.0,0.0,0.0,0.0,0.0,0.0,0.0,0.0,0.0,0.0,0.0,0.0,0.0,0.0,0.0,0.0,0.0,0.0,0.0,0.0,0.0,0.0,0.0,0.0,0.0,0.0,0.0,0.0,0.0,0.0,0.0,0.0,0.0,0.0,0.0,0.0,0.0,0.0,0.0,0.0,0.0,0.0,0.0,0.0,0.0,0.0,0.0,0.0,0.0,0.0,0.0,0.0,0.0,0.0,0.0,0.0,0.0,0.0,0.0,0.0,0.0,0.0,0.0,0.0,0.0,0.0,0.0,0.0,0.0,0.0,0.0,0.0,0.0,0.0,0.0,0.0,0.0,0.0,0.0,0.0,0.0,0.0,0.0,0.0,0.0,0.0,0.0,0.0,0.0,0.0,0.0,0.0,0.0,0.0,0.0,0.0,0.0,0.0,0.0,0.0,0.0,0.0,0.0,0.0,0.0,0.0,0.0,0.0,0.0,0.0,0.0,0.0,0.0,0.0,0.0,0.0,0.0,0.0,0.0,0.0,0.0,0.0,0.0,0.0,0.0,0.0,0.0,0.0,0.0,0.0,0.0,0.0,0.0,0.0,0.0,0.0,0.0,0.0,0.0,0.0,0.0,0.0,0.0,0.0,0.0,0.0,0.0,0.0,0.0,0.0,0.0,0.0,0.0,0.0,0.0,0.0,0.0,0.0,0.0,0.0,0.0,0.0,0.0,0.0,0.0,0.0,0.0,0.0,0.0,0.0,0.0,0.0,0.0,0.0,0.0,0.0,0.0,0.0,0.0,0.0,0.0,0.0,0.0,0.0,0.0,0.0,0.0,0.0,0.0,0.0,0.0,0.0,0.0,0.0,0.0,0.0,0.0,0.0,0.0,0.0,0.0,0.0,0.0,0.0,0.0,0.0,0.0,0.0,0.0,0.0,0.0,0.0,0.0,0.0,0.0,0.0,0.0,0.0,0.0,0.0,0.0,0.0,0.0,0.0,0.0,0.0,0.0,0.0,0.0,0.0,0.0,0.0,0.0,0.0,0.0,0.0,0.0,0.0,0.0,0.0,0.0,0.0,0.0,0.0,0.0,0.0,0.0,0.0,0.0,0.0,0.0,0.0,0.0,0.0,0.0,0.0,0.0,0.0,0.0,0.0,0.0,0.0,0.0,0.0,0.0,0.0,0.0,0.0,0.0,0.0,0.0,0.0,0.0,0.0,0.0,0.0,0.0,0.0,0.0,0.0,0.0,0.0,0.0,0.0,0.0,0.0,0.0,0.0,0.0,0.0,0.0,0.0,0.0,0.0,0.0,0.0,0.0,0.0,0.0,0.0,0.0,0.0,0.0,0.0,0.0,0.0,0.0,0.0,0.0,0.0,0.0,0.0,0.0,0.0,0.0,0.0,0.0,0.0,0.0,0.0,0.0,0.0,0.0,0.0,0.0,0.0,0.0,0.0,0.0,0.0,0.0,0.0,0.0,0.0,0.0,0.0,0.0,0.0,0.0,0.0,0.0,0.0,0.0,0.0,0.0,0.0,0.0,0.0,0.0,0.0,0.0,0.0,0.0,0.0,0.0,0.0,0.0,0.0,0.0,0.0,0.0,0.0,0.0,0.0,0.0,0.0,0.0,0.0,0.0,0.0,0.0,0.0,0.0,0.0,0.0,0.0,0.0,0.0,0.0,0.0,0.0,0.0,0.0,0.0,0.0,0.0,0.0,0.0,0.0,0.0,0.0,0.0,0.0,0.0,0.0,0.0,0.0,0.0,0.0,0.0,0.0,0.0,0.0,0.0,0.0,0.0,0.0,0.0,0.0,0.0,0.0,0.0,0.0,0.0,0.0,0.0,0.0,0.0,0.0,0.0,0.0,0.0,0.0,0.0,0.0,0.0,0.0,0.0,0.0,0.0,0.0,0.0,0.0,0.0,0.0,0.0,0.0,0.0,0.0,0.0,0.0,0.0,0.0,0.0,0.0,0.0,0.0,0.0,0.0,0.0,0.0,0.0,0.0,0.0,0.0,0.0,0.0,0.0,0.0,0.0,0.0,0.0,0.0,0.0,0.0,0.0,0.0,0.0,0.0,0.0,0.0,0.0,0.0,0.0,0.0,0.0,0.0,0.0,0.0,0.0,0.0,0.0,0.0,0.0,0.0,0.0,0.0,0.0,0.0,0.0,0.0,0.0,0.0,0.0,0.0,-6.8152,-6.8256,0.0,0.0,0.0,0.0,0.0,0.0,0.0,0.0,0.0,0.0,0.0,0.0,0.0,0.0,0.0,0.0,0.0,0.0,0.0,0.0,0.0,0.0,0.0,-3.8695,-3.9944,-4.0741,-4.1062,0.0,0.0,0.0,0.0,0.0,0.0,0.0,0.0,0.0,-4.0105,-4.1489,-4.2171,-4.4159,-4.7331,-4.7291,-4.8062,-4.9389,0.0,0.0,0.0,0.0,0.0,0.0,0.0,0.0,0.0,0.0,0.0,0.0,0.0,0.0,0.0,0.0,0.0,0.0,0.0,0.0,0.0,0.0,0.0,0.0,0.0,0.0,0.0,0.0,0.0,0.0,0.0,0.0,0.0,0.0,0.0,0.0,0.0,0.0,0.0,0.0,0.0,0.0,0.0,0.0,0.0,0.0,0.0,0.0,0.0,0.0,0.0,0.0,0.0,0.0,0.0,0.0,0.0,0.0,0.0,0.0,0.0,0.0,0.0,0.0,0.0,0.0,0.0,0.0,0.0,0.0,-7.0153,-7.0325,0.0,0.0,0.0,0.0,0.0,0.0,0.0,0.0,0.0,0.0,0.0,0.0,0.0,0.0,0.0,0.0,0.0,0.0,0.0,0.0,0.0,-3.7597,-3.799,-3.9896,-4.1406,-4.2162,-4.2032,-4.1919,-4.1917,-4.162,0.0,0.0,0.0,0.0,0.0,0.0,-4.174,-4.3125,-4.5129,-4.7659,-5.0643,-5.2503,-5.3005,-5.23,-5.071,0.0,0.0,0.0,0.0,0.0,0.0,0.0,0.0,0.0,0.0,0.0,0.0,0.0,0.0,0.0,0.0,0.0,0.0,0.0,0.0,0.0,0.0,0.0,0.0,0.0,0.0,0.0,0.0,0.0,0.0,0.0,0.0,0.0,0.0,0.0,0.0,0.0,0.0,0.0,0.0,0.0,0.0,0.0,0.0,0.0,0.0,0.0,0.0,0.0,0.0,0.0,0.0,0.0,0.0,0.0,0.0,0.0,0.0,0.0,0.0,0.0,0.0,0.0,-7.0394,-7.0532,-7.0808,-7.1567,-7.1636,-7.1256,-7.2671,-7.2671,-7.1808,-7.305,0.0,0.0,0.0,0.0,0.0,0.0,0.0,0.0,0.0,0.0,0.0,0.0,0.0,0.0,0.0,0.0,0.0,0.0,0.0,-3.6419,-3.8458,-3.9445,-4.0377,-4.142,-4.2334,-4.2584,-4.2014,-4.2255,0.0,0.0,0.0,0.0,0.0,-4.2879,-4.387,-4.5187,-4.9871,-5.2372,-5.2948,-5.5829,-5.7133,-5.69,-5.4803,-5.3551,-5.2976,0.0,0.0,0.0,0.0,0.0,0.0,0.0,0.0,0.0,0.0,0.0,0.0,0.0,0.0,0.0,0.0,0.0,0.0,0.0,0.0,0.0,0.0,0.0,0.0,0.0,0.0,0.0,0.0,0.0,0.0,0.0,0.0,0.0,0.0,0.0,0.0,0.0,0.0,0.0,0.0,0.0,-6.4841,-6.5635,0.0,0.0,0.0,0.0,0.0,0.0,0.0,0.0,0.0,0.0,0.0,0.0,0.0,-7.1256,-7.1325,-7.0601,-7.0291,-7.0394,-7.0394,-7.1084,-7.2395,-7.3153,-7.3809,-7.4352,-7.5257,0.0,-7.2575,-7.274,0.0,0.0,0.0,0.0,0.0,0.0,0.0,0.0,0.0,0.0,0.0,0.0,0.0,0.0,0.0,0.0,0.0,0.0,0.0,0.0,0.0,-4.1545,-4.2725,-4.3758,-4.4227,-4.4152,-4.3358,-4.3448,0.0,0.0,0.0,0.0,0.0,0.0,-4.5411,-4.7896,-5.0595,-5.2813,-5.4453,-5.6316,-5.7443,-5.7881,-5.7746,-5.6596,-5.4735,-5.4363,0.0,0.0,0.0,0.0,0.0,0.0,0.0,0.0,0.0,0.0,0.0,0.0,0.0,0.0,0.0,0.0,0.0,0.0,0.0,0.0,0.0,0.0,0.0,0.0,0.0,0.0,0.0,0.0,0.0,0.0,0.0,0.0,0.0,0.0,0.0,0.0,0.0,0.0,0.0,-6.5152,-6.5807,-6.698,-6.7118,-6.7773,0.0,0.0,0.0,0.0,0.0,0.0,0.0,0.0,0.0,-7.0877,-7.0877,-7.1084,-7.1498,-7.1601,-7.2326,-7.3602,-7.3153,-7.3498,-7.4602,-7.4947,-7.5499,-7.6213,-7.7051,-7.7051,-7.643,-7.5602,-7.5637,-7.6144,0.0,0.0,0.0,0.0,-7.5179,-7.5533,0.0,0.0,0.0,0.0,0.0,0.0,0.0,0.0,0.0,0.0,0.0,0.0,-4.1687,-4.3251,-4.4571,-4.5604,-4.5746,-4.5526,-4.4847,-4.4863,-4.4511,0.0,0.0,0.0,0.0,0.0,0.0,-5.0205,-5.1414,-5.3337,-5.5904,-5.6948,-5.794,-5.8829,-6.0114,-5.9167,-5.6526,-5.6526,-5.6021,-5.5175,0.0,0.0,0.0,0.0,0.0,0.0,0.0,0.0,0.0,0.0,0.0,0.0,0.0,0.0,0.0,0.0,0.0,0.0,0.0,0.0,0.0,0.0,0.0,0.0,0.0,0.0,0.0,0.0,0.0,0.0,0.0,0.0,0.0,0.0,0.0,0.0,0.0,-6.6324,-6.7014,-6.8497,-6.867,-6.9497,0.0,0.0,0.0,0.0,0.0,0.0,-7.1808,-7.1981,-7.2015,-7.1843,-7.1843,-7.2119,-7.2671,-7.3257,-7.4326,-7.5809,-7.5395,-7.5533,-7.612,-7.6326,-7.6706,-7.7258,-7.8051,-7.8603,-7.8879,-7.812,-7.781,-7.7741,-7.7189,-7.6982,-7.6913,-7.6326,-7.6361,-7.6602,0.0,0.0,0.0,0.0,0.0,0.0,0.0,0.0,0.0,0.0,0.0,-4.0766,-4.2284,-4.3328,-4.4389,-4.5623,-4.5869,-4.6082,-4.6192,-4.6392,-4.648,-4.6388,-4.7004,0.0,0.0,0.0,0.0,-5.159,-5.384,-5.5772,-5.7404,-5.907,-6.0284,-6.1163,-6.1941,-6.0994,-5.8829,-5.8829,-5.9201,-5.9641,-5.822,0.0,0.0,0.0,0.0,0.0,0.0,0.0,0.0,0.0,0.0,0.0,0.0,0.0,0.0,0.0,0.0,0.0,0.0,0.0,0.0,0.0,0.0,0.0,0.0,0.0,0.0,0.0,0.0,0.0,0.0,0.0,0.0,0.0,0.0,0.0,0.0,0.0,0.0,-7.0084,-7.0256,0.0,0.0,0.0,0.0,-7.1498,-7.2188,-7.2644,-7.2644,-7.3291,-7.4326,-7.5775,-7.5809,-7.5844,-7.5878,-7.5913,-7.5602,-7.4938,-7.5706,-7.6085,-7.612,-7.6844,-7.7189,-7.7258,-7.8051,-7.7982,-7.7385,-7.881,-7.9396,-7.9396,-7.9362,-7.9327,-7.9327,-7.9293,-7.8844,-7.8292,0.0,0.0,0.0,-3.824,-3.7639,-3.7325,-3.7456,-3.7848,-3.824,-3.8632,-4.0413,-4.2227,-4.3554,-4.5111,-4.6675,-4.8093,-4.8443,-4.8292,-4.7618,-4.8234,-4.7989,-4.6665,0.0,0.0,0.0,0.0,-5.1467,-5.1713,-5.3997,-5.5932,-5.7576,-5.9705,-6.142,-6.2753,-6.3497,-6.3362,-6.2516,-6.1095,-6.0351,-6.0047,-5.9539,-5.9032,0.0,0.0,0.0,0.0,0.0,0.0,0.0,0.0,0.0,0.0,0.0,0.0,0.0,0.0,0.0,0.0,0.0,0.0,0.0,0.0,0.0,0.0,0.0,0.0,0.0,0.0,0.0,0.0,0.0,0.0,0.0,0.0,0.0,0.0,0.0,0.0,0.0,-7.0912,-7.1118,0.0,-7.3257,-7.2705,-7.2671,-7.3636,-7.3981,-7.4361,-7.4878,-7.4671,-7.4774,-7.5283,-7.4878,-7.4843,-7.5317,-7.5844,-7.6464,-7.7189,-7.7465,-7.7844,-7.8327,-7.8568,-7.8706,-7.8706,-7.8982,-7.8948,-7.8741,-7.9293,-7.8948,-7.8051,-7.8051,-7.8051,-7.8051,-7.8051,-7.8189,-7.8396,0.0,-3.986,0.0,-3.8579,-3.7978,-3.7795,-3.8344,-3.8579,-3.8919,-3.952,-4.1852,-4.3768,-4.4631,-4.6648,-4.8459,-4.9642,-4.991,-4.9857,-4.9488,-5.0027,-4.9866,-4.8696,-4.9528,0.0,0.0,-5.159,-5.2144,-5.239,-5.4113,-5.5917,-5.7806,-5.9922,-6.1832,-6.3389,-6.4255,-6.4613,-6.4512,-6.3057,-6.1975,-6.1231,-6.0994,-6.0419,-5.9776,0.0,0.0,0.0,0.0,0.0,0.0,0.0,0.0,0.0,0.0,0.0,0.0,0.0,0.0,0.0,0.0,0.0,0.0,0.0,0.0,0.0,0.0,0.0,0.0,0.0,0.0,0.0,0.0,0.0,0.0,0.0,0.0,0.0,0.0,0.0,-7.0498,-7.1739,-7.1877,-7.2498,-7.4016,-7.374,-7.3843,-7.48,-7.5145,-7.5524,-7.6085,-7.5558,-7.5524,-7.6041,-7.5602,-7.5706,-7.642,-7.6982,-7.7637,-7.8396,-7.8396,-7.8534,-7.8741,-7.8741,-7.8741,-7.8741,-7.8741,-7.8741,-7.8775,-7.9017,-7.8534,-7.7637,-7.7913,-7.8154,-7.8361,-7.8361,-7.8706,-7.912,-3.9834,-3.9599,-3.9259,-3.8109,-3.7429,-3.7246,-3.7874,-3.8397,-3.8972,-3.9621,-4.2985,-4.5335,-4.5335,-4.7746,-4.9539,-5.0015,-5.0059,-5.051,-5.1638,-5.1744,-5.2052,-5.2698,0.0,0.0,-5.2698,-5.276,-5.3098,-5.3745,-5.4483,-5.5984,-5.8274,-6.0007,-6.1655,-6.3206,-6.4203,-6.4681,-6.4681,-6.4647,-6.4241,-6.3531,-6.2753,-6.2009,-6.1366,0.0,0.0,0.0,0.0,0.0,0.0,0.0,0.0,0.0,0.0,0.0,0.0,0.0,0.0,0.0,0.0,0.0,0.0,0.0,0.0,0.0,0.0,0.0,0.0,0.0,0.0,0.0,0.0,0.0,0.0,0.0,0.0,0.0,-7.0429,-7.105,-7.1774,-7.2609,-7.2747,-7.3326,-7.4731,-7.4938,-7.4972,-7.5007,-7.5696,-7.6189,-7.6223,-7.6189,-7.6878,-7.8361,-7.8396,-7.8706,-7.9431,-7.9431,-7.9086,-7.8361,-7.8361,-7.7948,-7.7223,-7.7223,-7.7223,-7.7223,-7.7223,-7.7223,-7.7292,-7.8051,-7.8361,-7.843,-7.9224,-7.9948,-8.0569,-8.0569,-8.0534,-8.0465,-3.9834,-3.9599,-3.9259,-3.8109,-3.7769,-3.8004,-3.8998,-3.9259,-3.9991,-4.1716,-4.3863,-4.5789,-4.6983,-4.8791,-5.0289,-5.1091,-5.1334,-5.1652,-5.2121,-5.2793,-5.3252,-5.3437,0.0,0.0,-5.2698,-5.3683,-5.4222,-5.4406,-5.6809,-5.8578,-5.9791,-6.2126,-6.3738,-6.4741,-6.5749,-6.6203,-6.617,-6.5628,-6.5256,-6.5019,-6.4275,-6.3565,-6.2922,0.0,0.0,0.0,0.0,0.0,0.0,0.0,0.0,0.0,0.0,0.0,0.0,0.0,0.0,0.0,0.0,0.0,0.0,0.0,0.0,0.0,0.0,0.0,0.0,0.0,0.0,0.0,0.0,0.0,0.0,0.0,0.0,-7.1187,-7.1187,-7.136,-7.1774,-7.2609,-7.3636,-7.4464,-7.4834,-7.5903,-7.6844,-7.7396,-7.7637,-7.8017,-7.8568,-7.8085,-7.7982,-7.8396,-7.7844,-7.7637,-7.7844,-7.7844,-7.7741,-7.7534,-7.7534,-7.743,-7.7223,-7.7223,-7.7223,-7.7223,-7.7223,-7.7223,-7.7258,-7.7465,-7.7534,-7.7672,-7.8982,-7.9638,-7.9741,-7.9224,-7.9017,-7.8982,-4.0122,-3.9939,-3.9599,-3.8449,-3.8057,-3.8292,-3.9442,-3.939,-4.0087,-4.2506,-4.4111,-4.5697,-4.7601,-4.9087,-5.0453,-5.1665,-5.188,-5.2352,-5.327,-5.436,-5.476,0.0,0.0,-5.3314,-5.3129,-5.4453,-5.5284,-5.5592,-5.7913,-5.9419,-6.0156,-6.2811,-6.4236,-6.472,-6.6148,-6.6812,-6.6779,-6.6339,-6.617,-6.6102,-6.5696,-6.4884,-6.3971,-6.3971,-6.37,-6.326,-6.2956,-6.3057,-6.3226,-6.2584,0.0,0.0,0.0,0.0,0.0,0.0,0.0,0.0,0.0,0.0,0.0,0.0,0.0,0.0,0.0,0.0,0.0,0.0,0.0,0.0,0.0,0.0,0.0,0.0,-7.1981,-7.2084,-7.2395,-7.2188,-7.2395,-7.3498,-7.4395,-7.5292,-7.6292,-7.7465,-7.8361,-7.8844,-7.8879,-7.8913,-7.9051,-7.8327,-7.7913,-7.7913,-7.7465,-7.7223,-7.7223,-7.7223,-7.7223,-7.7223,-7.7223,-7.7223,-7.7223,-7.7223,-7.7223,-7.7223,-7.7223,-7.7223,-7.7258,-7.7568,-7.7706,0.0,0.0,0.0,0.0,0.0,-7.8672,-7.8396,-4.054,-4.0409,-4.0043,-3.8919,-3.8318,-3.8344,-3.9337,-3.9102,-3.977,-4.243,-4.3873,-4.5431,-4.767,-4.8914,-5.025,-5.1908,-5.1986,-5.2733,-5.4544,-5.593,0.0,-5.4745,-5.5345,-5.5099,-5.3868,-5.5284,-5.6361,-5.7056,-5.8381,-5.9316,-5.9952,-6.2556,-6.3797,-6.3891,-6.5898,-6.6812,-6.6812,-6.6812,-6.6812,-6.6812,-6.6812,-6.5967,-6.4715,-6.4715,-6.4681,-6.4512,-6.3869,-6.4038,-6.441,-6.3091,0.0,0.0,0.0,0.0,0.0,0.0,0.0,0.0,0.0,0.0,0.0,0.0,0.0,0.0,0.0,0.0,0.0,0.0,0.0,0.0,0.0,0.0,0.0,0.0,-7.2809,-7.305,-7.3809,-7.336,-7.3429,-7.4731,-7.5041,-7.5972,-7.8189,-7.9086,-7.95,-7.95,-7.9431,-7.9086,-7.843,0.0,0.0,0.0,0.0,-7.7223,-7.7223,-7.7223,-7.7223,-7.7223,-7.7223,-7.7223,-7.7223,-7.7223,-7.7223,-7.7223,-7.7223,-7.7223,-7.7292,-7.7982,-7.8258,-7.8223,-7.7672,-7.7844,-7.8499,-7.9155,-7.8913,-7.8292,-4.054,-4.0409,-4.0043,-3.8919,-3.8632,-3.8632,-3.8841,-3.9207,-4.0245,-4.2484,-4.39,-4.5647,-4.8153,-4.9146,-5.0378,-5.2339,-5.1997,-5.2502,-5.431,0.0,-5.5561,-5.4714,-5.5345,-5.5345,-5.4498,-5.6915,-5.8239,-5.8393,-5.9747,-6.0486,-6.0661,-6.2779,-6.3797,-6.3891,-6.5898,-6.6812,-6.6812,-6.6812,-6.6812,-6.6812,-6.6812,-6.6271,-6.5493,-6.5493,-6.5121,-6.458,-6.4444,-6.4478,-6.4546,-6.4275,-6.4647,-6.5155,-6.441,-6.458,0.0,0.0,0.0,0.0,0.0,0.0,0.0,0.0,0.0,0.0,0.0,0.0,0.0,0.0,0.0,0.0,0.0,0.0,0.0,-7.3464,-7.3567,-7.3843,-7.4602,-7.4524,-7.4559,-7.4869,-7.5972,-7.7223,-7.8292,-7.9086,-7.95,-7.95,-7.8948,-7.8568,-7.843,-7.7672,-7.7223,-7.7223,-7.7223,-7.7223,-7.7223,-7.7223,-7.7223,-7.7223,0.0,0.0,-7.7223,-7.7223,-7.7223,-7.7223,-7.7223,-7.7223,-7.7178,-7.7396,-7.7465,-7.7568,-7.8637,-7.881,-7.843,-7.8568,-7.812,-7.7534,-4.0984,-4.0618,-4.0148,-3.9311,-3.8919,-3.8815,-3.9102,-3.9416,-4.0377,-4.2533,-4.3655,-4.5099,-4.7431,-4.8566,-4.9938,-5.1931,-5.2923,-5.3922,0.0,-5.579,-5.6084,-5.5776,-5.6392,-5.6577,-5.6269,-5.8239,-5.9285,-5.9285,-6.0301,-6.0794,-6.0845,-6.2843,-6.3991,-6.441,-6.6466,-6.759,-6.7963,-6.7963,-6.7963,-6.7963,-6.7963,-6.7726,-6.732,-6.6542,-6.6034,-6.5696,-6.5696,-6.5696,-6.5662,-6.5256,-6.5392,-6.5628,-6.5256,-6.5392,-6.5764,0.0,0.0,0.0,0.0,0.0,0.0,0.0,0.0,0.0,0.0,0.0,0.0,0.0,0.0,-7.274,0.0,0.0,-7.405,-7.4843,-7.4602,-7.4774,-7.5869,-7.5696,-7.5809,-7.6568,-7.7016,-7.7672,-7.8844,-7.9293,-7.9362,-7.8982,-7.8603,-7.8223,-7.7844,-7.743,-7.7223,-7.7223,-7.7223,-7.7223,-7.7223,-7.7223,-7.7223,-7.7223,-7.7223,-7.7223,-7.7223,-7.7223,-7.7223,-7.7223,-7.7223,-7.7223,-7.7223,-7.7223,-7.7223,-7.7327,-7.8499,-7.8499,-7.7844,-7.8258,-7.8154,-7.7913,-4.1428,-4.0749,-4.0122,-3.9677,-3.9207,-3.8998,-3.939,-3.9547,-4.0281,-4.2269,-4.3188,-4.4428,-4.6476,-4.793,-4.9674,-5.181,-5.4131,0.0,0.0,-5.6361,-5.681,-5.681,-5.758,-5.7962,-5.7962,-5.9285,-5.9993,-5.9993,-6.0547,-6.0855,-6.103,-6.2871,-6.419,-6.5155,-6.6979,-6.8297,-6.9113,-6.9113,-6.9113,-6.9113,-6.9113,-6.9113,-6.8944,-6.7557,-6.7015,-6.7015,-6.688,-6.6812,-6.6711,-6.6102,-6.5899,-6.5899,-6.5899,-6.6,-6.6271,-6.7049,-6.6812,0.0,0.0,0.0,0.0,0.0,0.0,0.0,0.0,0.0,-7.2498,-7.374,-7.4016,-7.4085,-7.4395,-7.4843,-7.5386,-7.6223,-7.5775,-7.5765,-7.7051,-7.6706,-7.6844,-7.8223,-7.7706,-7.7775,-7.9155,-7.9155,-7.881,-7.8223,-7.8189,-7.7879,-7.7213,-7.7223,-7.7223,-7.7223,-7.7223,-7.7223,-7.7223,-7.7223,-7.7223,-7.7223,-7.7223,-7.7223,-7.7223,-7.7223,-7.7223,-7.7223,-7.7396,-7.7465,-7.7465,-7.7603,-7.7672,-7.7741,-7.8534,-7.843,-7.7948,-7.8603,-7.8948,-7.9189,-4.1428,-4.0435,-3.9677,-3.9625,-3.9547,-3.9337,-3.8893,-3.9259,-4.0066,-4.129,-4.277,-4.4349,-4.597,-4.8132,-5.0554,-5.3164,-5.5135,0.0,-5.5442,-5.6296,-5.681,-5.681,-5.8042,-5.867,-5.867,-5.9993,-6.0701,-6.0701,-6.0763,-6.1101,-6.1686,-6.2833,-6.4232,-6.5853,-6.6977,-6.807,-6.9113,-6.9113,-6.9113,-6.9113,-6.9113,-6.9113,-6.9011,-6.8098,-6.7793,-6.7692,-6.7049,-6.6812,-6.6812,-6.6711,-6.6677,-6.6677,-6.6677,-6.7151,-6.7793,-6.8605,-6.8774,-6.891,-6.9722,-6.9383,0.0,-7.0944,-7.1538,-7.2038,0.0,0.0,-7.4559,-7.4731,-7.4766,-7.5179,-7.6602,-7.6361,-7.6223,-7.6982,-7.6972,-7.6972,-7.7189,-7.7154,-7.743,-7.8292,-7.7706,-7.7568,-7.843,-7.7879,-7.7385,-7.7361,-7.7361,-7.7282,-7.7223,-7.7223,-7.7223,-7.7223,-7.7223,-7.7223,-7.7223,-7.7223,-7.7223,-7.7223,-7.7223,-7.7223,-7.7223,-7.7223,-7.7223,-7.7258,-7.7982,-7.8292,-7.8327,-7.8982,-7.9258,-7.9327,-8.0086,-8.0327,-8.0258,-8.0327,-8.081,-8.1535,-4.1507,-4.0932,-4.0488,-4.0148,-3.952,-3.9128,-3.9233,-3.9703,-4.0383,-4.1219,-4.289,-4.4076,-4.418,-4.745,-5.0445,-5.2497,-5.4782,-5.5969,-5.5603,-5.6313,-5.7179,-5.7949,-5.8485,-5.9162,-5.9932,-6.0517,-6.0794,-6.0794,-6.0794,-6.1132,-6.1809,-6.2805,-6.4133,-6.5687,-6.6729,-6.8045,-6.9441,-6.9441,-6.9838,-7.0398,-7.0398,-7.0398,-7.0263,-6.9045,-6.8605,-6.8504,-6.7726,-6.7455,0.0,-6.7455,-6.776,-6.8064,-6.759,-6.8267,-6.9282,-6.962,-6.9722,-6.9789,-7.0094,0.0,0.0,0.0,-7.2898,-7.344,-7.4135,-7.4998,-7.5696,-7.6144,-7.6213,-7.642,-7.7075,-7.6982,-7.6844,0.0,-7.7223,-7.7396,-7.7844,-7.7534,-7.7327,-7.7672,-7.743,-7.7361,-7.7672,-7.743,-7.7223,-7.7223,-7.7223,-7.7223,-7.7223,-7.7223,-7.7223,-7.7223,-7.7223,-7.7223,-7.7223,-7.7223,-7.7223,-7.7223,-7.7223,-7.7223,-7.7258,-7.7706,-7.8154,-7.8568,-7.8913,-7.9051,-7.9086,-7.9396,-7.95,-7.9638,-8.0845,-8.1569,-8.1948,-8.1948,-8.2155,-8.2569,-4.1533,-4.1193,-4.088,-4.0305,-3.9625,-3.9337,-3.9756,-4.0174,-4.0644,-4.1246,-4.2819,-4.3954,-4.4144,-4.7501,-5.0419,-5.2138,-5.4131,-5.5389,-5.5684,-5.6176,-5.7118,-5.8423,-5.8485,-5.9131,-6.0486,-6.0517,-6.0609,-6.0794,-6.0794,-6.1132,-6.1809,-6.2716,-6.4003,-6.5532,-6.646,-6.7767,-6.9283,-6.9283,-6.9699,-7.0423,-7.0423,-7.0289,-7.0001,-6.9032,-6.865,-6.8594,-6.7877,-6.759,-6.7624,-6.7827,-6.8301,-6.8707,-6.8335,-6.9147,-7.0195,-7.0195,-7.0331,-7.0534,-7.0737,0.0,0.0,-7.2911,-7.3659,-7.434,-7.4782,-7.5662,-7.6568,-7.712,-7.7223,-7.7292,-7.7499,-7.7534,-7.7534,-7.7534,-7.7534,-7.7672,-7.8017,-7.7568,-7.7223,-7.7223,-7.7223,-7.7223,-7.7223,-7.7223,-7.7223,-7.7223,-7.7223,-7.7223,-7.7223,-7.7223,-7.7223,-7.7223,-7.7223,-7.7223,-7.7223,-7.7223,-7.7223,-7.7223,-7.743,-7.7534,-7.7568,-7.8361,-7.8982,-7.9534,-7.9741,-7.981,-7.9844,-8.0258,-8.0465,-8.0603,-8.2155,-8.3052,-8.3569,-8.3776,-8.3845,-8.3914,-4.1533,-4.0853,-4.0278,-3.973,-4.0043,-4.0357,-4.0383,-4.0409,-4.0644,-4.1246,-4.2186,-4.4097,-4.7286,-4.8862,-5.0593,-5.2791,-5.3267,-5.4128,-5.5622,-5.5715,-5.633,-5.7795,-5.7857,-5.8423,-5.9778,-5.9809,-6.0147,-6.0794,-6.0794,-6.1132,-6.1809,-6.2487,-6.3773,-6.5532,-6.6227,-6.7105,-6.8122,-6.8122,-6.8172,-6.8204,-6.8204,-6.7832,-6.7265,-6.7452,-6.7558,-6.7575,-6.7012,-6.6846,-6.6948,-6.7658,-6.7929,-6.8064,-6.8842,-6.9586,-7.0195,-7.0195,-7.0703,-7.1447,-7.2124,0.0,-7.1604,-7.2775,-7.3738,-7.4374,-7.4816,-7.6075,-7.7144,-7.7223,-7.7223,-7.7465,-7.8223,-7.8361,-7.8361,-7.8361,-7.8361,-7.812,-7.7361,-7.7258,-7.7223,-7.7223,-7.7223,-7.7223,0.0,-7.7223,-7.7223,-7.7223,-7.7223,-7.7223,-7.7223,-7.7223,-7.7223,-7.7223,-7.7223,-7.7223,-7.7223,-7.7223,-7.7223,-7.7223,-7.8017,-7.8361,-7.8396,-7.9155,-7.95,-7.9569,-8.0258,-8.0603,-8.0707,-8.219,-8.2811,-8.2949,-8.4501,-8.5121,-8.5225,-8.5949,-8.6191,-8.6191,-4.1533,-4.1167,-4.0958,-4.0775,-4.0906,-4.101,-4.101,-4.101,-4.1089,-4.1298,-4.2186,0.0,0.0,0.0,0.0,0.0,-5.2444,-5.3622,-5.4314,-5.5222,-5.6115,-5.7118,-5.758,-5.8208,-5.9101,-5.9562,-5.9901,-6.0116,-6.0578,-6.1028,-6.1545,-6.195,-6.284,-6.4104,-6.4514,-6.5606,-6.7034,-6.7034,-6.7446,-6.8072,-6.8072,-6.77,-6.7135,-6.7405,-6.7214,-6.6853,0.0,-6.7861,-6.8368,-6.8605,-6.9011,-6.9383,-6.918,-6.9958,-7.0939,-7.0939,-7.1447,-7.209,-7.2326,0.0,-7.39,-7.4502,-7.5298,-7.6027,-7.6341,-7.7258,-7.8017,-7.8017,-7.8396,-7.881,-7.9086,-7.8741,-7.8396,-7.8396,-7.7948,-7.7534,-7.7258,-7.7223,-7.7223,-7.7223,-7.7223,0.0,0.0,0.0,0.0,-7.7223,-7.7223,-7.7223,-7.7223,-7.7223,-7.7223,-7.7223,-7.7223,-7.7223,-7.7223,-7.7223,-7.7499,-7.8017,-7.8775,-7.9396,-7.9879,-8.012,-8.0534,-8.1052,-8.1293,-8.1397,-8.1466,-8.25,-8.2914,-8.3052,-8.4604,-8.519,-8.5294,-8.6018,-8.6294,-8.6294,0.0,0.0,0.0,-4.1585,-4.1455,0.0,0.0,0.0,0.0,0.0,0.0,0.0,0.0,0.0,0.0,0.0,0.0,-5.2764,-5.3976,-5.4884,-5.5776,-5.6779,-5.7241,-5.7795,-5.8393,-5.907,-5.9562,-5.9778,-6.0455,-6.0905,-6.1177,-6.1581,-6.2288,-6.32,-6.3363,-6.4398,-6.5938,-6.5656,-6.6469,-6.7928,-6.6962,-6.6838,-6.7167,-6.6707,-6.6463,0.0,-6.7247,-6.8199,-6.9147,-6.9417,-6.9789,-7.0161,-6.9958,-7.0534,-7.1379,-7.1616,-7.2022,0.0,-7.3037,-7.3818,-7.4614,-7.5219,-7.6051,-7.6782,-7.7133,-7.8051,-7.881,-7.881,-7.9189,-7.95,-7.95,-7.8913,-7.8568,-7.912,-7.8534,-7.812,-7.8396,-7.843,-7.8327,-7.8085,-7.8051,-7.8051,0.0,0.0,0.0,-7.7258,-7.7223,-7.7223,-7.7223,-7.7223,-7.7223,-7.7223,-7.7223,-7.7223,-7.7223,-7.7499,-7.8154,-7.9189,-7.9672,-8.0293,-8.1052,-8.1052,-8.1328,-8.181,-8.181,-8.1948,-8.2259,-8.2983,-8.3466,-8.3845,-8.5121,-8.5604,-8.5639,-8.6122,-8.6294,-8.6294,0.0,0.0,0.0,0.0,0.0,0.0,0.0,0.0,0.0,0.0,0.0,0.0,0.0,0.0,0.0,0.0,0.0,0.0,-5.4406,-5.4652,0.0,-5.6656,-5.673,-5.7069,-5.7765,-5.8393,-5.9039,-5.9686,-6.0393,-6.0732,-6.0711,-6.1388,-6.2064,-6.271,-6.271,-6.3479,-6.4734,-6.4002,-6.5232,-6.7442,-6.4826,-6.5087,-6.6943,-6.5332,-6.5306,-6.6254,-6.6657,-6.7742,-6.9171,-6.9891,-7.0195,-7.0364,-7.1075,-7.1345,-7.1515,-7.2191,-7.2462,-7.2834,-7.4221,-7.4119,-7.392,-7.5128,-7.6017,-7.6702,-7.7192,-7.8465,-7.95,-7.95,-7.9534,-7.9569,0.0,0.0,-7.8982,-8.0396,-7.9982,-7.9741,-8.0465,-8.0569,-8.0293,0.0,0.0,0.0,0.0,0.0,0.0,-7.7396,0.0,-7.7223,-7.7223,-7.7223,-7.7223,-7.7223,-7.7258,-7.7292,-7.7292,-7.8085,-7.9224,-8.0603,-8.0672,-8.1086,-8.181,-8.181,-8.181,-8.1845,-8.1845,-8.2293,-8.3018,-8.3776,-8.4535,-8.5259,-8.6018,-8.6294,-8.6294,-8.6294,-8.6294,-8.6294,0.0,0.0,0.0,0.0,0.0,0.0,0.0,0.0,0.0,0.0,0.0,0.0,0.0,0.0,0.0,0.0,0.0,0.0,-5.316,0.0,0.0,0.0,0.0,0.0,0.0,0.0,0.0,-5.802,-5.9165,-5.9613,-5.9488,-6.0368,-6.0988,-6.1469,-6.1469,-6.2065,-6.3023,-6.284,-6.3255,-6.4057,-6.3349,-6.3109,-6.3264,-6.3565,-6.3559,-6.3629,-6.5763,-6.7112,0.0,0.0,0.0,0.0,0.0,-7.1684,-7.2157,-7.2326,-7.3172,-7.4119,-7.4525,-7.5039,-7.5667,-7.6743,-7.7318,-7.7858,-7.8718,-7.9224,-7.95,-7.95,-7.9948,-8.0327,0.0,0.0,0.0,-8.0569,-7.9982,0.0,-7.9776,-7.9776,0.0,-7.9534,0.0,-7.95,-7.95,-7.9327,0.0,0.0,-7.7879,-7.7223,-7.7223,-7.7223,-7.7223,-7.7223,-7.781,-7.8085,-7.8085,-7.9396,-8.0258,-8.0638,-8.1224,-8.1603,-8.181,-8.181,-8.2086,-8.2638,-8.2638,-8.3052,-8.3811,-8.457,-8.5018,-8.5259,-8.6018,-8.6294,-8.6294,-8.6294,-8.6294,-8.6225,0.0,0.0,0.0,0.0,0.0,0.0,0.0,0.0,0.0,0.0,0.0,0.0,0.0,0.0,0.0,0.0,0.0,0.0,0.0,0.0,0.0,0.0,0.0,0.0,0.0,0.0,0.0,0.0,0.0,0.0,-6.0259,-6.0058,-6.0333,-6.0981,-6.0707,-6.124,-6.2364,-6.2058,-6.2802,0.0,0.0,-6.2937,-6.3745,-6.311,-6.3177,-6.3847,-6.5712,0.0,0.0,0.0,0.0,-7.0767,-7.1548,-7.1748,-7.1908,-7.3034,0.0,-7.4762,-7.5439,-7.5865,-7.6407,-7.778,-7.7924,-7.8142,-7.9624,-7.9814,-7.9864,-8.0406,-8.0845,0.0,0.0,0.0,0.0,0.0,0.0,0.0,-8.1431,-8.1224,-8.0879,0.0,-8.0534,0.0,-8.0534,-8.0189,-7.9982,0.0,-7.8603,-7.7741,-7.7741,-7.7741,-7.7741,-7.7741,-7.8499,-7.9051,-7.9362,-8.0189,-8.081,-8.1155,-8.1569,-8.181,-8.181,-8.181,-8.219,-8.2914,-8.2914,-8.3535,-8.457,-8.5018,-8.5397,-8.5708,-8.6156,-8.6294,-8.6294,-8.6294,-8.6087,-8.5777,0.0,0.0,0.0,0.0,0.0,0.0,0.0,0.0,0.0,0.0,-4.6002,-4.7147,0.0,0.0,0.0,0.0,0.0,0.0,0.0,0.0,0.0,0.0,0.0,0.0,0.0,0.0,0.0,0.0,0.0,0.0,-6.123,-5.9893,-5.9801,-6.0684,-6.0092,-6.0677,-6.1981,-6.1455,-6.2717,-6.4955,-6.2641,-6.3285,-6.5408,0.0,-6.3341,-6.4938,0.0,0.0,0.0,0.0,-6.9571,-6.9988,-7.1665,-7.1701,-7.1608,-7.3952,-7.4762,-7.5202,-7.6555,-7.6502,-7.6544,-7.819,-7.8059,-7.8031,-8.0062,-8.0375,-8.0523,-8.1585,0.0,-8.181,-8.181,-8.181,-8.2259,-8.3638,0.0,-8.3018,-8.3776,-8.3225,-8.2535,-8.1879,-8.181,-8.181,-8.181,-8.119,-8.0776,-8.0776,-7.95,-7.8672,-7.8568,-7.8568,-7.8603,-7.8706,-7.9327,-8.0017,-8.0776,-8.0776,-8.1121,-8.181,-8.181,-8.181,-8.181,-8.181,-8.219,-8.2914,-8.3018,-8.388,-8.519,-8.5294,-8.5708,-8.6294,-8.6294,-8.6294,-8.6294,-8.6191,-8.5742,-8.5156,0.0,0.0,0.0,0.0,0.0,0.0,0.0,0.0,0.0,0.0,-4.7195,-4.7957,0.0,0.0,0.0,0.0,0.0,0.0,0.0,0.0,0.0,0.0,0.0,0.0,0.0,0.0,0.0,0.0,0.0,0.0,-5.7861,-5.8494,-5.8821,-5.901,-5.9188,-5.9543,-6.0022,-6.0145,-6.0677,-6.1308,-6.1059,-6.1267,-6.1815,-6.1856,0.0,0.0,0.0,0.0,0.0,0.0,-6.8993,-6.9846,-7.08,-7.1988,-7.3257,-7.4309,-7.5506,-7.6555,-7.6826,-7.6525,-7.6555,-7.7934,-7.8101,-7.8337,-7.9768,-8.08,0.0,0.0,-8.181,-8.181,-8.181,-8.181,-8.2086,-8.2949,0.0,0.0,0.0,0.0,-8.1948,0.0,0.0,0.0,0.0,0.0,0.0,0.0,0.0,-7.9982,-7.9362,-7.9327,-7.9603,-8.0224,-8.0362,-8.081,-8.1569,-8.1603,-8.1672,-8.181,-8.181,-8.181,-8.181,-8.181,-8.219,-8.2949,-8.3569,0.0,-8.5259,-8.5846,-8.6191,-8.6294,-8.6294,-8.6294,-8.6225,-8.5639,-8.5294,-8.5018,0.0,0.0,0.0,0.0,0.0,0.0,0.0,-4.6447,-4.7857,-4.9281,-5.0116,-5.0597,-5.0499,-5.0985,-5.1379,0.0,0.0,0.0,0.0,0.0,0.0,0.0,0.0,0.0,0.0,0.0,0.0,-5.7323,0.0,-5.6858,-5.8321,-5.7773,-5.785,-5.8384,-5.8684,-5.9175,-5.9773,-6.0092,-6.0355,-6.0638,-6.0742,-6.1009,-6.1348,0.0,0.0,0.0,0.0,0.0,0.0,0.0,-6.847,-6.9534,-7.0254,-7.1638,-7.321,-7.4471,-7.6084,-7.7438,-7.7145,-7.6722,-7.6716,-7.8348,-7.7603,-7.7259,-8.0254,0.0,0.0,0.0,-8.181,-8.181,-8.181,-8.2431,0.0,0.0,0.0,0.0,0.0,0.0,0.0,0.0,0.0,0.0,0.0,0.0,0.0,0.0,0.0,-8.0914,-8.012,-8.0086,-8.0431,-8.1224,-8.1224,-8.1431,-8.181,-8.181,-8.181,-8.181,-8.181,-8.181,-8.181,-8.181,-8.219,-8.2949,-8.3707,-8.4466,-8.5259,-8.6018,-8.6294,-8.6294,-8.6294,-8.6087,-8.5673,-8.5328,-8.4708,-8.3914,0.0,0.0,0.0,0.0,0.0,0.0,0.0,-4.8506,-4.9893,-5.1389,-5.2388,-5.2672,-5.1904,-5.1813,-5.1892,0.0,0.0,0.0,0.0,0.0,0.0,0.0,0.0,0.0,0.0,0.0,0.0,-5.7902,-5.6434,0.0,0.0,0.0,0.0,0.0,-5.8557,-5.9183,-5.988,-6.0167,-6.0481,0.0,0.0,-6.1194,0.0,0.0,0.0,0.0,0.0,0.0,0.0,0.0,-6.8531,-6.9866,-7.05,-7.146,-7.2656,-7.4215,-7.6018,-7.7395,-7.7047,-7.6498,-7.6485,-7.8047,-7.6801,-7.621,-8.0139,-7.9837,0.0,0.0,-8.181,-8.181,-8.181,-8.288,-8.3569,0.0,0.0,0.0,0.0,0.0,0.0,0.0,0.0,0.0,0.0,0.0,0.0,0.0,0.0,0.0,-8.0914,-8.0879,-8.1155,-8.1776,-8.181,-8.181,-8.181,-8.181,-8.181,-8.181,-8.181,-8.181,-8.181,-8.181,-8.2121,-8.2742,-8.3811,-8.4535,-8.5018,-8.6087,-8.6432,-8.6294,-8.6294,-8.5846,-8.519,-8.5018,-8.4087,-8.2914,0.0,0.0,0.0,0.0,0.0,0.0,0.0,-4.9126,-5.0751,-5.149,-5.1974,-5.2342,-5.2489,-5.2537,-5.2453,0.0,0.0,0.0,0.0,0.0,0.0,0.0,0.0,0.0,0.0,0.0,0.0,-5.5852,-5.602,0.0,0.0,0.0,0.0,0.0,0.0,-5.9469,-5.9583,-5.988,0.0,0.0,0.0,0.0,0.0,0.0,0.0,0.0,0.0,0.0,0.0,0.0,0.0,-7.2022,-7.214,-7.2184,-7.239,-7.321,0.0,0.0,-7.5686,-7.5321,-7.5109,-7.5816,-7.5816,-7.6152,-7.8151,0.0,-8.024,-8.1538,-8.181,-8.181,-8.181,-8.2466,-8.2983,0.0,0.0,-8.3052,0.0,0.0,0.0,0.0,0.0,0.0,0.0,0.0,0.0,0.0,0.0,0.0,-8.1707,-8.1707,-8.1707,-8.181,-8.181,-8.181,-8.181,-8.181,-8.181,-8.181,-8.181,-8.181,-8.181,-8.181,-8.1845,-8.2017,-8.4156,-8.4742,0.0,-8.6432,-8.6915,-8.6294,-8.6294,-8.5846,-8.5121,-8.4397,-8.3604,-8.2914,0.0,0.0,0.0,0.0,0.0,0.0,-4.9042,-5.004,-5.1195,-5.293,-5.3317,-5.3361,-5.3212,-5.3056,-5.2653,-5.194,0.0,0.0,0.0,0.0,0.0,0.0,0.0,0.0,0.0,0.0,-5.593,-5.6184,-5.6796,0.0,0.0,0.0,0.0,0.0,0.0,-5.9666,-6.0061,-6.0355,0.0,0.0,0.0,0.0,0.0,0.0,0.0,0.0,0.0,0.0,0.0,0.0,0.0,0.0,-7.2405,-7.2344,0.0,0.0,-7.539,-7.5999,-7.5259,-7.4961,-7.4948,-7.5534,-7.5707,-7.6363,-7.8788,-7.9735,-8.0374,-8.1585,-8.181,-8.1948,-8.2397,-8.2707,-8.2914,0.0,0.0,0.0,0.0,0.0,0.0,0.0,0.0,0.0,0.0,0.0,0.0,0.0,0.0,0.0,-8.181,-8.181,-8.181,-8.181,-8.181,-8.181,-8.181,-8.181,-8.181,-8.181,-8.181,-8.181,-8.181,-8.181,-8.2052,-8.2569,-8.4397,-8.5259,0.0,-8.6846,-8.7225,-8.688,-8.5984,-8.5156,-8.4397,-8.3638,-8.288,-8.2293,0.0,0.0,0.0,0.0,0.0,-4.8116,-5.0283,-5.0865,-5.1719,-5.3644,-5.3892,-5.3852,-5.3777,-5.3421,-5.2972,-5.2395,-5.1981,0.0,0.0,0.0,0.0,0.0,0.0,0.0,0.0,0.0,-5.6539,-5.6745,-5.754,-5.7976,0.0,0.0,-5.8906,-5.931,0.0,0.0,0.0,0.0,0.0,0.0,0.0,0.0,0.0,0.0,0.0,0.0,0.0,0.0,0.0,0.0,0.0,0.0,0.0,0.0,0.0,0.0,-7.4991,-7.5359,-7.4505,-7.4265,-7.4385,-7.4921,-7.5359,-7.6363,0.0,-7.9702,-8.0374,-8.1585,-8.181,-8.1948,-8.25,-8.2742,-8.2914,0.0,0.0,-8.3397,0.0,0.0,0.0,0.0,0.0,0.0,0.0,0.0,0.0,0.0,0.0,0.0,-8.181,-8.181,-8.181,-8.181,-8.181,-8.181,-8.181,-8.181,-8.181,-8.181,-8.181,-8.181,-8.181,-8.181,-8.219,-8.3018,-8.4777,-8.5811,0.0,-8.7363,-8.7605,-8.726,-8.5777,-8.4708,-8.3914,-8.319,-8.2431,-8.1948,0.0,0.0,0.0,0.0,0.0,0.0,-5.0481,-5.1482,-5.2426,-5.3114,-5.3204,-5.3443,-5.4132,-5.3593,-5.3443,-5.4132,-5.2366,0.0,0.0,0.0,0.0,0.0,0.0,0.0,0.0,0.0,-5.7094,-5.7094,-5.8129,-5.8595,-5.8595,-5.981,-6.0219,-5.9986,0.0,0.0,0.0,0.0,0.0,0.0,0.0,0.0,-6.3903,0.0,0.0,0.0,0.0,0.0,0.0,0.0,0.0,0.0,0.0,-7.595,-7.5949,0.0,-7.2522,-7.3045,-7.3045,-7.3045,-7.3107,-7.3447,-7.4596,-7.6078,0.0,0.0,-8.034,-8.1585,-8.181,-8.181,-8.181,-8.2431,-8.2914,-8.2914,-8.2914,0.0,0.0,0.0,0.0,0.0,0.0,0.0,0.0,0.0,0.0,0.0,0.0,0.0,-8.181,-8.181,-8.181,-8.181,-8.181,-8.181,-8.181,-8.181,-8.181,-8.181,-8.181,-8.181,-8.181,-8.181,-8.219,-8.3052,-8.5294,-8.6294,0.0,-8.795,-8.8122,-8.726,-8.5777,-8.4708,-8.3914,-8.319,-8.2431,-8.2017,0.0,0.0,0.0,0.0,0.0,0.0,0.0,-5.1292,-5.1768,-5.2426,-5.2905,-5.3264,-5.3473,-5.3743,-5.3982,-5.4192,-5.3204,0.0,0.0,0.0,0.0,0.0,0.0,0.0,0.0,-5.7573,-5.8159,-5.8159,-5.9751,-6.0479,-6.0563,-6.1553,-6.1774,-6.1239,-6.1344,-6.1344,0.0,0.0,0.0,0.0,0.0,-6.4118,-6.458,0.0,0.0,0.0,0.0,0.0,0.0,0.0,0.0,0.0,0.0,0.0,0.0,-7.522,-7.4731,-7.4385,-7.5242,-7.4862,-7.4564,-7.588,-7.7203,-7.8312,-7.9154,0.0,-8.1359,-8.1728,-8.219,-8.2569,-8.2569,-8.2742,-8.3087,-8.3569,-8.3225,0.0,0.0,0.0,0.0,0.0,0.0,0.0,0.0,0.0,0.0,0.0,0.0,0.0,-8.181,-8.181,-8.181,-8.181,-8.181,-8.181,-8.181,-8.181,-8.181,-8.181,-8.181,-8.181,-8.181,-8.2328,-8.3259,-8.457,-8.6294,-8.7639,-8.8639,-8.8605,-8.8122,-8.7225,-8.519,-8.3914,-8.3225,-8.2983,-8.2742,-8.2776,0.0,0.0,0.0,0.0,0.0,0.0,0.0,-5.1439,-5.1648,-5.1798,-5.3054,-5.3832,-5.3593,-5.461,-5.5299,-5.5299,-5.501,0.0,0.0,0.0,0.0,0.0,0.0,0.0,-5.7281,-5.8663,-5.9372,-5.9478,-6.102,-6.1753,-6.1753,-6.2449,-6.2579,-6.2179,-6.2179,-6.2179,0.0,0.0,0.0,0.0,-6.4672,-6.4949,-6.4918,0.0,0.0,0.0,0.0,0.0,0.0,0.0,0.0,0.0,0.0,0.0,0.0,0.0,-7.6757,-7.6192,-7.6508,-7.6053,-7.5791,-7.7004,-7.8258,0.0,0.0,0.0,0.0,-8.181,-8.219,-8.25,-8.25,-8.2707,-8.3156,-8.388,-8.3638,0.0,0.0,0.0,0.0,0.0,0.0,0.0,0.0,0.0,0.0,0.0,0.0,0.0,-8.181,-8.181,-8.181,-8.181,-8.181,-8.181,-8.181,-8.181,-8.181,-8.181,-8.181,-8.1948,-8.2224,-8.2707,-8.388,-8.5673,-8.688,-8.8295,0.0,-8.8915,-8.8122,-8.7191,-8.4915,-8.3742,-8.3293,-8.3018,-8.3087,-8.35,0.0,0.0,0.0,0.0,0.0,0.0,0.0,-5.1828,-5.2007,-5.1439,-5.3593,-5.497,-5.4341,-5.5957,-5.7124,-5.7154,-5.7445,0.0,0.0,0.0,0.0,0.0,0.0,0.0,-5.7833,-5.9673,-6.0802,-6.1072,-6.2011,-6.251,-6.251,-6.2841,-6.2948,-6.2887,-6.2887,-6.2887,0.0,0.0,0.0,0.0,-6.5996,-6.6027,0.0,0.0,0.0,0.0,0.0,0.0,0.0,0.0,0.0,0.0,0.0,0.0,0.0,0.0,0.0,0.0,0.0,-7.6846,-7.6813,-7.7226,-7.8312,-7.9428,-7.9735,0.0,0.0,-8.1879,-8.1879,-8.1879,-8.1879,-8.25,-8.3225,-8.3914,-8.392,0.0,0.0,0.0,0.0,0.0,0.0,0.0,0.0,0.0,0.0,0.0,0.0,0.0,-8.181,-8.181,-8.181,-8.181,-8.181,-8.181,-8.181,-8.181,-8.181,-8.181,-8.181,-8.219,-8.2914,-8.3018,-8.4294,0.0,-8.7225,-8.8433,-8.9709,-8.8984,-8.8157,-8.7122,-8.5018,-8.4087,-8.388,-8.3293,-8.35,-8.4225,0.0,0.0,0.0,0.0,0.0,0.0,0.0,0.0,0.0,0.0,-5.4162,-5.5119,-5.497,-5.6226,-5.7304,0.0,0.0,0.0,0.0,0.0,0.0,0.0,0.0,0.0,-5.9915,-6.0745,-6.1469,-6.2096,-6.2986,-6.3486,-6.3486,-6.4094,-6.4118,-6.3595,-6.3595,-6.3595,0.0,0.0,0.0,0.0,-6.5165,-6.5195,0.0,0.0,0.0,0.0,-6.9904,-7.2639,0.0,0.0,0.0,0.0,0.0,0.0,0.0,0.0,-7.9079,-7.9734,-7.9649,0.0,-7.8591,-7.9769,-8.0458,-8.097,0.0,-8.1538,-8.1948,-8.2535,-8.2638,-8.2638,-8.2638,-8.3259,-8.3811,-8.3983,0.0,0.0,0.0,0.0,0.0,0.0,0.0,0.0,0.0,0.0,0.0,0.0,0.0,-8.181,-8.181,-8.181,-8.181,-8.181,-8.181,-8.181,-8.181,-8.181,-8.181,-8.181,-8.181,-8.219,-8.2949,-8.4121,-8.557,-8.7225,-8.857,-8.9709,-9.0502,-8.9743,-8.8295,-8.6501,-8.5984,-8.4708,-8.3293,-8.4294,-8.4777,-8.5018,0.0,0.0,0.0,0.0,0.0,0.0,0.0,0.0,0.0,0.0,-5.467,-5.5718,-5.485,-5.6705,-5.8052,0.0,0.0,0.0,0.0,0.0,0.0,0.0,0.0,-6.0668,-6.1413,-6.1988,-6.254,-6.3071,-6.4193,-6.4611,-6.4334,-6.5042,-6.498,-6.4303,-6.4303,-6.4303,0.0,0.0,0.0,-6.4949,-6.5565,0.0,0.0,0.0,0.0,0.0,-7.1369,-7.3449,0.0,-7.6413,-7.6756,-7.6813,0.0,0.0,0.0,0.0,-7.9683,-8.0259,-8.056,-8.009,-7.9854,-8.0921,-8.1297,-8.1442,-8.1763,-8.2052,-8.2431,-8.2845,-8.319,-8.3148,-8.2281,-8.2744,-8.292,0.0,-8.1941,0.0,0.0,0.0,0.0,0.0,0.0,0.0,0.0,0.0,0.0,0.0,0.0,-8.181,-8.181,-8.181,-8.181,-8.181,-8.181,-8.181,-8.181,-8.181,-8.181,-8.181,-8.181,-8.2569,-8.3983,-8.4811,-8.6398,-8.8501,-8.9329,-9.0123,-9.0743,-9.0019,-8.8364,-8.626,-8.5949,-8.4811,-8.3535,-8.4363,-8.5121,-8.5777,0.0,0.0,0.0,0.0,0.0,0.0,0.0,0.0,0.0,0.0,0.0,0.0,0.0,0.0,0.0,0.0,0.0,0.0,0.0,0.0,0.0,0.0,-6.0977,-6.1389,-6.2463,-6.3244,-6.3752,-6.4009,-6.5263,-6.5657,-6.5226,-6.5688,-6.5596,-6.5042,-6.4949,-6.4888,-6.498,-6.6119,-6.5934,-6.498,-6.6288,0.0,0.0,0.0,0.0,0.0,0.0,0.0,0.0,-7.6756,-7.645,-7.5675,-7.7785,0.0,0.0,0.0,0.0,0.0,-8.0326,-8.0376,-8.0576,-8.1248,-8.1442,-8.149,-8.1763,-8.2362,-8.2949,-8.3052,-8.3424,-8.3236,-8.1665,-8.1729,0.0,0.0,0.0,0.0,0.0,0.0,0.0,0.0,0.0,0.0,0.0,0.0,0.0,0.0,0.0,-8.181,-8.181,-8.181,-8.181,-8.181,-8.181,-8.181,-8.181,-8.181,-8.181,-8.181,-8.181,-8.2983,-8.519,-8.5328,-8.6949,-8.9709,0.0,0.0,-9.0743,-9.0123,-8.8467,-8.626,-8.5742,-8.4915,-8.4018,-8.4156,-8.5087,-8.6294,0.0,0.0,0.0,0.0,0.0,0.0,0.0,0.0,0.0,0.0,0.0,0.0,0.0,0.0,0.0,0.0,0.0,0.0,0.0,0.0,0.0,-6.1807,-6.2025,-6.2384,-6.2864,-6.4064,-6.4813,-6.5141,-6.5668,-6.615,-6.6581,-6.6119,-6.5842,-6.5719,-6.5165,-6.4888,-6.4918,-6.5134,-6.5103,-6.5029,-6.6135,0.0,0.0,0.0,0.0,0.0,0.0,0.0,0.0,-7.7115,-7.7569,-7.7893,-7.8304,0.0,0.0,0.0,0.0,0.0,-7.9254,-7.9254,-7.9836,-8.1068,-8.1538,-8.1763,-8.181,-8.2362,-8.3087,-8.3707,-8.3105,-8.2393,-8.2155,-8.1403,-8.0484,0.0,0.0,0.0,0.0,0.0,0.0,0.0,0.0,0.0,0.0,0.0,0.0,0.0,0.0,-8.181,-8.181,-8.181,-8.181,-8.181,-8.181,-8.181,-8.181,-8.181,-8.181,-8.181,-8.181,-8.2983,-8.5225,-8.5846,-8.7432,-8.9743,0.0,-9.0709,-9.0812,-9.0674,-8.8915,-8.6363,-8.688,-8.5811,-8.4087,-8.4777,-8.557,-8.6294,0.0,0.0,0.0,0.0,0.0,0.0,0.0,0.0,0.0,0.0,0.0,0.0,0.0,0.0,0.0,0.0,0.0,0.0,0.0,0.0,-6.1862,-6.2505,-6.3312,-6.3758,-6.3787,-6.4315,-6.4788,-6.5095,-6.5663,-6.6057,-6.6365,-6.6427,-6.6273,-6.5903,-6.5596,-6.5226,-6.4888,-6.4888,-6.4888,-6.4998,0.0,0.0,0.0,0.0,0.0,0.0,0.0,0.0,0.0,0.0,-7.6395,-7.6701,-7.8002,0.0,0.0,0.0,0.0,0.0,-8.004,-7.9649,-7.9546,-8.0458,-8.0274,-7.9888,-7.9888,-8.0496,-8.1155,-8.1493,-8.1447,-8.1049,0.0,0.0,-7.8859,-7.8273,0.0,0.0,0.0,0.0,0.0,0.0,0.0,0.0,0.0,0.0,0.0,0.0,0.0,0.0,-8.181,-8.181,-8.181,-8.181,-8.181,-8.181,-8.181,-8.181,-8.181,-8.181,-8.219,-8.3604,-8.5811,-8.657,-8.8157,-9.0329,0.0,-9.0812,-9.0812,-9.0812,-8.9019,-8.6363,-8.7122,-8.6018,-8.4156,-8.5363,-8.6018,-8.6294,0.0,0.0,0.0,0.0,0.0,0.0,0.0,0.0,0.0,0.0,0.0,0.0,0.0,0.0,0.0,0.0,0.0,0.0,0.0,0.0,-6.2482,-6.2961,-6.4076,-6.4554,-6.427,-6.4621,-6.4825,-6.4992,-6.5755,-6.6211,-6.6396,-6.6919,-6.6796,-6.615,-6.5965,-6.5534,-6.4888,-6.4888,-6.4888,-6.4998,0.0,0.0,0.0,0.0,0.0,0.0,0.0,0.0,0.0,0.0,0.0,0.0,0.0,0.0,0.0,-7.9236,-7.9972,-8.0175,-8.009,-7.9495,-7.8888,-7.8736,-7.8471,-7.8291,-7.8291,-7.8908,-7.9525,-7.9525,-7.987,0.0,0.0,-7.755,0.0,-7.726,0.0,0.0,0.0,0.0,0.0,0.0,0.0,0.0,0.0,0.0,0.0,0.0,0.0,0.0,-8.181,-8.181,-8.181,-8.181,-8.181,-8.181,-8.181,-8.181,-8.181,-8.181,-8.2569,-8.4087,-8.6329,-8.7087,-8.8639,-9.0812,-9.0812,-9.0812,-9.0812,-9.0812,-8.9122,-8.6605,-8.7191,-8.6122,-8.4466,-8.5811,-8.6294,-8.6294,0.0,0.0,0.0,0.0,0.0,0.0,0.0,0.0,0.0,0.0,0.0,0.0,0.0,0.0,0.0,0.0,0.0,0.0,0.0,0.0,-6.2263,-6.2845,-6.3654,-6.4049,-6.4049,-6.5167,-6.5642,-6.5386,-6.6375,-6.7165,-6.7781,-6.7843,-6.7504,-6.6827,-6.618,-6.5534,-6.4888,-6.4888,-6.4888,-6.4998,-6.6045,0.0,0.0,0.0,0.0,0.0,0.0,0.0,0.0,0.0,0.0,0.0,0.0,0.0,-7.8304,-7.8465,-7.9288,-7.9819,-7.7893,-7.7544,-7.7245,-7.5306,-7.6532,-7.8291,-7.8291,-7.8908,-7.9525,-7.9525,-7.9238,-7.8737,-7.7966,-7.6859,0.0,0.0,0.0,0.0,0.0,0.0,0.0,0.0,0.0,0.0,0.0,0.0,0.0,0.0,0.0,0.0,-8.181,-8.181,-8.181,-8.181,-8.181,-8.181,-8.181,-8.181,-8.181,-8.181,-8.2569,-8.4087,-8.6329,-8.7087,-8.8639,-9.0812,-9.0812,-9.0812,-9.0812,-9.0812,-8.9433,-8.7329,-8.7398,-8.6467,-8.5225,-8.6018,-8.6294,-8.6294,0.0,0.0,0.0,0.0,0.0,0.0,0.0,0.0,0.0,0.0,0.0,-5.9099,-5.9099,0.0,0.0,0.0,0.0,0.0,0.0,-6.2001,-6.275,-6.3787,-6.4092,-6.4244,-6.4244,-6.4713,-6.5034,-6.509,-6.6309,-6.7258,-6.7935,-6.8335,-6.7935,-6.6919,-6.6642,-6.5934,-6.4888,-6.4888,-6.4888,-6.4998,-6.6045,-6.6744,0.0,0.0,0.0,0.0,0.0,0.0,0.0,0.0,-7.4611,-7.6078,-7.5618,-7.5791,-7.6306,-7.7069,-7.7621,-7.7839,-7.7456,-7.6902,-7.6281,-7.5913,-7.597,0.0,-7.6199,-7.6071,-7.616,-7.6579,-7.6496,-7.6459,-7.6651,0.0,0.0,0.0,0.0,0.0,0.0,0.0,0.0,0.0,0.0,0.0,0.0,0.0,0.0,0.0,0.0,0.0,-8.181,-8.181,-8.181,-8.181,-8.181,-8.181,-8.181,-8.181,-8.181,-8.181,-8.3535,-8.5018,-8.6363,-8.8053,-8.9571,-9.0812,-9.0812,-9.0812,-9.0812,-9.0812,-8.9191,-8.6639,-8.5673,-8.5535,-8.5915,-8.6191,-8.6294,-8.6294,0.0,0.0,0.0,0.0,0.0,0.0,0.0,0.0,-5.9099,0.0,0.0,0.0,0.0,-5.9099,0.0,0.0,0.0,0.0,-6.2032,-6.2391,-6.311,-6.4351,-6.4326,-6.427,-6.4382,-6.4524,-6.4758,-6.5226,-6.6581,-6.7566,-6.8243,-6.8458,-6.7997,-6.6919,-6.6704,-6.5965,-6.4888,-6.4888,-6.5011,-6.5282,-6.6012,-6.6744,0.0,0.0,0.0,0.0,0.0,0.0,0.0,0.0,-7.3572,-7.5242,-7.4445,-7.4711,-7.5475,-7.5938,-7.6395,-7.679,-7.6869,-7.6258,-7.5624,-7.5963,0.0,0.0,-7.5087,-7.4897,-7.4676,-7.515,-7.5403,-7.5782,-7.6509,-7.6825,0.0,0.0,0.0,0.0,0.0,0.0,0.0,0.0,0.0,0.0,0.0,0.0,0.0,0.0,0.0,0.0,0.0,-8.181,-8.181,-8.181,-8.181,-8.181,-8.181,-8.181,-8.1914,-8.219,-8.4466,-8.5811,-8.6398,-8.8674,-9.0088,-9.0812,-9.0812,-9.0812,-9.0812,-9.0812,-8.9329,-8.688,-8.5328,-8.5397,-8.6294,-8.6294,-8.6294,-8.6294,0.0,0.0,0.0,0.0,0.0,0.0,0.0,0.0,-5.9099,-5.9099,-5.9099,0.0,0.0,0.0,0.0,0.0,0.0,0.0,-6.2333,-6.2732,-6.3346,-6.4351,-6.4132,-6.4132,-6.4382,-6.4721,-6.5257,-6.5903,-6.7258,-6.8243,-6.8889,-6.8212,-6.7566,-6.6888,-6.6211,-6.5534,-6.4918,-6.4918,-6.5288,-6.5903,-6.5903,-6.6334,-6.7012,0.0,0.0,0.0,0.0,0.0,0.0,0.0,-7.4352,-7.6167,-7.3783,-7.4624,-7.6338,-7.5125,-7.588,-7.6846,-7.5938,-7.5457,-7.5103,0.0,0.0,0.0,-7.5498,-7.5972,-7.5972,-7.6003,-7.654,-7.7204,-7.7868,-7.7457,0.0,0.0,0.0,0.0,0.0,0.0,0.0,0.0,0.0,0.0,0.0,0.0,0.0,0.0,0.0,0.0,0.0,-8.181,-8.181,-8.181,-8.181,-8.181,-8.181,-8.181,-8.219,-8.2949,-8.5225,-8.6294,-8.6398,-8.8674,-9.0123,-9.0812,-9.0812,-9.0812,-9.0812,-9.0778,-8.9916,-8.8433,-8.688,-8.6294,-8.6294,-8.6294,-8.6294,-8.6294,0.0,0.0,0.0,0.0,0.0,0.0,0.0,0.0,-5.9099,-5.9099,-5.9099,0.0,0.0,0.0,0.0,0.0,0.0,0.0,-6.2333,-6.2732,-6.3457,-6.4691,-6.4275,-6.4275,-6.4777,-6.5755,-6.6396,-6.6611,-6.7012,-6.7781,-6.8889,-6.8212,-6.7566,-6.6888,-6.6211,-6.578,-6.5596,-6.5596,-6.5996,-6.6611,-6.6611,-6.7012,-6.7658,0.0,0.0,0.0,0.0,0.0,0.0,0.0,0.0,0.0,-7.3077,-7.3508,-7.3995,-7.3661,-7.3844,-7.4236,-7.4417,-7.4379,-7.4403,-7.4775,0.0,0.0,0.0,-7.5592,0.0,0.0,-7.7236,-7.7615,-7.733,0.0,0.0,0.0,0.0,0.0,0.0,0.0,0.0,0.0,0.0,0.0,0.0,0.0,0.0,0.0,0.0,0.0,0.0,-8.181,-8.181,-8.181,-8.181,-8.181,-8.181,-8.181,-8.2431,-8.3707,-8.5466,-8.657,-8.7156,-8.9433,-9.0605,-9.0812,-9.0812,-9.0812,-9.0674,-8.9088,-8.8501,-8.8398,-8.6329,-8.5846,-8.6294,-8.6294,-8.6294,-8.6363,0.0,0.0,0.0,0.0,0.0,0.0,-5.9099,-5.9099,-5.9099,-5.9099,-5.9099,-5.9099,0.0,0.0,0.0,-5.9636,-6.0432,-6.1261,-6.231,-6.2621,-6.3346,-6.4604,-6.4275,-6.4275,-6.4888,-6.5688,-6.6242,-6.6519,-6.7319,-6.7966,-6.8489,-6.7843,-6.7165,-6.6488,-6.6088,-6.5903,-6.5934,-6.618,-6.6704,-6.7319,-6.7319,-6.772,-6.8304,0.0,0.0,0.0,0.0,0.0,0.0,0.0,0.0,0.0,-7.246,-7.2768,-7.3045,-7.3169,-7.3293,-7.3447,-7.3966,-7.402,0.0,-7.4775,-7.5213,-7.5782,-7.6604,0.0,-7.6446,0.0,-7.7931,-7.7899,-7.7457,0.0,0.0,0.0,0.0,0.0,0.0,0.0,0.0,0.0,0.0,0.0,0.0,0.0,0.0,0.0,0.0,0.0,0.0,-8.1538,-8.181,-8.181,-8.181,-8.1948,-8.2224,-8.2259,-8.3156,-8.4949,-8.6156,-8.7294,-8.8364,-9.0054,-9.0812,-9.0812,-9.0812,-9.0812,-9.0674,-8.8674,-8.8157,-8.8398,-8.6398,-8.5915,-8.6294,-8.6294,-8.6501,-8.6811,0.0,0.0,0.0,0.0,0.0,0.0,-5.9129,-5.9099,-5.9099,-5.9099,-5.9099,-5.9099,0.0,0.0,0.0,-5.988,-6.0355,-6.1128,-6.2286,-6.2486,-6.3122,-6.4351,-6.4188,-6.4331,-6.4888,-6.4949,-6.5288,-6.5903,-6.772,-6.8335,-6.7812,-6.7135,-6.6488,-6.5903,-6.5903,-6.5934,-6.6057,-6.6735,-6.7412,-6.7997,-6.7997,-6.8366,-6.8889,-6.8889,0.0,0.0,0.0,0.0,0.0,0.0,0.0,0.0,-7.1937,-7.2398,-7.2953,-7.3355,-7.3662,-7.3905,-7.4299,-7.4159,-7.4111,-7.4834,-7.5087,-7.5687,-7.7646,-7.8057,-7.8215,-7.8879,0.0,-7.7963,0.0,0.0,0.0,0.0,0.0,0.0,0.0,0.0,0.0,0.0,0.0,0.0,0.0,0.0,0.0,0.0,0.0,0.0,0.0,-8.118,-8.181,-8.181,-8.1879,-8.2224,-8.2914,-8.2983,-8.4156,-8.6432,-8.7087,-8.826,-8.9812,-9.0502,-9.0812,-9.0812,-9.0812,-9.0778,-9.0605,-8.9191,-8.857,-8.8329,-8.688,-8.6294,-8.6294,-8.6294,-8.6777,-8.7432,0.0,0.0,0.0,0.0,0.0,0.0,-5.9189,-5.9099,-5.9099,-5.9099,-5.9099,-5.9099,-5.9099,-5.9099,0.0,-5.9583,-6.0217,-6.102,-6.2014,-6.2627,-6.332,-6.4351,-6.4579,-6.4777,-6.4888,-6.5411,-6.575,-6.5903,-6.6334,-6.6735,-6.7104,-6.6427,-6.6057,-6.5903,-6.5903,-6.6211,-6.6735,-6.7412,-6.8089,-6.8674,-6.8674,-6.8766,-6.8889,-6.8889,-6.8889,0.0,0.0,0.0,0.0,0.0,0.0,0.0,-7.1629,-7.2091,-7.2368,-7.2953,-7.3355,-7.3662,0.0,-7.4113,0.0,0.0,-7.654,-7.7615,-7.8658,-7.8437,-7.8057,-7.8215,-7.8121,0.0,0.0,0.0,0.0,0.0,0.0,0.0,0.0,0.0,0.0,0.0,0.0,0.0,0.0,0.0,0.0,0.0,0.0,0.0,-8.1311,-8.1633,-8.181,-8.181,-8.2362,-8.2742,-8.2914,-8.3466,-8.4915,0.0,-8.7329,-8.8536,-9.0571,-9.0743,-9.0812,-9.0812,-9.0812,-9.0467,-8.9881,-8.8984,-8.8226,-8.757,-8.6674,-8.6294,-8.6294,-8.6294,-8.6777,-8.7501,0.0,0.0,0.0,0.0,0.0,0.0,0.0,0.0,-5.9578,-5.9578,-5.9308,-5.9099,-5.9099,-5.9099,0.0,0.0,-5.9753,-6.0289,-6.1225,-6.1891,-6.293,-6.4351,-6.4721,-6.4888,-6.4888,-6.5226,-6.5411,-6.5411,-6.5411,-6.578,-6.6427,-6.6057,-6.5719,-6.5442,-6.6088,-6.6581,-6.6981,-6.7966,-6.8581,-6.8889,-6.8889,-6.8889,-6.8889,-6.8889,-6.8889,-6.8889,-6.8889,0.0,0.0,0.0,0.0,0.0,0.0,0.0,-7.2335,-7.298,-7.3504,0.0,0.0,0.0,0.0,-7.6132,0.0,-7.7804,-7.8879,-7.8531,-7.7931,-7.7583,0.0,0.0,0.0,0.0,0.0,0.0,0.0,0.0,0.0,0.0,0.0,0.0,0.0,0.0,0.0,0.0,0.0,0.0,0.0,-7.8822,-8.0073,-8.1214,-8.181,-8.181,-8.2535,-8.3087,-8.3431,-8.419,-8.5708,-8.7984,-8.7984,-8.8984,-9.0812,-9.0812,-9.0812,-9.0812,-9.0812,-9.0398,-8.964,-8.8915,-8.8122,-8.7329,-8.6605,-8.6294,-8.6294,-8.6294,-8.7018,-8.8019,0.0,0.0,0.0,0.0,0.0,0.0,0.0,0.0,0.0,-6.0086,-5.9518,-5.9099,-5.9099,-5.9099,-5.9207,0.0,0.0,0.0,-6.0355,-6.1248,-6.2516,-6.4223,-6.4685,-6.4888,-6.4888,-6.4888,-6.4888,-6.4888,-6.4888,-6.5226,-6.5903,-6.578,-6.5503,-6.5134,-6.6365,-6.6981,-6.7165,-6.8366,-6.8889,-6.8889,-6.8889,-6.8889,-6.8889,-6.8889,-6.8889,-6.8889,-6.8889,-6.8889,-6.8889,-6.8889,0.0,0.0,0.0,0.0,-7.2295,-7.3083,0.0,0.0,0.0,0.0,-7.5403,-7.6667,-7.7078,0.0,-7.8816,-7.8437,-7.7678,0.0,0.0,0.0,0.0,0.0,0.0,0.0,0.0,0.0,0.0,0.0,0.0,0.0,0.0,0.0,0.0,0.0,0.0,0.0,0.0,-7.8716,-7.8874,-8.0891,-8.1983,-8.1983,-8.2845,-8.3604,-8.4225,-8.5121,-8.6605,-8.8605,-8.8846,-8.964,-9.0812,-9.0812,-9.0812,-9.0812,-9.0812,-9.0329,-8.9467,-8.8846,-8.8053,-8.7156,-8.6536,-8.6294,-8.6294,-8.6294,-8.7294,-8.8605,0.0,0.0,0.0,0.0,0.0,0.0,0.0,0.0,0.0,0.0,-5.9518,-5.9099,-5.9099,-5.9099,-5.9099,-5.9153,-5.9099,-5.9398,-6.0111,0.0,0.0,-6.3855,-6.458,-6.4888,-6.4888,-6.4888,-6.4888,-6.4888,-6.4888,-6.5226,-6.5903,-6.5319,-6.5288,-6.5811,-6.6581,-6.7227,-6.7843,-6.8581,-6.8889,-6.8889,-6.8889,-6.8889,-6.8889,-6.8889,-6.8889,-6.8889,-6.8889,-6.8889,-6.8889,-6.8889,-6.9127,0.0,0.0,0.0,-7.1288,-7.2563,-7.3239,0.0,0.0,0.0,0.0,0.0,-7.7425,-7.8089,0.0,0.0,0.0,0.0,0.0,0.0,0.0,0.0,0.0,0.0,0.0,0.0,0.0,0.0,0.0,0.0,0.0,0.0,0.0,0.0,0.0,0.0,-7.905,-8.024,-8.1262,-8.2253,-8.2742,-8.2742,-8.4156,-8.4949,-8.5052,-8.6432,-8.7605,-8.8605,-8.9916,-9.0605,-9.0812,-9.0812,-9.0812,-9.0812,-9.0812,-9.0019,-8.8743,-8.8639,-8.7743,-8.6432,-8.6329,-8.6294,-8.6294,-8.6294,-8.7294,-8.8605,0.0,0.0,0.0,0.0,0.0,0.0,0.0,0.0,0.0,0.0,0.0,-5.9099,-5.9099,-5.9099,-5.9099,-5.9099,-5.9099,-5.9531,-6.0518,-6.1395,-6.2293,-6.3202,-6.3564,-6.3718,-6.3718,-6.3718,-6.3718,-6.3718,-6.4118,-6.4457,0.0,-6.4857,-6.5472,-6.6488,-6.6796,-6.7289,-6.7935,-6.8212,-6.8551,-6.8889,-6.8889,-6.9105,-6.9413,-6.9012,-6.9351,-6.9905,-6.9166,-6.9135,-6.9441,-6.9247,-6.924,-6.9476,-7.0135,0.0,0.0,0.0,-7.2935,0.0,0.0,0.0,0.0,0.0,0.0,0.0,0.0,0.0,0.0,0.0,0.0,0.0,0.0,0.0,0.0,0.0,0.0,0.0,0.0,0.0,0.0,0.0,0.0,0.0,0.0,0.0,0.0,0.0,0.0,-8.024,-8.0721,-8.2094,-8.2914,-8.2914,-8.4397,-8.519,-8.519,-8.6674,-8.8019,-8.9226,-9.0295,-9.0812,-9.0812,-9.0812,-9.0812,-9.0778,-9.0364,-8.9571,-8.857,-8.8122,-8.7294,-8.6294,-8.6294,-8.6294,-8.6363,-8.6777,-8.7639,-8.8639,0.0,0.0,0.0,0.0,0.0,0.0,0.0,0.0,0.0,0.0,0.0,-5.9099,-5.9099,0.0,0.0,0.0,-5.9153,-5.9687,-6.0761,-6.1027,-6.1546,-6.2495,-6.2733,-6.2825,-6.2825,-6.2979,-6.3071,-6.3071,-6.3749,0.0,-6.4364,-6.4918,-6.578,-6.6919,-6.6735,-6.7042,-6.7689,-6.7843,-6.8212,-6.8674,-6.9012,-6.9443,-6.9843,-6.9536,-7.0028,-7.0767,-6.9751,-6.978,-7.0238,-6.9794,-6.9752,-6.9952,-7.0224,-7.0708,0.0,0.0,0.0,0.0,0.0,0.0,0.0,0.0,0.0,0.0,0.0,0.0,0.0,0.0,0.0,0.0,0.0,0.0,0.0,0.0,0.0,0.0,0.0,0.0,0.0,0.0,0.0,0.0,0.0,0.0,0.0,0.0,0.0,-8.0542,-8.0712,-8.2271,-8.3293,-8.35,-8.4777,-8.557,-8.5777,-8.726,-8.8674,-8.9985,-9.0536,-9.0812,-9.0812,-9.0812,-9.0812,-9.0778,-9.0019,-8.9295,-8.8536,-8.7743,-8.6984,-8.6294,-8.6294,-8.6294,-8.6398,-8.7122,-8.7915,-8.8708,0.0,0.0,0.0,0.0,0.0,0.0,0.0,0.0,0.0,0.0,0.0,-5.9099,-5.9099,-5.9099,-5.9099,-5.9099,-5.9315,-5.9743,-6.0386,-6.1019,-6.1492,-6.1871,-6.2487,0.0,-6.2825,-6.3441,-6.3779,-6.3779,0.0,0.0,-6.5811,-6.5842,-6.6242,-6.6888,-6.6242,-6.6334,-6.7012,-6.7658,-6.7935,-6.8089,-6.9351,-6.9874,-6.9967,-7.0582,-7.0828,-7.089,-7.0828,-7.1009,-7.1247,-7.0565,-7.0758,-7.1096,-7.0494,-7.0564,-7.0947,0.0,0.0,0.0,0.0,0.0,0.0,0.0,0.0,0.0,0.0,0.0,0.0,0.0,0.0,0.0,0.0,0.0,0.0,0.0,0.0,0.0,0.0,0.0,0.0,0.0,0.0,0.0,0.0,0.0,0.0,0.0,0.0,-8.1991,-8.2714,-8.3486,-8.4294,-8.5052,-8.5846,-8.657,-8.7294,-8.8812,-8.9985,-9.0743,-9.0778,-9.0812,-9.0812,-9.0812,-9.0812,-9.0778,-9.0019,-8.9295,-8.8536,-8.7743,-8.6984,-8.6294,-8.6294,-8.6294,-8.6398,-8.7122,-8.7915,-8.8708,0.0,0.0,0.0,0.0,0.0,0.0,0.0,0.0,0.0,0.0,0.0,0.0,0.0,-5.9099,-5.9153,-5.9315,-5.9667,-5.9986,-6.0377,-6.0591,-6.0901,-6.1163,-6.1379,-6.1532,-6.1532,-6.2179,-6.2517,0.0,0.0,-6.4334,-6.458,-6.5042,-6.538,-6.5626,-6.5811,-6.6273,-6.695,-6.7627,-6.7935,-6.8089,-6.9843,-7.0551,-7.0582,-7.0828,-7.1475,-7.2121,-7.1229,-7.1379,-7.1959,-7.1516,-7.1339,-7.1279,-7.1288,-7.1339,-7.1579,-7.2243,-7.2495,0.0,0.0,0.0,0.0,0.0,0.0,0.0,0.0,0.0,0.0,0.0,0.0,0.0,0.0,0.0,0.0,0.0,0.0,0.0,0.0,0.0,0.0,0.0,0.0,0.0,0.0,0.0,0.0,0.0,0.0,0.0,-8.2831,-8.3604,-8.4363,-8.5156,-8.5915,-8.6915,-8.8157,-8.9191,-9.0088,-9.0812,-9.0812,-9.0812,-9.0812,-9.0812,-9.0812,-9.0778,-9.0019,-8.9295,-8.8536,-8.7743,-8.6984,-8.6294,-8.6294,-8.6605,-8.7122,-8.7881,-8.8639,-8.9398,0.0,0.0,0.0,0.0,0.0,0.0,0.0,0.0,-6.0864,-6.0286,0.0,0.0,0.0,0.0,-5.9476,-5.9796,-6.0039,-6.025,-6.0534,-6.0534,-6.0586,-6.0794,-6.1009,-6.1132,-6.1132,-6.2271,-6.2733,0.0,0.0,0.0,0.0,-6.4672,-6.4888,-6.4918,-6.538,-6.5811,-6.6304,-6.7442,-6.7935,-6.812,-7.0367,-7.1259,-7.129,-7.1506,-7.2306,-7.3137,-7.1874,-7.221,-7.3134,-7.2283,-7.2105,-7.2176,-7.2154,-7.2148,-7.2243,-7.2685,-7.2495,0.0,-7.2969,0.0,0.0,0.0,0.0,0.0,0.0,0.0,0.0,0.0,0.0,0.0,0.0,0.0,0.0,0.0,0.0,0.0,0.0,0.0,0.0,0.0,0.0,0.0,0.0,0.0,0.0,0.0,0.0,0.0,-8.3176,-8.3983,-8.488,-8.5915,-8.6674,-8.7674,-8.895,-8.9709,-9.0329,-9.0812,-9.0812,-9.0812,-9.0812,-9.0812,-9.0812,-9.0778,-9.0295,-8.964,-8.8881,-8.7846,-8.7122,-8.6674,-8.6674,-8.6984,-8.7536,-8.857,-8.9295,-8.9812,0.0,0.0,0.0,0.0,0.0,0.0,-6.2181,-6.1523,-6.0976,-6.056,0.0,0.0,0.0,0.0,0.0,-6.0377,-6.0429,-6.0503,-6.0794,-6.0794,-6.0794,-6.0794,-6.144,-6.1809,-6.1809,-6.381,-6.4518,0.0,0.0,0.0,0.0,0.0,-6.4888,-6.4888,-6.4888,-6.4888,-6.5042,0.0,-6.7935,-6.815,-7.089,-7.1998,-7.206,-7.2737,-7.3383,-7.3846,-7.2829,-7.3476,-7.4684,-7.2982,-7.3025,-7.3759,-7.3064,-7.2811,-7.2811,-7.2811,-7.2811,-7.2969,0.0,0.0,0.0,0.0,0.0,0.0,0.0,0.0,0.0,0.0,0.0,0.0,0.0,0.0,0.0,0.0,0.0,0.0,0.0,0.0,0.0,0.0,0.0,0.0,0.0,0.0,0.0,0.0,0.0,-8.1986,-8.3935,-8.4777,-8.5915,-8.7363,-8.8191,-8.895,-8.9709,-9.0433,-9.0812,-9.0812,-9.0812,-9.0812,-9.0812,-9.0812,-9.0812,-9.0812,-9.0812,-9.0398,-8.9605,-8.8088,-8.7467,-8.7467,-8.7467,-8.7467,-8.7674,-8.9157,-8.9743,-8.9881,0.0,0.0,0.0,0.0,0.0,-6.2954,-6.2435,-6.1829,-6.1278,0.0,0.0,0.0,-5.988,-5.9688,-5.9805,-6.0346,-6.0126,-6.0219,-6.0763,-6.0794,-6.0794,-6.0794,-6.144,-6.1809,-6.1809,-6.3318,-6.4026,-6.3841,0.0,0.0,0.0,0.0,-6.4888,-6.4888,-6.4888,-6.4888,-6.5072,-6.7566,0.0,-6.8212,-7.1413,-7.2398,-7.206,-7.2737,-7.3293,-7.3602,-7.3293,-7.3472,-7.3829,-7.3826,-7.3498,-7.3159,-7.3507,-7.3222,-7.2811,-7.2811,-7.2811,-7.2622,-7.1863,0.0,0.0,0.0,0.0,0.0,0.0,0.0,0.0,0.0,0.0,0.0,0.0,0.0,0.0,0.0,0.0,0.0,0.0,0.0,0.0,0.0,0.0,0.0,0.0,0.0,0.0,0.0,-7.9362,-8.1184,-8.3886,-8.5294,-8.6432,-8.7363,-8.8191,-8.895,-8.9709,-9.0433,-9.0812,-9.0812,-9.0812,-9.0812,-9.0812,-9.0812,-9.0812,-9.0812,-9.0812,-9.0674,-9.0433,-8.9467,-8.8743,-8.826,-8.826,-8.8605,-8.9122,-8.9536,-9.0398,-9.1399,0.0,0.0,-6.3079,-6.3079,-6.3194,-6.3069,-6.2604,-6.2294,-6.1976,0.0,0.0,0.0,-6.073,-6.0469,-6.0552,-6.13,-6.0905,-6.0794,-6.1194,-6.1225,-6.1225,-6.1225,-6.2148,-6.2641,-6.2641,-6.3995,-6.4549,-6.4272,0.0,0.0,0.0,-6.5319,-6.5319,-6.5319,-6.5319,-6.5165,-6.5042,-6.7473,0.0,0.0,-7.1413,0.0,0.0,-7.2521,-7.317,-7.3819,-7.3073,-7.3653,-7.4608,-7.4288,-7.393,-7.3759,-7.417,-7.3823,-7.3254,-7.3254,-7.2653,-7.1863,-7.1358,-7.1358,-7.161,-7.2116,0.0,0.0,0.0,0.0,0.0,0.0,0.0,0.0,0.0,0.0,0.0,0.0,0.0,0.0,0.0,0.0,0.0,0.0,0.0,0.0,0.0,0.0,0.0,-7.8614,-7.9558,-8.1442,-8.4816,-8.5811,-8.6811,-8.7881,-8.8364,-8.9088,-9.0157,-9.0605,-9.0812,-9.0812,-9.0812,-9.0812,-9.0812,-9.0812,-9.0812,-9.0812,-9.0812,-9.0812,-9.0778,-9.0329,-8.9709,-8.9053,-8.9053,-8.9329,-8.9778,-9.0433,-9.1226,-9.2019,0.0,0.0,-6.3166,-6.3226,-6.3457,-6.3418,-6.2928,-6.3001,-6.3006,0.0,-6.1959,-6.1668,-6.188,-6.1629,-6.179,-6.2618,-6.2148,-6.1809,-6.1809,-6.1871,-6.1933,-6.1933,-6.3133,-6.3841,-6.3841,-6.5134,-6.5472,-6.4764,-6.5472,-6.578,-6.578,-6.5873,-6.5903,-6.5903,-6.5903,-6.5565,-6.5134,-6.7104,0.0,-6.9043,-7.1044,-7.2306,0.0,0.0,-7.3015,-7.4222,-7.2753,-7.3897,-7.5986,-7.44,-7.436,-7.4897,-7.4897,-7.4486,-7.3981,-7.3823,-7.2464,-7.1073,-7.1484,-7.0662,-7.0125,-7.199,-7.2559,0.0,-7.436,-7.4771,0.0,0.0,0.0,0.0,0.0,0.0,0.0,0.0,0.0,0.0,0.0,0.0,0.0,0.0,0.0,0.0,0.0,-7.5087,-7.6336,-7.9242,-8.0593,-8.2783,-8.6366,-8.6467,-8.7122,-8.8674,-8.8639,-8.9295,-9.0812,-9.0812,-9.0812,-9.0812,-9.0812,-9.0812,-9.0812,-9.0812,-9.0812,-9.0812,-9.0812,-9.0812,-9.0812,-9.0812,-9.0433,-8.9812,-8.9812,-8.9812,-9.0019,-9.1468,-9.2054,-9.2226,-6.3079,-6.3079,-6.3344,-6.4086,-6.4292,-6.4405,-6.4797,-6.4422,-6.3954,-6.3555,-6.2933,-6.2556,-6.261,-6.2095,-6.1818,-6.1994,-6.1902,-6.1809,-6.1809,-6.2333,-6.261,-6.261,-6.3379,-6.3841,-6.3841,-6.4672,-6.4734,-6.4026,-6.4734,-6.5103,-6.5103,-6.5657,-6.5903,-6.5903,-6.5903,-6.5842,-6.5811,-6.7289,0.0,-6.9012,-7.0521,0.0,-7.2984,-7.252,-7.3042,-7.4,-7.3928,-7.4162,-7.4396,-7.4044,-7.436,-7.4897,-7.4897,-7.4802,-7.4486,-7.3349,-7.2717,-7.2085,-7.0504,-6.9904,-6.9778,-7.0188,-7.1168,0.0,-7.3033,-7.4075,0.0,0.0,0.0,0.0,0.0,0.0,0.0,0.0,0.0,0.0,0.0,0.0,0.0,0.0,0.0,0.0,0.0,0.0,-7.7393,-7.9341,-8.3035,-8.6096,-8.8053,-8.7536,-8.7881,-8.9433,-8.8915,-8.9295,-9.0812,-9.0812,-9.0812,-9.0812,-9.0812,-9.0812,-9.0812,-9.0812,-9.0812,-9.0812,-9.0812,-9.0812,-9.0812,-9.0812,-9.0709,-9.0605,-9.0605,-9.0605,-9.0709,-9.164,-9.2364,-9.2985,-6.3079,-6.3194,-6.3547,-6.4352,-6.4762,-6.5049,-6.5334,-6.5228,-6.4967,-6.4402,-6.4057,-6.3872,-6.3872,-6.3872,-6.3841,-6.3841,-6.3533,-6.3195,-6.2825,-6.3133,-6.3318,-6.3318,-6.3995,-6.418,-6.3787,-6.418,-6.4026,-6.3318,-6.3687,-6.421,-6.4918,-6.5257,-6.578,-6.6396,-6.6396,-6.6396,-6.6488,0.0,-6.8797,-6.9474,-7.049,0.0,-7.246,-7.2055,-7.273,-7.3966,-7.4299,-7.469,-7.496,-7.496,-7.4929,-7.4897,-7.4897,-7.4676,-7.4265,-7.357,-7.2843,-7.199,-7.0599,-6.9967,-6.9778,-7.0125,-7.0757,0.0,0.0,0.0,0.0,0.0,0.0,0.0,0.0,0.0,0.0,0.0,0.0,0.0,0.0,0.0,0.0,0.0,0.0,0.0,0.0,0.0,-7.8705,-8.1792,-8.5053,-8.7363,-8.8536,-8.7846,-8.795,-8.9122,-8.8777,-8.9122,-9.026,-9.064,-9.0812,-9.0812,-9.0812,-9.0812,-9.0812,-9.0812,-9.0812,-9.0812,-9.0812,-9.0812,-9.0812,-9.0812,-9.0812,-9.0847,-9.1226,-9.1399,-9.1537,-9.2709,-9.3365,-9.3813,-6.3079,-6.3399,-6.39,-6.4679,-6.5353,-6.5845,-6.5845,-6.598,-6.5842,-6.5165,-6.5103,-6.5103,-6.5103,-6.5472,-6.5719,-6.5719,-6.5319,-6.4857,-6.4272,-6.421,-6.421,-6.421,-6.4641,-6.4549,-6.3841,-6.3841,-6.3441,-6.2641,-6.2764,-6.3472,-6.4703,-6.4826,-6.5626,-6.6919,-6.6919,-6.7042,0.0,0.0,0.0,-7.0086,0.0,-7.1597,-7.246,-7.2113,-7.3005,-7.4401,-7.4671,-7.5223,-7.5814,-7.594,-7.5498,-7.4929,-7.5055,-7.4644,-7.4075,-7.3949,-7.3001,-7.1863,-7.1168,-7.0346,-6.9872,-7.0599,-7.0789,-7.1105,0.0,0.0,0.0,0.0,0.0,0.0,0.0,0.0,0.0,0.0,0.0,0.0,0.0,0.0,0.0,0.0,0.0,0.0,0.0,0.0,-8.0565,-8.4485,-8.6679,-8.8191,-8.8984,-8.8157,-8.7984,-8.8777,-8.8674,-8.895,-8.9709,-9.0433,-9.0812,-9.0812,-9.0812,-9.0812,-9.0812,-9.0812,-9.0812,-9.0812,-9.0812,-9.0812,-9.0812,-9.0812,-9.0916,-9.1088,-9.1571,-9.1847,-9.2157,-9.3537,-9.4158,-9.4399,-6.3079,-6.3817,-6.4679,-6.5665,-6.6653,-6.7341,-6.7573,-6.7139,-6.655,-6.5873,-6.578,-6.578,-6.578,-6.5319,-6.5011,-6.5011,-6.5503,-6.575,-6.5688,-6.5657,-6.5657,-6.5657,-6.5165,-6.4549,-6.3841,-6.3841,-6.3195,-6.1933,-6.2517,-6.3195,-6.3964,-6.4611,-6.5626,-6.6919,-6.6919,0.0,0.0,0.0,-6.9466,0.0,-7.1063,-7.2488,0.0,-7.4149,-7.4987,-7.6178,-7.5917,-7.5498,-7.5118,0.0,-7.5498,-7.4992,-7.5656,-7.5371,-7.4676,-7.4075,-7.3317,-7.2559,-7.1895,-7.0694,-6.9872,-7.0599,-7.0789,-7.0978,-7.1768,0.0,-7.2938,-7.2938,0.0,0.0,0.0,0.0,0.0,0.0,0.0,0.0,0.0,0.0,0.0,0.0,0.0,0.0,0.0,0.0,0.0,-8.5351,-8.7946,-8.9778,-9.0502,-8.9226,-8.8812,-8.9536,-8.895,-8.895,-8.9709,-9.0433,-9.0812,-9.0812,-9.0812,-9.0812,-9.0812,-9.0812,-9.0812,-9.0812,-9.0812,-9.0812,-9.0812,-9.0812,-9.1226,-9.1778,-9.1192,-9.1364,-9.2088,-9.2916,-9.3675,-9.4399,-6.391,-6.4407,-6.5241,-6.6564,-6.7314,-6.7761,-6.7877,-6.735,-6.6827,-6.6519,-6.6827,-6.6919,-6.6519,-6.6581,-6.6334,-6.5565,-6.575,-6.5903,-6.5903,-6.5903,-6.5903,-6.5903,-6.5626,-6.4949,-6.3787,-6.3841,-6.3164,-6.1809,-6.2086,-6.2579,-6.3256,-6.3564,-6.4641,-6.6334,-6.6735,0.0,-6.8656,0.0,-7.0269,0.0,0.0,0.0,0.0,-7.4207,-7.4822,-7.6137,-7.5564,-7.5434,-7.5498,0.0,-7.5434,0.0,0.0,-7.5118,-7.5308,-7.4233,-7.3949,-7.3854,-7.3222,-7.259,-7.2116,-7.199,-7.1674,-7.1452,-7.1768,-7.1705,-7.1737,-7.2148,0.0,0.0,0.0,0.0,0.0,0.0,0.0,0.0,0.0,0.0,0.0,0.0,0.0,0.0,0.0,0.0,0.0,0.0,0.0,-8.9398,-9.0123,-8.9157,-8.8743,-8.9053,-8.8295,-8.8295,-8.9053,-8.9778,-9.0398,-9.0812,-9.0812,-9.0812,-9.0812,-9.0812,-9.0812,-9.0812,-9.0812,-9.0812,-9.0847,-9.1295,-9.1709,-9.2019,-9.2088,-9.264,-9.3399,-9.4158,-9.4641,-9.4951,-6.5134,-6.5395,-6.5961,-6.7197,-6.7825,-6.812,-6.7966,-6.7658,-6.7319,-6.6981,-6.735,-6.7381,-6.6704,-6.6919,-6.6765,-6.5965,-6.5903,-6.6057,-6.6427,-6.6273,-6.6273,-6.6457,-6.6119,-6.5349,-6.4149,-6.3933,-6.3164,-6.1809,-6.1809,-6.2148,-6.2825,-6.2825,-6.4026,-6.6211,-6.6888,-6.7831,-6.8984,0.0,-7.0818,-7.2169,-7.3372,-7.4681,-7.5899,-7.4825,-7.4939,-7.5656,-7.5308,-7.5403,-7.5624,-7.5308,-7.5403,0.0,-7.4739,-7.4897,-7.5213,0.0,0.0,0.0,-7.3981,-7.3759,-7.3507,-7.3191,-7.259,-7.2085,-7.2085,-7.1547,-7.12,-7.1705,-7.1832,0.0,0.0,0.0,0.0,0.0,0.0,0.0,0.0,0.0,0.0,0.0,0.0,0.0,0.0,0.0,0.0,0.0,0.0,0.0,-8.9674,-8.9191,-8.8881,-8.8881,-8.8157,-8.8019,-8.8605,-8.9329,-8.9985,-9.0502,-9.0709,-9.0812,-9.0812,-9.0812,-9.0812,-9.0812,-9.0812,-9.0812,-9.0881,-9.1675,-9.2123,-9.2364,-9.3123,-9.3916,-9.4641,-9.4951,-9.5227,-9.54,-6.6668,-6.6907,-6.7025,-6.7439,-6.8252,-6.8643,-6.8027,-6.8427,-6.8366,0.0,0.0,-6.6704,-6.6027,-6.538,-6.5226,-6.5842,-6.5903,-6.6457,-6.7781,-6.7258,-6.7165,-6.7843,-6.6611,-6.5596,-6.4888,-6.418,-6.3164,-6.1809,-6.1809,-6.2148,0.0,-6.2825,-6.4272,-6.6919,-6.7596,-6.8787,-7.0317,-7.0379,-7.0762,-7.1441,-7.2881,-7.4473,-7.6098,0.0,-7.6066,-7.5024,-7.5719,0.0,0.0,-7.5719,-7.5498,0.0,0.0,0.0,0.0,0.0,0.0,0.0,0.0,0.0,0.0,-7.3696,-7.3317,-7.278,-7.278,-7.2243,-7.18,-7.1832,-7.1832,-7.1832,-7.1832,-7.2369,-7.2811,-7.2811,0.0,0.0,0.0,0.0,0.0,0.0,0.0,0.0,0.0,0.0,0.0,0.0,0.0,0.0,-8.9674,-8.9674,-8.9674,-8.9674,-8.895,-8.857,-8.8605,-8.9329,-8.9709,-8.9743,-9.0467,-9.0812,-9.0812,-9.0812,-9.0812,-9.0812,-9.0812,-9.0812,-9.0881,-9.1675,-9.2399,-9.3123,-9.3951,-9.471,-9.5262,-9.4572,-9.4779,-9.54,-6.7515,-6.7784,-6.8022,-6.8375,-6.8677,-6.8797,-6.8612,-6.8735,0.0,0.0,-6.7596,0.0,0.0,-6.5719,-6.5472,-6.5257,-6.5226,-6.5626,-6.6519,-6.6796,-6.7012,-6.7258,-6.7258,-6.6704,-6.5596,-6.5319,-6.4518,-6.3133,-6.2702,-6.2825,0.0,-6.3041,-6.4057,-6.6304,-6.7641,-6.867,0.0,0.0,0.0,0.0,0.0,-7.5764,-7.7204,0.0,0.0,-7.4929,-7.5182,-7.5087,0.0,-7.5182,-7.5434,-7.5498,-7.4834,-7.4929,-7.5118,-7.417,-7.3728,-7.357,0.0,0.0,-7.2969,-7.3728,0.0,0.0,-7.2717,-7.2306,-7.1832,-7.1832,-7.2179,-7.2337,-7.1895,-7.199,-7.199,-7.1547,-7.1863,0.0,0.0,0.0,0.0,0.0,0.0,0.0,0.0,0.0,0.0,0.0,0.0,0.0,0.0,-8.8984,-8.9191,-8.9674,-8.8467,-8.8053,-8.8605,-8.8329,-8.8467,-8.8984,-9.0226,-9.0812,-9.0812,-9.1364,-9.1606,-9.1571,-9.1054,-9.0812,-9.0881,-9.1675,-9.2433,-9.3192,-9.3985,-9.4744,-9.5365,-9.5124,-9.5193,-9.54,-6.791,-6.8238,-6.8505,-6.883,-6.8889,-6.8889,-6.8889,0.0,0.0,0.0,-6.735,0.0,-6.5657,0.0,-6.538,-6.4949,-6.4888,-6.5288,-6.6211,-6.6673,-6.7135,-6.7596,-6.7812,-6.7535,-6.6642,-6.615,-6.5349,-6.421,-6.3533,-6.3256,0.0,0.0,-6.4203,-6.6133,0.0,-6.8992,-6.9427,0.0,-7.2105,0.0,0.0,-7.6074,0.0,0.0,-7.5592,-7.594,0.0,-7.5276,-7.5245,-7.4992,-7.5213,-7.5434,-7.4549,-7.4707,-7.5055,-7.417,-7.3728,-7.357,-7.3823,-7.338,0.0,-7.3728,-7.3033,0.0,-7.3033,0.0,-7.2243,-7.2495,-7.2685,-7.2685,-7.2243,-7.2179,0.0,0.0,-7.1516,0.0,0.0,0.0,0.0,0.0,0.0,0.0,0.0,0.0,0.0,0.0,0.0,0.0,0.0,0.0,-8.9191,-8.9674,-8.8743,-8.8467,-8.8984,-8.8226,-8.8088,-8.8605,-9.0088,-9.0812,-9.0847,-9.164,-9.1985,-9.195,-9.1157,-9.0812,-9.0881,-9.1675,-9.2261,-9.2813,-9.3882,-9.4572,-9.502,-9.5296,-9.54,-9.54,-6.797,-6.8238,-6.8535,-6.883,-6.8889,0.0,0.0,0.0,-6.7689,0.0,-6.6334,-6.5657,-6.5011,-6.4949,-6.4949,-6.5011,-6.5011,-6.5534,-6.6827,-6.695,-6.7535,-6.8766,-6.8274,-6.7966,-6.7935,-6.6673,-6.5657,-6.4949,-6.4241,0.0,0.0,0.0,0.0,-6.635,-6.8453,0.0,-7.0337,-7.175,-7.2553,-7.2969,-7.436,-7.5403,-7.613,-7.6066,-7.6888,-7.7868,-7.6477,-7.6003,-7.5877,-7.5182,-7.4929,-7.4929,-7.4929,-7.4486,-7.3949,-7.3949,-7.3443,-7.3001,-7.3728,-7.338,-7.2969,-7.3728,-7.3317,0.0,0.0,0.0,-7.2969,0.0,-7.3285,-7.2843,-7.2811,-7.2843,0.0,0.0,0.0,0.0,0.0,0.0,0.0,0.0,0.0,0.0,0.0,0.0,0.0,0.0,0.0,0.0,0.0,0.0,0.0,-8.9709,-8.9709,-8.9709,-8.9709,-8.8915,-8.857,-8.8605,-9.0088,-9.0812,-9.0881,-9.1675,-9.2054,-9.2019,-9.1157,-9.0812,-9.0881,-9.164,-9.1985,-9.2192,-9.3641,-9.4261,-9.4434,-9.5124,-9.54,-9.54,-6.8238,-6.8535,-6.883,0.0,-6.8889,-6.8889,0.0,0.0,0.0,0.0,-6.6334,-6.5842,-6.5657,-6.5657,-6.5842,-6.6334,-6.6396,-6.655,-6.6888,-6.7381,-6.7812,-6.815,-6.8458,-6.8427,-6.7935,-6.7596,-6.6827,-6.5657,-6.4949,0.0,-6.3564,0.0,0.0,0.0,0.0,0.0,-6.9678,-7.1792,-7.3069,-7.3696,-7.4549,-7.6256,0.0,0.0,-7.7615,-7.8595,-7.6667,-7.6003,-7.5972,-7.5782,-7.5719,-7.5719,-7.5719,-7.5213,-7.4644,-7.4644,-7.417,-7.3665,-7.3854,-7.338,-7.2969,-7.3728,-7.2969,-7.2243,0.0,0.0,0.0,0.0,0.0,0.0,-7.2906,0.0,0.0,0.0,0.0,0.0,0.0,0.0,0.0,0.0,0.0,0.0,0.0,0.0,0.0,0.0,0.0,0.0,0.0,0.0,0.0,-8.9674,-8.9709,-8.9709,-8.9709,-8.8398,-8.8019,-8.8605,-9.0088,-9.1123,-9.1709,-9.2468,-9.2813,-9.2744,-9.1399,-9.0812,-9.0812,-9.1019,-9.1778,-9.2847,-9.3261,-9.4089,-9.5124,-9.5331,-9.54,-9.54,-6.8386,-6.8654,-6.8889,-6.8889,0.0,0.0,-6.8458,-6.815,0.0,-6.7412,-6.6765,0.0,-6.6765,-6.6519,-6.6488,-6.6888,-6.6919,-6.7042,-6.735,-6.7966,-6.8335,-6.8335,-6.8982,-6.9012,-6.8366,-6.8335,-6.7689,-6.6334,-6.5965,0.0,-6.3379,0.0,0.0,0.0,0.0,-7.001,0.0,-7.2785,-7.3791,-7.3981,-7.4992,0.0,0.0,-7.6856,-7.7046,-7.7583,-7.6414,-7.6003,-7.594,-7.5624,-7.5498,-7.5498,-7.5498,-7.5213,-7.4897,-7.4897,-7.4613,-7.4328,-7.4328,-7.3823,-7.338,-7.3791,-7.3064,-7.2432,-7.3127,-7.3001,-7.2717,0.0,-7.3349,-7.3665,0.0,0.0,0.0,0.0,0.0,0.0,0.0,0.0,0.0,0.0,0.0,0.0,0.0,0.0,0.0,0.0,0.0,0.0,0.0,0.0,0.0,-8.9191,-8.9226,-8.9536,-9.0192,-8.8674,-8.8295,-8.9088,-9.0605,-9.1364,-9.1502,-9.2606,-9.2916,-9.2537,-9.133,-9.0812,-9.0812,-9.0812,-9.133,-9.2157,-9.2847,-9.402,-9.54,-9.54,-9.54,-9.54,-6.8446,-6.8713,-6.8889,0.0,0.0,0.0,0.0,-6.7727,0.0,-6.7781,0.0,-6.7165,-6.7843,-6.7412,-6.7073,-6.7165,-6.7258,-6.7566,-6.815,-6.8797,-6.9135,-6.9135,-6.9628,-6.9569,-6.8776,-6.8684,-6.8071,-6.6878,-6.6694,0.0,0.0,0.0,0.0,0.0,0.0,0.0,0.0,-7.3949,-7.436,-7.3886,-7.5403,-7.6035,-7.613,-7.6224,-7.6193,-7.613,-7.613,-7.6066,-7.5908,-7.5245,-7.5024,-7.5024,-7.5024,-7.496,-7.4897,-7.4897,-7.4897,-7.4897,-7.4897,-7.4455,-7.4044,-7.4044,-7.3475,-7.3127,-7.3759,-7.3823,-7.3759,-7.3759,-7.3759,-7.357,0.0,0.0,0.0,0.0,0.0,0.0,0.0,0.0,0.0,0.0,0.0,0.0,0.0,0.0,0.0,0.0,0.0,0.0,0.0,0.0,0.0,0.0,-8.8605,0.0,-9.0502,0.0,-8.9053,-8.9709,-9.1261,-9.164,-9.1019,-9.2433,-9.2709,-9.195,-9.1157,-9.0812,-9.0812,-9.0812,-9.0916,-9.1261,-9.2675,-9.4123,-9.54,-9.54,-9.54,-9.5365,-6.8772,-6.8889,-6.8889,0.0,0.0,-6.6914,-6.6372,-6.6686,-6.7104,-6.7104,-6.6981,-6.7165,-6.7843,-6.7812,-6.7966,-6.8489,-6.9043,0.0,0.0,0.0,-7.0551,-7.0551,-7.012,-6.9334,-6.8057,-6.7546,-6.7155,-6.6914,-6.5741,-6.5194,0.0,0.0,0.0,0.0,0.0,0.0,-7.2685,-7.3665,0.0,-7.3159,-7.5182,-7.6319,-7.6888,-7.7457,-7.7299,-7.6793,-7.6793,-7.6446,-7.5972,-7.5845,-7.5814,-7.5814,-7.5814,-7.5371,-7.4897,-7.4897,-7.4897,-7.4897,-7.4897,-7.4802,-7.4707,-7.4707,-7.4202,-7.3728,-7.3886,-7.3443,-7.3001,-7.3001,-7.3001,-7.2969,-7.2811,0.0,0.0,0.0,0.0,0.0,0.0,0.0,0.0,0.0,0.0,0.0,0.0,0.0,0.0,0.0,0.0,0.0,0.0,0.0,0.0,0.0,0.0,0.0,0.0,0.0,-8.9571,-8.9709,-9.1261,-9.1916,-9.1813,-9.2709,-9.2709,-9.195,-9.1157,-9.0812,-9.0812,-9.0812,-9.1571,-9.2778,-9.3709,-9.4606,-9.54,-9.54,-9.54,-9.5296,-6.9936,0.0,-6.9634,-6.8576,0.0,0.0,0.0,-6.5049,-6.5412,-6.5771,-6.6432,-6.6883,-6.6849,-6.7125,-6.7366,-6.7236,-6.7533,-6.7832,-6.819,-6.8817,-6.9027,-6.8698,-6.8698,-6.8084,-6.677,-6.677,-6.6446,-6.5798,-6.5411,-6.4887,-6.4216,0.0,0.0,0.0,0.0,-7.1374,0.0,0.0,0.0,-7.3507,-7.4866,-7.6035,-7.6983,-7.6983,-7.6983,-7.692,-7.6604,-7.6003,-7.5434,-7.5434,-7.5434,-7.5434,-7.5434,-7.5182,-7.4897,-7.4897,-7.4897,-7.4897,-7.4897,-7.4897,-7.4897,-7.4897,-7.4644,-7.4423,-7.4423,-7.4139,-7.3791,-7.3443,-7.338,-7.3254,-7.2875,-7.3696,0.0,0.0,0.0,0.0,0.0,0.0,-7.5451,0.0,0.0,0.0,0.0,0.0,0.0,0.0,0.0,0.0,0.0,0.0,0.0,0.0,0.0,0.0,0.0,0.0,0.0,-9.0295,-9.1847,-9.2157,-9.1433,-9.2571,-9.2468,-9.1364,-9.0985,-9.0812,-9.0812,-9.0812,-9.1468,-9.2571,-9.2951,-9.3813,-9.4779,-9.4365,-9.4468,-9.4779,-7.0342,-7.0251,0.0,0.0,-6.6589,0.0,-6.3838,-6.3335,-6.3514,-6.4434,-6.5709,-6.6224,-6.5647,-6.621,-6.6398,-6.5722,-6.5947,-6.6324,-6.6751,-6.7455,-6.7571,-6.7078,-6.7397,-6.6946,-6.5556,-6.5873,-6.5585,-6.4512,-6.4886,0.0,0.0,0.0,0.0,0.0,0.0,0.0,0.0,0.0,-7.3917,-7.3981,-7.4802,-7.5877,-7.692,-7.6382,-7.654,-7.6888,-7.6224,-7.5529,-7.4897,-7.4897,-7.4897,-7.4897,-7.4897,-7.4897,-7.4897,-7.4897,-7.4897,-7.4897,-7.4897,-7.4897,-7.4897,-7.4897,-7.4897,-7.4897,-7.4897,-7.4897,-7.4739,-7.4233,-7.4012,-7.3728,-7.3159,-7.3949,0.0,0.0,0.0,0.0,0.0,0.0,0.0,0.0,0.0,0.0,0.0,0.0,0.0,0.0,0.0,0.0,0.0,0.0,0.0,0.0,0.0,-8.7398,-8.9191,0.0,-9.0157,-9.0571,-9.2123,-9.2157,-9.0847,-9.2226,-9.2123,-9.0812,-9.0812,-9.0812,-9.0812,-9.0812,-9.1261,-9.1985,-9.1985,-9.2813,-9.3951,-9.333,-9.3503,-9.402,0.0,0.0,0.0,0.0,0.0,0.0,-6.2887,-6.188,-6.178,-6.3659,-6.4537,-6.4978,-6.4909,-6.5438,-6.5757,-6.5715,-6.6759,-6.7455,-6.7513,-6.8093,-6.8509,-6.845,-6.7861,-6.6682,-6.4843,-6.4268,-6.3958,-6.3856,-6.3272,-6.2762,0.0,0.0,0.0,0.0,0.0,0.0,0.0,-7.3281,-7.3917,-7.4012,-7.534,-7.6319,-7.6983,-7.692,-7.692,-7.6888,-7.6224,-7.5529,-7.4897,-7.4897,-7.4897,-7.4897,-7.4897,-7.4897,-7.4897,-7.4897,-7.4897,-7.4897,-7.4897,-7.4897,-7.4897,-7.4897,-7.4897,-7.4897,-7.4897,-7.4897,-7.4866,-7.4802,-7.4328,-7.3886,-7.3823,-7.3917,-7.436,0.0,0.0,0.0,0.0,0.0,-7.4387,-7.517,0.0,0.0,0.0,0.0,0.0,0.0,0.0,0.0,0.0,0.0,0.0,0.0,0.0,-8.7398,-8.7605,-8.9674,-9.0398,-8.9812,-9.1364,-9.164,-9.0847,-9.1709,-9.164,-9.0812,-9.0812,-9.0812,-9.0812,-9.0812,-9.1261,-9.1985,-9.1985,-9.2502,-9.3192,-9.3123,-9.3158,-9.3123,0.0,0.0,0.0,0.0,0.0,0.0,0.0,-6.1138,-6.1057,-6.1897,-6.2962,-6.33,-6.2498,-6.3668,-6.4338,-6.3855,-6.4596,-6.5237,-6.56,-6.5851,-6.599,-6.599,-6.5767,-6.4902,-6.3431,-6.3086,-6.2853,0.0,-6.2536,-6.2782,-6.3118,0.0,0.0,0.0,0.0,-7.0647,-7.2051,-7.2691,-7.3324,-7.4012,-7.5434,-7.6161,-7.6414,-7.6825,-7.673,-7.6351,-7.6098,-7.5529,-7.4897,-7.4897,-7.4897,-7.4897,-7.4897,-7.4897,-7.4897,-7.4897,-7.4897,-7.4897,-7.4897,-7.4897,-7.4897,-7.4897,-7.4897,-7.4897,-7.4897,-7.4897,-7.4897,-7.4897,-7.4676,-7.436,-7.3981,-7.4581,-7.4929,-7.4202,0.0,0.0,0.0,0.0,0.0,-7.6554,0.0,-7.7092,0.0,0.0,0.0,0.0,0.0,0.0,0.0,0.0,0.0,-8.3983,0.0,-8.7191,-8.8122,-8.9916,-9.0674,-9.0364,-9.1468,-9.1571,-9.0847,-9.164,-9.1571,-9.0812,-9.0812,-9.0812,-9.0812,-9.0812,-9.0985,-9.1295,-9.1295,-9.1744,-9.2364,-9.1916,-9.2019,-9.233,-6.6141,0.0,-6.5354,0.0,-6.2911,-6.2462,-6.1015,-6.0782,-6.0782,-6.0782,-6.1724,-6.2022,-6.092,-6.2302,-6.3142,-6.2563,-6.3225,-6.3876,-6.4283,-6.431,-6.431,-6.431,-6.431,0.0,-6.2818,-6.2557,-6.2221,-6.1597,-6.2058,-6.2244,-6.2382,-6.3622,-6.5409,0.0,-6.8037,-6.9564,-7.172,-7.1963,-7.2998,-7.4581,-7.534,-7.5908,-7.6288,-7.6351,-7.6193,-7.5972,-7.575,-7.534,-7.4897,-7.4897,-7.4897,-7.4897,-7.4897,-7.4897,-7.4897,-7.4897,-7.4897,-7.4897,-7.4897,-7.4897,-7.4897,-7.4897,-7.4897,-7.4897,-7.4897,-7.4897,-7.4897,-7.4897,-7.4897,-7.4739,-7.4297,-7.4992,-7.5245,-7.3949,0.0,0.0,0.0,-7.5308,0.0,0.0,-7.7698,-7.8156,-7.892,0.0,0.0,0.0,0.0,0.0,0.0,0.0,0.0,0.0,0.0,0.0,0.0,-9.0192,-9.0812,-9.0812,-9.1364,-9.1364,-9.0812,-9.1399,-9.133,-9.0812,-9.0812,-9.0812,-9.0812,-9.0812,-9.0812,-9.0812,-9.0812,-9.1157,-9.1571,-9.1019,-9.1157,-9.1571,-6.4215,-6.3835,-6.3197,-6.1207,-6.0851,-6.0851,-6.0782,-6.0782,-6.0782,-6.0782,-6.1244,-6.1379,-6.0837,-6.1814,-6.2519,-6.2476,-6.3632,-6.431,-6.431,-6.431,-6.431,0.0,0.0,-6.4012,-6.3415,-6.2845,-6.2221,-6.1597,0.0,0.0,-5.9202,-6.194,-6.3907,-6.5118,-6.7305,-6.8947,-7.0098,-7.1011,-7.3182,-7.5908,-7.5182,-7.5719,-7.6825,-7.5434,-7.5371,-7.5908,-7.515,-7.4897,-7.4897,-7.4897,-7.4897,-7.4897,-7.4897,-7.4897,-7.4897,-7.4897,-7.4897,-7.4897,-7.4897,-7.4897,-7.4897,-7.4897,-7.4897,-7.4897,-7.4897,-7.4897,-7.4897,-7.4897,-7.4897,-7.4897,-7.4866,-7.4897,-7.5118,-7.5845,0.0,0.0,0.0,-7.4802,0.0,-7.6791,-7.7012,-7.7911,-8.0167,0.0,0.0,0.0,0.0,0.0,0.0,0.0,0.0,-8.5156,-8.6639,0.0,-8.9674,-9.0433,-9.0812,-9.0812,-9.0812,-9.0812,-9.0812,-9.0812,-9.0812,-9.0812,-9.0812,-9.0812,-9.0812,-9.0812,-9.0812,-9.0812,-9.0812,-9.0812,-9.0812,-9.0812,-9.0812,-9.0812,-6.1849,-6.1753,-6.1562,-6.092,-6.0782,-6.0782,-6.0782,-6.0782,-6.0918,-6.1298,-6.1488,-6.1705,-6.1949,-6.2682,-6.3143,0.0,-6.3849,-6.431,0.0,-6.431,-6.431,-6.431,-6.431,-6.4039,-6.3442,-6.3225,-6.2628,-6.1597,0.0,0.0,0.0,-6.4144,-6.5238,-6.5664,-6.6831,-6.8551,-7.0643,-7.1411,-7.3137,-7.5217,-7.4742,-7.4957,-7.5501,-7.4836,-7.4832,-7.5213,-7.496,-7.4897,-7.4897,-7.4897,-7.4897,-7.4897,-7.4897,-7.4897,-7.4897,-7.4897,-7.4897,-7.4897,-7.4897,-7.4897,-7.4897,-7.4897,-7.4897,-7.4897,-7.4897,-7.4897,-7.4897,-7.4897,-7.4897,-7.4897,-7.4897,-7.4897,-7.496,-7.5213,-7.4866,0.0,-7.5182,0.0,-7.4966,-7.5906,-7.6669,-7.774,0.0,-7.9666,0.0,0.0,0.0,0.0,0.0,0.0,0.0,0.0,-8.6639,0.0,-8.9674,-9.0433,-9.0812,-9.0812,-9.0812,-9.0812,-9.0812,-9.0812,-9.0812,-9.0812,-9.0812,-9.0812,-9.0812,-9.0812,-9.0812,-9.0812,-9.0812,-9.0812,-9.0812,-9.0812,-9.0812,-9.0812,-6.0782,-6.0782,-6.0782,-6.0782,-6.0782,-6.0782,-6.0782,-6.0782,-6.0891,-6.1244,-6.1678,-6.2112,-6.2421,-6.3279,0.0,-6.3442,-6.3957,-6.431,-6.431,-6.431,-6.431,-6.431,-6.431,-6.412,-6.3767,-6.355,0.0,-6.2275,-6.3,-6.3763,-6.4593,-6.575,-6.6302,-6.6302,-6.6709,-6.8412,-7.0947,-7.1372,-7.2984,-7.5248,-7.4771,-7.4893,-7.5248,-7.4771,-7.4704,-7.4897,-7.4897,-7.4897,-7.4897,-7.4897,-7.4897,-7.4897,-7.4897,-7.4897,-7.4897,-7.4897,-7.4897,-7.4897,-7.4897,-7.4897,-7.4897,-7.4897,-7.4897,-7.4897,-7.4897,-7.4897,-7.4897,-7.4897,-7.4897,-7.4897,-7.4897,-7.4897,-7.4992,-7.5276,-7.5055,-7.4992,-7.5276,0.0,-7.5829,0.0,0.0,0.0,0.0,-8.035,-8.1022,0.0,0.0,0.0,0.0,0.0,0.0,-8.5156,-8.6915,0.0,-8.9674,-9.0433,-9.0812,-9.0812,-9.0812,-9.0812,-9.0812,-9.0812,-9.0812,-9.0812,-9.0812,-9.0812,-9.0812,-9.0812,-9.0812,-9.0812,-9.0812,-9.0812,-9.0812,-9.0812,-9.0812,-9.0812,-6.0782,-6.0782,-6.0782,0.0,-6.0782,0.0,-6.0782,-6.0782,-6.081,-6.0891,-6.1841,-6.2503,-6.2584,-6.3659,-6.4093,-6.3523,0.0,0.0,0.0,-6.431,-6.431,-6.431,-6.431,-6.431,-6.431,-6.3767,-6.3469,-6.3486,-6.4333,-6.512,-6.5831,-6.6525,-6.6912,-6.6941,-6.6941,-6.8501,-7.0977,-7.0977,-7.2922,-7.5845,-7.509,-7.5248,-7.5845,-7.509,-7.4838,-7.4897,-7.4897,-7.4897,-7.4897,-7.4897,-7.4897,-7.4897,-7.4897,-7.4897,-7.4897,-7.4897,-7.4897,-7.4897,-7.4897,-7.4897,-7.4897,-7.4897,-7.4897,-7.4897,-7.4897,-7.4897,-7.4897,-7.4897,-7.4897,-7.4897,-7.4897,-7.4897,-7.5118,-7.5877,-7.5371,-7.5209,-7.5997,-7.6394,-7.7196,0.0,0.0,0.0,0.0,-8.2069,-8.1986,0.0,0.0,0.0,0.0,0.0,-8.5156,-8.5259,-8.7432,-8.8984,-8.9778,-9.0467,-9.0812,-9.0812,-9.0812,-9.0812,-9.0812,-9.0812,-9.0812,-9.0812,-9.0812,-9.0812,-9.0812,-9.0812,-9.0812,-9.0812,-9.0812,-9.0812,-9.0812,-9.0812,-9.0812,-9.0812,0.0,0.0,-6.0782,-6.0782,-6.0782,-6.0782,-6.0782,-6.0782,-6.1081,-6.2004,-6.2356,-6.2872,-6.3794,-6.4147,-6.4256,-6.412,-6.4229,-6.431,-6.431,-6.431,-6.431,-6.431,-6.431,-6.431,-6.431,-6.4174,-6.4164,-6.4339,-6.454,-6.512,-6.5831,-6.6525,-6.7144,-6.7638,-6.7638,-6.9145,-7.1643,-7.1643,-7.3015,-7.5059,-7.4149,-7.4301,-7.5059,-7.4089,-7.4207,-7.4897,-7.4897,-7.4897,-7.4897,-7.4897,-7.4897,-7.4897,-7.4897,-7.4897,-7.4897,-7.4897,-7.4897,-7.4897,-7.4897,-7.4897,-7.4897,-7.4897,-7.4897,-7.4897,-7.4897,-7.4897,-7.4897,-7.4897,-7.4897,-7.4897,-7.4897,-7.4897,-7.5118,-7.5877,-7.5371,-7.5474,-7.7049,-7.6904,-7.7585,0.0,-8.0319,-8.0784,-8.2565,-8.162,-8.1421,0.0,0.0,0.0,0.0,-8.3707,-8.4811,-8.6018,-8.7708,-8.9226,-9.0536,-9.0709,-9.0812,-9.0812,-9.0812,-9.0812,-9.0812,-9.0812,-9.0812,-9.0812,-9.0812,-9.0812,-9.0812,-9.0812,-9.0812,-9.0812,-9.0812,-9.0812,-9.0812,-9.0812,-9.0812,-9.0812,-6.0782,-6.0782,-6.0782,-6.0782,-6.0782,-6.0782,-6.0782,-6.0782,-6.1081,-6.2004,-6.2356,-6.2872,-6.3794,-6.4147,-6.431,-6.431,-6.431,-6.431,-6.431,-6.431,-6.431,-6.431,-6.431,-6.431,-6.431,-6.431,-6.4724,-6.553,-6.5544,-6.6105,-6.7219,-6.7554,-6.7957,-6.8305,-6.881,-7.0076,-7.1949,-7.2391,-7.3446,-7.4838,-7.4328,-7.4388,-7.4838,-7.4268,-7.4448,-7.4897,-7.4897,-7.4897,-7.4897,-7.4897,-7.4897,-7.4897,-7.4897,-7.4897,-7.4897,-7.4897,-7.4897,-7.4897,-7.4897,-7.4897,-7.4897,-7.4897,-7.4897,-7.4897,-7.4897,-7.4897,-7.4897,-7.4897,-7.4897,-7.4897,-7.4897,-7.5182,-7.5624,-7.6319,-7.6098,-7.6546,-7.839,-7.847,-7.9199,-8.1441,-8.1782,-8.2212,-8.3314,-8.2673,-8.25,-8.3362,-8.2742,0.0,-8.288,-8.3604,-8.4397,-8.5225,-8.7087,-8.8605,-8.9778,-9.0467,-9.0812,-9.0812,-9.0812,-9.0812,-9.0812,-9.0812,-9.0812,-9.0812,-9.0812,-9.0812,-9.0812,-9.0812,-9.0812,-9.0812,-9.0812,-9.0812,-9.0812,-9.0812,-9.0812,-9.0812,-6.0782,-6.0782,-6.0782,-6.0782,-6.0782,-6.081,-6.0891,-6.0891,-6.1135,-6.1786,-6.2329,-6.2899,-6.3496,-6.4012,-6.431,-6.431,-6.431,-6.431,-6.431,-6.431,-6.431,-6.431,-6.431,-6.431,-6.431,-6.4455,-6.5149,-6.6595,-6.6735,-6.75,-6.8828,-6.8828,-6.8828,-6.8828,-6.9707,-7.0729,-7.1949,-7.2829,-7.3813,-7.4897,-7.4897,-7.4897,-7.4897,-7.4897,-7.4897,-7.4897,-7.4897,-7.4897,-7.4897,-7.4897,-7.4897,-7.4897,-7.4897,-7.4897,-7.4897,-7.4897,-7.4897,-7.4897,-7.4897,-7.4897,-7.4897,-7.4897,-7.4897,-7.4897,-7.4897,-7.4897,-7.4929,-7.5024,-7.496,-7.496,-7.5182,-7.5624,-7.6288,-7.7172,-7.7292,-7.7992,-7.9944,-8.0527,-8.1237,-8.2563,-8.3476,-8.4052,-8.419,-8.4087,-8.4018,-8.4018,-8.3431,-8.3087,-8.3087,-8.3673,-8.4087,-8.419,-8.6398,-8.8019,-8.8915,-9.0192,-9.0812,-9.0812,-9.0812,-9.0812,-9.0812,-9.0812,-9.0812,-9.0812,-9.0812,-9.0812,-9.0812,-9.0812,-9.0812,-9.0812,-9.0812,-9.0812,-9.0812,-9.0812,-9.0812,-9.0812,-6.0782,-6.0782,-6.0782,-6.0782,-6.0782,-6.0918,-6.1407,-6.1488,-6.1868,-6.3008,-6.3225,-6.3523,-6.4093,-6.4256,-6.431,-6.431,-6.431,-6.431,-6.431,-6.431,-6.431,-6.431,-6.431,-6.431,-6.431,-6.4933,-6.5692,-6.6595,-6.7195,-6.7982,-6.8828,-6.8828,-6.8828,-6.8828,-6.8934,-7.0104,-7.1886,-7.2076,-7.32,-7.4897,-7.4897,-7.4897,-7.4897,-7.4897,-7.4897,-7.4897,-7.4897,-7.4897,-7.4897,-7.4897,-7.4897,-7.4897,-7.4897,-7.4897,-7.4897,-7.4897,-7.4897,-7.4897,-7.4897,-7.4897,-7.4897,-7.4897,-7.4897,-7.4897,-7.4897,-7.4897,-7.5055,-7.5687,-7.534,-7.5245,-7.6446,-7.6288,-7.6604,-7.8468,-7.8623,-7.9386,-8.1811,-8.2072,-8.2716,-8.4533,-8.4299,-8.4294,-8.4949,-8.4397,-8.4018,-8.4018,-8.3914,-8.3845,-8.3845,-8.3949,-8.4328,-8.4984,-8.7225,-8.9053,-9.0467,-9.0709,-9.0812,-9.0812,-9.0812,-9.0812,-9.0812,-9.0812,-9.0812,-9.0812,-9.0812,-9.0812,-9.0812,-9.0812,-9.0812,-9.0812,-9.0812,-9.0812,-9.0812,-9.0812,-9.0812,-9.0812,-6.0782,-6.1,-6.1217,-6.1217,-6.1488,-6.1814,-6.2085,-6.2112,-6.2546,-6.374,-6.3903,-6.4256,-6.5178,-6.4988,-6.4771,-6.4771,-6.45,-6.431,-6.431,-6.431,-6.431,-6.431,-6.431,-6.431,-6.431,-6.4978,-6.5763,-6.6595,-6.7333,-6.8119,-6.8828,-6.8828,-6.8828,-6.8828,-6.9404,-7.014,-7.1118,-7.2265,-7.3262,-7.4147,-7.4687,-7.4897,-7.4897,-7.4897,-7.4897,-7.4897,-7.4897,-7.4897,-7.4897,-7.4897,-7.4897,-7.4897,-7.4897,-7.4897,-7.4897,-7.4897,-7.4897,-7.4897,-7.4897,-7.4897,-7.4897,-7.4897,-7.4897,-7.4897,-7.4897,-7.4897,-7.5087,-7.5845,-7.5719,-7.5782,-7.6793,-7.7046,-7.7394,-7.8373,-7.9316,-8.0529,-8.2392,-8.3113,-8.4044,-8.5593,-8.5466,-8.5397,-8.5777,-8.5466,-8.5397,-8.5811,-8.5121,-8.4811,-8.5225,-8.488,-8.4811,-8.519,-8.7398,-8.9122,-9.0192,-9.0605,-9.0812,-9.0812,-9.0812,-9.0812,-9.0812,-9.0812,-9.0812,-9.0812,-9.0812,-9.0812,-9.0812,-9.0812,-9.0812,-9.0812,-9.0812,-9.0812,-9.0812,-9.0812,-9.0812,-9.0881,-6.1189,-6.1515,-6.1814,-6.1814,-6.2221,-6.253,-6.2665,-6.2665,-6.317,-6.4364,-6.4527,-6.4934,-6.602,-6.5558,-6.5178,-6.5178,-6.4663,-6.431,-6.431,-6.431,-6.431,-6.431,-6.431,-6.431,-6.431,-6.522,-6.6003,-6.6595,-6.7472,-6.8256,-6.8828,-6.8828,-6.8828,-6.8828,-6.984,-7.0337,-7.0468,-7.2486,-7.3385,-7.3508,-7.4508,-7.4897,-7.4897,-7.4897,-7.4897,-7.4897,-7.4897,-7.4897,-7.4897,-7.4897,-7.4897,-7.4897,-7.4897,-7.4897,-7.4897,-7.4897,-7.4897,-7.4897,-7.4897,-7.4897,-7.4897,-7.4897,-7.4897,-7.4897,-7.4897,-7.5024,-7.534,-7.6066,-7.6224,-7.6477,-7.733,-7.7773,-7.8182,-7.8776,-8.0251,-8.181,-8.3142,-8.4285,-8.5222,-8.6194,-8.6294,-8.6294,-8.6294,-8.6294,-8.6536,-8.7122,-8.626,-8.588,-8.6294,-8.5949,-8.5639,-8.5466,-8.7501,-8.9053,-8.995,-9.0536,-9.0812,-9.0812,-9.0812,-9.0812,-9.0812,-9.0812,-9.0812,-9.0812,-9.0812,-9.0812,-9.0812,-9.0812,-9.0812,-9.0812,-9.0812,-9.0812,-9.0812,-9.0812,-9.0863,-9.1051,-6.234,-6.2367,-6.2394,-6.2394,-6.2448,-6.2665,-6.3279,-6.336,-6.3794,-6.4988,-6.5124,-6.5395,-6.6047,-6.5558,-6.5178,-6.5178,-6.4663,-6.431,-6.431,-6.431,-6.431,-6.431,-6.431,-6.431,-6.431,-6.572,-6.6525,-6.6595,-6.7982,-6.876,-6.8828,-6.8828,-6.8828,-6.8828,-6.984,-7.0337,-7.0468,-7.2486,-7.3385,-7.3508,-7.4508,-7.4897,-7.4897,-7.4897,-7.4897,-7.4897,-7.4897,-7.4897,-7.4897,-7.4897,-7.4897,-7.4897,-7.4897,-7.4897,-7.4897,-7.4897,-7.4897,-7.4897,-7.4897,-7.4897,-7.4897,-7.4897,-7.4897,-7.4897,-7.4897,-7.5434,-7.6098,-7.6762,-7.692,-7.733,-7.8689,-7.8437,-7.8776,-8.1214,-8.2138,-8.3231,-8.506,-8.5822,-8.6194,-8.6294,-8.6294,-8.6294,-8.6294,-8.6294,-8.6329,-8.6398,-8.6915,-8.6984,-8.6329,-8.6915,-8.6915,-8.626,-8.7777,-8.9295,-9.0709,-9.0778,-9.0812,-9.0812,-9.0812,-9.0812,-9.0812,-9.0812,-9.0812,-9.0812,-9.0812,-9.0812,-9.0812,-9.0812,-9.0812,-9.0812,-9.0812,-9.0812,-9.0812,-9.0812,-9.1101,-9.1506,-6.2476,-6.2845,-6.3089,-6.3089,-6.3387,-6.3713,-6.393,-6.3984,-6.4419,-6.5613,-6.5775,-6.6128,-6.7105,-6.6345,-6.5775,-6.5775,-6.488,-6.431,-6.431,-6.431,-6.431,-6.431,-6.431,-6.431,-6.431,-6.5819,-6.6595,-6.6595,-6.8051,-6.8828,-6.8828,-6.8828,-6.8828,-6.8828,-6.9203,-6.9707,-7.0403,-7.1855,-7.2829,-7.3508,-7.4508,-7.4897,-7.4897,-7.4897,-7.4897,-7.4897,-7.4897,-7.4897,-7.4897,-7.4897,-7.4897,-7.4897,-7.4897,-7.4897,-7.4897,-7.4897,-7.4897,-7.4897,-7.4897,-7.4897,-7.4897,-7.4897,-7.4897,-7.5024,-7.5466,-7.5782,-7.6319,-7.7394,-7.7615,-7.7931,-7.8942,-7.8879,-7.9251,-8.098,-8.2083,-8.321,-8.4682,-8.5686,-8.6294,-8.6294,-8.6294,-8.6294,-8.6294,-8.6294,-8.6501,-8.6949,-8.726,-8.7501,-8.7708,-8.7536,-8.7294,-8.6984,-8.8019,-8.8881,-8.9433,-9.0329,-9.0812,-9.0812,-9.0812,-9.0812,-9.0812,-9.0812,-9.0812,-9.0812,-9.0812,-9.0812,-9.0778,-9.0329,-9.0398,-9.0778,-9.0295,-9.0398,-9.0812,-9.0812,-9.1242,-9.1859,-6.3089,-6.3415,-6.3686,-6.3686,-6.4039,-6.431,-6.431,-6.431,-6.4744,-6.5965,-6.6128,-6.6589,-6.7756,-6.6834,-6.6128,-6.6128,-6.5016,-6.431,-6.431,-6.431,-6.431,-6.431,-6.431,-6.4455,-6.4645,-6.5933,-6.6735,-6.6945,-6.8187,-6.8828,-6.8828,-6.8828,-6.8828,-6.8828,-6.9136,-6.9641,-7.0403,-7.1792,-7.2766,-7.3508,-7.4508,-7.4897,-7.4897,-7.4897,-7.4897,-7.4897,-7.4897,-7.4897,-7.4897,-7.4897,-7.4897,-7.4897,-7.4897,-7.4897,-7.4897,-7.4897,-7.4897,-7.4897,-7.4897,-7.4897,-7.4897,-7.4897,-7.5055,-7.5371,-7.5877,-7.6319,-7.6888,-7.7836,-7.8184,-7.85,-7.9037,-7.9381,-8.0056,-8.1251,-8.2491,-8.3662,-8.4909,-8.5805,-8.6294,-8.6294,-8.6294,-8.6294,-8.6294,-8.6294,-8.6501,-8.7018,-8.7294,-8.7639,-8.8191,-8.7708,-8.7294,-8.7087,-8.8053,-8.8605,-8.8605,-9.0054,-9.0812,-9.0812,-9.0812,-9.0812,-9.0812,-9.0812,-9.0812,-9.0812,-9.0812,-9.0812,-9.0778,-9.026,-9.0329,-9.0743,-9.026,-9.0364,-9.0847,-9.1088,-9.1621,-9.236,-6.431,-6.431,-6.431,-6.431,-6.431,-6.431,-6.431,-6.431,-6.4744,-6.5965,-6.6128,-6.6589,-6.7756,-6.6834,-6.6128,-6.6128,-6.5016,-6.431,-6.431,-6.431,-6.431,-6.431,-6.431,-6.4645,-6.5407,-6.6215,-6.6945,-6.7679,-6.846,-6.8828,-6.8828,-6.8828,-6.8828,-6.8828,-6.984,-7.0337,-7.0468,-7.2486,-7.3385,-7.3508,-7.4508,-7.4897,-7.4897,-7.4897,-7.4897,-7.4897,-7.4897,-7.4897,-7.4897,-7.4897,-7.4897,-7.4897,-7.4897,-7.4897,-7.4897,-7.4897,-7.4897,-7.4897,-7.4897,-7.4897,-7.4897,-7.4897,-7.5466,-7.6003,-7.6003,-7.7046,-7.8026,-7.8026,-7.8595,-7.91,-7.91,-8.0056,-8.131,-8.2548,-8.3716,-8.4909,-8.6144,-8.6294,-8.6294,-8.6294,-8.6294,-8.6294,-8.6294,-8.6294,-8.6294,-8.6294,-8.6984,-8.7432,-8.7398,-8.7432,-8.7087,-8.6329,-8.7777,-8.8605,-8.8605,-9.0054,-9.0812,-9.0812,-9.0812,-9.0812,-9.0812,-9.0812,-9.0812,-9.0812,-9.0812,-9.0812,-9.0812,-9.0812,-9.0812,-9.0812,-9.0812,-9.0812,-9.0916,-9.1709,-9.2306,-9.2845,-6.431,-6.431,-6.431,-6.431,-6.431,-6.431,-6.431,-6.431,-6.4744,-6.5965,-6.6128,-6.6589,-6.7756,-6.6834,-6.6128,-6.6128,-6.5016,-6.431,-6.431,-6.431,-6.431,-6.431,-6.431,-6.4645,-6.5407,-6.6215,-6.6945,-6.7679,-6.846,-6.8828,-6.8828,-6.8828,-6.8828,-6.8828,-6.984,-7.0729,-7.1503,-7.2829,-7.3813,-7.4448,-7.4778,-7.4897,-7.4897,-7.4897,-7.4897,-7.4897,-7.4897,-7.4897,-7.4897,-7.4897,-7.4897,-7.4897,-7.4897,-7.4897,-7.4897,-7.4897,-7.4897,-7.4992,-7.5529,-7.5656,-7.5656,-7.5656,-7.5845,-7.6256,-7.7204,-7.771,-7.8152,-7.8689,-7.8974,-7.935,-8.0178,-8.0629,-8.1603,-8.3607,-8.4291,-8.4909,-8.6144,-8.6294,-8.6294,-8.6294,-8.6294,-8.6294,-8.6294,-8.6294,-8.6294,-8.6294,-8.7501,-8.8019,-8.7432,-8.795,-8.7639,-8.6329,-8.726,-8.8019,-8.8605,-9.0054,-9.0812,-9.0812,-9.0812,-9.0812,-9.0812,-9.0812,-9.0812,-9.0812,-9.0812,-9.0812,-9.0778,-9.026,-9.0329,-9.0743,-9.0226,-9.0674,-9.1606,-9.1295,-9.2276,-9.3704,-6.431,-6.431,-6.431,-6.431,-6.431,-6.431,-6.431,-6.45,-6.5016,-6.5992,-6.6345,-6.6834,-6.7783,-6.6834,-6.6128,-6.6128,-6.5016,-6.431,-6.431,-6.431,-6.4455,-6.4717,-6.4717,-6.5077,-6.5862,-6.6637,-6.7431,-6.8119,-6.8625,-6.8828,-6.8828,-6.8828,-6.9001,-6.9441,-7.0009,-7.1088,-7.2517,-7.3139,-7.3966,-7.4897,-7.4897,-7.4897,-7.4897,-7.4897,-7.4897,-7.4897,-7.4897,-7.4897,-7.4897,-7.4897,-7.4897,-7.4897,-7.4897,-7.4897,-7.4897,-7.4897,-7.5087,-7.5434,-7.5877,-7.6193,-7.6446,-7.673,-7.6793,-7.7014,-7.7836,-7.8247,-7.8563,-7.9037,-7.9443,-7.9995,-8.0749,-8.1687,-8.283,-8.4291,-8.4909,-8.5463,-8.6194,-8.6294,-8.6294,-8.6294,-8.6294,-8.6294,-8.6294,-8.6294,-8.6294,-8.6294,-8.7743,-8.826,-8.7467,-8.8157,-8.8019,-8.6777,-8.7191,-8.7639,-8.8122,-8.9329,-9.0226,-9.0812,-9.0502,-9.0364,-9.0364,-9.0364,-9.0364,-9.0364,-9.0364,-9.0536,-9.0778,-9.0329,-9.0226,-9.0364,-9.0192,-9.0536,-9.1088,-9.1226,-9.2157,-9.3296,-6.431,-6.431,-6.431,-6.431,-6.431,-6.431,-6.431,-6.4798,-6.5423,-6.6047,-6.6644,-6.7213,-6.7756,-6.6806,-6.6101,-6.6047,-6.4988,-6.431,-6.431,-6.431,-6.4573,-6.5264,-6.5407,-6.5862,-6.6595,-6.7333,-6.8051,-6.8828,-6.8828,-6.8828,-6.8828,-6.8828,-6.9337,-7.0337,-7.0403,-7.1537,-7.3385,-7.3508,-7.4087,-7.4897,-7.4897,-7.4897,-7.4897,-7.4897,-7.4897,-7.4897,-7.4897,-7.4897,-7.4897,-7.4897,-7.4897,-7.4897,-7.4897,-7.4897,-7.4897,-7.496,-7.5466,-7.6035,-7.613,-7.6604,-7.7236,-7.7931,-7.8121,-7.8121,-7.8121,-7.8626,-7.91,-7.91,-8.0056,-8.0928,-8.1015,-8.2942,-8.4558,-8.4611,-8.5566,-8.6294,-8.6294,-8.6294,-8.6294,-8.6294,-8.6294,-8.6294,-8.6294,-8.6294,-8.6294,-8.6294,-8.7674,-8.8157,-8.7363,-8.8053,-8.8122,-8.7329,-8.7329,-8.7329,-8.7398,-8.8053,-8.9157,-9.0605,-8.9916,-8.964,-8.9709,-8.9709,-8.9743,-8.9812,-8.9812,-9.0192,-9.0812,-9.0812,-9.0398,-8.9881,-9.0536,-9.0433,-9.0054,-9.1399,-9.1985,-9.2157,-6.431,-6.431,-6.431,-6.431,-6.431,-6.431,-6.431,-6.4798,-6.5423,-6.6047,-6.6644,-6.7051,-6.7186,-6.6562,-6.5938,-6.545,-6.4717,-6.431,-6.431,-6.431,-6.4383,-6.45,-6.572,-6.6426,-6.6595,-6.7333,-6.8051,-6.8828,-6.8828,-6.8828,-6.8828,-6.8828,-6.9337,-7.0337,-7.1182,-7.2265,-7.3446,-7.4268,-7.4687,-7.4897,-7.4897,-7.4897,-7.4897,-7.4897,-7.4897,-7.4897,-7.4897,-7.4897,-7.4897,-7.4897,-7.4897,-7.4897,-7.4897,-7.4897,-7.4992,-7.5592,-7.5877,-7.6224,-7.7299,-7.7678,-7.7963,-7.8689,-7.8879,-7.8879,-7.8879,-7.9005,-7.91,-7.91,-8.0056,-8.1192,-8.2149,-8.3497,-8.4804,-8.5754,-8.6144,-8.6294,-8.6294,-8.6294,-8.6294,-8.6294,-8.6294,-8.6294,-8.6294,-8.6294,-8.6294,-8.6294,-8.7156,-8.7329,-8.657,-8.726,-8.7329,-8.657,-8.6536,-8.6811,-8.7398,-8.7018,-8.757,-8.9053,-8.8915,-8.9157,-8.9709,-8.9709,-9.0019,-9.0571,-9.0571,-9.0674,-9.0812,-9.0812,-9.0709,-9.0571,-9.0743,-9.1088,-9.1468,-9.1157,-9.1813,-9.2813,-6.431,-6.431,-6.431,-6.431,-6.431,-6.431,-6.431,-6.507,-6.5748,-6.6074,-6.6888,-6.7322,-6.7051,-6.6481,-6.5748,-6.4853,-6.4473,-6.431,-6.431,-6.4645,-6.5005,-6.5391,-6.6497,-6.7293,-6.7638,-6.8051,-6.8392,-6.8828,-6.8828,-6.9068,-6.9508,-6.9508,-7.0337,-7.1792,-7.2391,-7.32,-7.4147,-7.4687,-7.4897,-7.4897,-7.4897,-7.4897,-7.4897,-7.4897,-7.4897,-7.4897,-7.4897,-7.4897,-7.4897,-7.4897,-7.4897,-7.4897,-7.4897,-7.5118,-7.5498,-7.5877,-7.6446,-7.7109,-7.7836,-7.8279,-7.8626,-7.9005,-7.91,-7.91,-7.91,-7.91,-7.91,-7.91,-8.0509,-8.1919,-8.2605,-8.4184,-8.5566,-8.6194,-8.6294,-8.6294,-8.6294,-8.6294,-8.6294,-8.6294,-8.6294,-8.6294,-8.6294,-8.6294,-8.6294,-8.6294,-8.6984,-8.7225,-8.6846,-8.7191,-8.7225,-8.6846,-8.6501,-8.6501,-8.688,-8.6501,-8.6708,-8.7501,-8.7846,-8.8433,-8.9191,-8.9191,-8.9571,-9.0295,-9.0674,-9.1019,-9.1364,-9.1364,-9.1157,-9.0812,-9.0812,-9.0847,-9.0881,-9.0847,-9.133,-9.195,-6.431,-6.431,-6.431,-6.431,-6.431,-6.431,-6.431,-6.5341,-6.6128,-6.6128,-6.7159,-6.762,-6.6942,-6.6237,-6.5395,-6.4391,-6.431,-6.4383,-6.45,-6.505,-6.5763,-6.6595,-6.7264,-6.7982,-6.8625,-6.876,-6.8828,-6.8828,-6.8828,-6.9337,-7.0337,-7.0337,-7.1409,-7.3385,-7.3385,-7.3966,-7.4897,-7.4897,-7.4897,-7.4897,-7.4897,-7.4897,-7.4897,-7.4897,-7.4897,-7.4897,-7.4897,-7.4897,-7.4897,-7.4897,-7.4897,-7.4929,-7.5055,-7.5498,-7.6035,-7.6256,-7.7141,-7.8057,-7.8152,-7.8658,-7.91,-7.91,-7.91,-7.91,-7.91,-7.91,-7.91,-7.91,-8.1015,-8.2718,-8.2718,-8.4664,-8.6294,-8.6294,-8.6294,-8.6294,-8.6294,-8.6294,-8.6294,-8.6294,-8.6294,-8.6294,-8.6294,-8.6294,-8.6294,-8.6294,-8.688,-8.7225,-8.7225,-8.7225,-8.7225,-8.7225,-8.6639,-8.6294,-8.6294,-8.6294,-8.6363,-8.6501,-8.6984,-8.7708,-8.8605,-8.8846,-8.9364,-9.0123,-9.0743,-9.1468,-9.2157,-9.1882,-9.1468,-9.0985,-9.0847,-9.0433,-8.995,-9.0571,-9.0812,-9.0812,-6.431,-6.431,-6.431,-6.431,-6.431,-6.431,-6.431,-6.5341,-6.6128,-6.6128,-6.7159,-6.7458,-6.6372,-6.5233,-6.45,-6.431,-6.431,-6.4573,-6.5193,-6.5336,-6.5763,-6.6595,-6.7264,-6.7747,-6.7816,-6.846,-6.8828,-6.8828,-6.8828,-6.9337,-7.0337,-7.0337,-7.1409,-7.3385,-7.3385,-7.3966,-7.4897,-7.4897,-7.4897,-7.4897,-7.4897,-7.4897,-7.4897,-7.4897,-7.4897,-7.4897,-7.4897,-7.4897,-7.4897,-7.4897,-7.4897,-7.4992,-7.5656,-7.5908,-7.6224,-7.7394,-7.7868,-7.8152,-7.8784,-7.9037,-7.91,-7.91,-7.91,-7.91,-7.91,-7.91,-7.91,-7.91,-8.1015,-8.2718,-8.2718,-8.4664,-8.6294,-8.6294,-8.6294,-8.6294,-8.6294,-8.6294,-8.6294,-8.6294,-8.6294,-8.6294,-8.6294,-8.6294,-8.6294,-8.6294,-8.6398,-8.6467,-8.6467,-8.6467,-8.6467,-8.6467,-8.6363,-8.6294,-8.6294,-8.6294,-8.6639,-8.726,-8.6708,-8.7191,-8.8639,-8.9916,-9.095,-9.1675,-9.1778,-9.2261,-9.2847,-9.1502,-9.1295,-9.1778,-9.1088,-9.0743,-9.0674,-9.0778,-9.0812,-9.0812,-6.431,-6.431,-6.431,-6.431,-6.431,-6.4419,-6.4744,-6.5558,-6.6237,-6.6589,-6.7376,-6.7431,-6.6264,-6.5043,-6.431,-6.431,-6.4645,-6.505,-6.5407,-6.6187,-6.6819,-6.7195,-6.7913,-6.8324,-6.8324,-6.8625,-6.8828,-6.8828,-6.9404,-7.014,-7.1247,-7.1792,-7.2798,-7.4268,-7.4268,-7.4448,-7.4897,-7.4897,-7.4897,-7.4897,-7.4897,-7.4897,-7.4897,-7.4897,-7.4897,-7.4897,-7.4897,-7.4897,-7.4897,-7.4897,-7.515,-7.5561,-7.5908,-7.6509,-7.7236,-7.7836,-7.831,-7.8689,-7.9037,-7.91,-7.91,-7.91,-7.91,-7.91,-7.91,-7.9629,-8.0117,-8.0117,-8.1486,-8.2886,-8.3607,-8.5118,-8.6294,-8.6294,-8.6294,-8.6294,-8.6294,-8.6294,-8.6294,-8.6294,-8.6294,-8.6294,-8.6294,-8.6294,-8.6294,-8.6294,-8.6294,-8.6294,-8.6294,-8.6294,-8.6294,-8.6294,-8.6294,-8.6501,-8.6915,-8.6915,-8.7294,-8.8088,-8.8157,-8.857,-8.9226,-8.9467,-9.0226,-9.1364,-9.1778,-9.2157,-9.2433,-9.1744,-9.1675,-9.1916,-9.1123,-9.0812,-9.0812,-9.0812,-9.0812,-9.0812]},{"header":{"parameterUnit":"m.s-1","parameterCategory":1,"la1":30.6,"la2":28.766,"lo1":-90.7593,"lo2":-88.6598,"dx":0.0162,"dy":0.0183,"nx":116,"ny":114,"refTime":"2023-01-08T06:00:00:Z","depth":0,"parameterNumber":3,"parameterNumberName":"V-component_of_WINDS"},"data":[0.0,0.0,0.0,0.0,0.0,0.0,0.0,0.0,0.0,0.0,0.0,0.0,0.0,0.0,0.0,0.0,0.0,0.0,0.0,0.0,0.0,0.0,0.0,0.0,0.0,0.0,0.0,0.0,0.0,0.0,0.0,0.0,0.0,0.0,0.0,0.0,0.0,0.0,0.0,0.0,0.0,0.0,0.0,0.0,0.0,0.0,0.0,0.0,0.0,0.0,0.0,0.0,0.0,0.0,0.0,0.0,0.0,0.0,0.0,0.0,0.0,0.0,0.0,0.0,0.0,0.0,0.0,0.0,0.0,0.0,0.0,0.0,0.0,0.0,0.0,0.0,0.0,0.0,0.0,0.0,0.0,0.0,0.0,0.0,0.0,0.0,0.0,0.0,0.0,0.0,0.0,0.0,0.0,0.0,0.0,0.0,0.0,0.0,0.0,0.0,0.0,0.0,0.0,0.0,0.0,0.0,0.0,0.0,0.0,0.0,0.0,0.0,0.0,0.0,0.0,0.0,0.0,0.0,0.0,0.0,0.0,0.0,0.0,0.0,0.0,0.0,0.0,0.0,0.0,0.0,0.0,0.0,0.0,0.0,0.0,0.0,0.0,0.0,0.0,0.0,0.0,0.0,0.0,0.0,0.0,0.0,0.0,0.0,0.0,0.0,0.0,0.0,0.0,0.0,0.0,0.0,0.0,0.0,0.0,0.0,0.0,0.0,0.0,0.0,0.0,0.0,0.0,0.0,0.0,0.0,0.0,0.0,0.0,0.0,0.0,0.0,0.0,0.0,0.0,0.0,0.0,0.0,0.0,0.0,0.0,0.0,0.0,0.0,0.0,0.0,0.0,0.0,0.0,0.0,0.0,0.0,0.0,0.0,0.0,0.0,0.0,0.0,0.0,0.0,0.0,0.0,0.0,0.0,0.0,0.0,0.0,0.0,0.0,0.0,0.0,0.0,0.0,0.0,0.0,0.0,0.0,0.0,0.0,0.0,0.0,0.0,0.0,0.0,0.0,0.0,0.0,0.0,0.0,0.0,0.0,0.0,0.0,0.0,0.0,0.0,0.0,0.0,0.0,0.0,0.0,0.0,0.0,0.0,0.0,0.0,0.0,0.0,0.0,0.0,0.0,0.0,0.0,0.0,0.0,0.0,0.0,0.0,0.0,0.0,0.0,0.0,0.0,0.0,0.0,0.0,0.0,0.0,0.0,0.0,0.0,0.0,0.0,0.0,0.0,0.0,0.0,0.0,0.0,0.0,0.0,0.0,0.0,0.0,0.0,0.0,0.0,0.0,0.0,0.0,0.0,0.0,0.0,0.0,0.0,0.0,0.0,0.0,0.0,0.0,0.0,0.0,0.0,0.0,0.0,0.0,0.0,0.0,0.0,0.0,0.0,0.0,0.0,0.0,0.0,0.0,0.0,0.0,0.0,0.0,0.0,0.0,0.0,0.0,0.0,0.0,0.0,0.0,0.0,0.0,0.0,0.0,0.0,0.0,0.0,0.0,0.0,0.0,0.0,0.0,0.0,0.0,0.0,0.0,0.0,0.0,0.0,0.0,0.0,0.0,0.0,0.0,0.0,0.0,0.0,0.0,0.0,0.0,0.0,0.0,0.0,0.0,0.0,0.0,0.0,0.0,0.0,0.0,0.0,0.0,0.0,0.0,0.0,0.0,0.0,0.0,0.0,0.0,0.0,0.0,0.0,0.0,0.0,0.0,0.0,0.0,0.0,0.0,0.0,0.0,0.0,0.0,0.0,0.0,0.0,0.0,0.0,0.0,0.0,0.0,0.0,0.0,0.0,0.0,0.0,0.0,0.0,0.0,0.0,0.0,0.0,0.0,0.0,0.0,0.0,0.0,0.0,0.0,0.0,0.0,0.0,0.0,0.0,0.0,0.0,0.0,0.0,0.0,0.0,0.0,0.0,0.0,0.0,0.0,0.0,0.0,0.0,0.0,0.0,0.0,0.0,0.0,0.0,0.0,0.0,0.0,0.0,0.0,0.0,0.0,0.0,0.0,0.0,0.0,0.0,0.0,0.0,0.0,0.0,0.0,0.0,0.0,0.0,0.0,0.0,0.0,0.0,0.0,0.0,0.0,0.0,0.0,0.0,0.0,0.0,0.0,0.0,0.0,0.0,0.0,0.0,0.0,0.0,0.0,0.0,0.0,0.0,0.0,0.0,0.0,0.0,0.0,0.0,0.0,0.0,0.0,0.0,0.0,0.0,0.0,0.0,0.0,0.0,0.0,0.0,0.0,0.0,0.0,0.0,0.0,0.0,0.0,0.0,0.0,0.0,0.0,0.0,0.0,0.0,0.0,0.0,0.0,0.0,0.0,0.0,0.0,0.0,0.0,0.0,0.0,0.0,0.0,0.0,0.0,0.0,0.0,0.0,0.0,0.0,0.0,0.0,0.0,0.0,0.0,0.0,0.0,0.0,0.0,0.0,0.0,0.0,0.0,0.0,0.0,0.0,0.0,0.0,0.0,0.0,0.0,0.0,0.0,0.0,0.0,0.0,0.0,0.0,0.0,0.0,0.0,0.0,0.0,0.0,0.0,0.0,0.0,0.0,0.0,0.0,0.0,0.0,0.0,0.0,0.0,0.0,0.0,0.0,0.0,0.0,0.0,0.0,0.0,0.0,0.0,0.0,0.0,0.0,0.0,0.0,0.0,0.0,0.0,0.0,0.0,0.0,0.0,0.0,0.0,0.0,0.0,0.0,0.0,0.0,0.0,0.0,0.0,0.0,0.0,0.0,0.0,0.0,0.0,0.0,0.0,0.0,0.0,0.0,0.0,0.0,0.0,0.0,0.0,0.0,0.0,0.0,0.0,0.0,0.0,0.0,0.0,0.0,0.0,0.0,0.0,0.0,0.0,0.0,0.0,0.0,0.0,0.0,0.0,0.0,0.0,0.0,0.0,0.0,0.0,0.0,0.0,0.0,0.0,0.0,0.0,0.0,0.0,0.0,0.0,0.0,0.0,0.0,0.0,0.0,0.0,0.0,0.0,0.0,0.0,0.0,0.0,0.0,0.0,0.0,0.0,0.0,0.0,0.0,0.0,0.0,0.0,0.0,0.0,0.0,0.0,0.0,0.0,0.0,0.0,0.0,0.0,0.0,0.0,0.0,0.0,0.0,0.0,0.0,0.0,0.0,0.0,0.0,0.0,0.0,0.0,0.0,0.0,0.0,0.0,0.0,0.0,0.0,0.0,0.0,0.0,0.0,0.0,0.0,0.0,0.0,0.0,0.0,0.0,0.0,0.0,0.0,0.0,0.0,0.0,0.0,0.0,0.0,0.0,0.0,0.0,0.0,0.0,0.0,0.0,0.0,0.0,0.0,0.0,0.0,0.0,0.0,0.0,0.0,0.0,0.0,0.0,0.0,0.0,0.0,0.0,0.0,0.0,0.0,0.0,0.0,0.0,0.0,0.0,0.0,0.0,0.0,0.0,0.0,0.0,0.0,0.0,0.0,0.0,0.0,0.0,0.0,0.0,0.0,0.0,0.0,0.0,0.0,0.0,0.0,0.0,0.0,0.0,0.0,0.0,0.0,0.0,0.0,0.0,0.0,0.0,0.0,0.0,0.0,0.0,0.0,0.0,0.0,0.0,0.0,0.0,0.0,0.0,0.0,0.0,0.0,0.0,0.0,0.0,0.0,0.0,0.0,0.0,0.0,0.0,0.0,0.0,0.0,0.0,0.0,0.0,0.0,0.0,0.0,0.0,0.0,0.0,0.0,0.0,0.0,0.0,0.0,0.0,0.0,0.0,0.0,0.0,0.0,0.0,0.0,0.0,0.0,0.0,0.0,0.0,0.0,0.0,0.0,0.0,0.0,0.0,0.0,0.0,0.0,0.0,0.0,0.0,0.0,0.0,0.0,0.0,0.0,0.0,0.0,0.0,0.0,0.0,0.0,0.0,0.0,0.0,0.0,0.0,0.0,0.0,0.0,0.0,0.0,0.0,0.0,0.0,0.0,0.0,0.0,0.0,0.0,0.0,0.0,0.0,0.0,0.0,0.0,0.0,0.0,0.0,0.0,0.0,0.0,0.0,0.0,0.0,0.0,0.0,0.0,0.0,0.0,0.0,0.0,0.0,0.0,0.0,0.0,0.0,0.0,0.0,0.0,0.0,0.0,0.0,0.0,0.0,0.0,0.0,0.0,0.0,0.0,0.0,0.0,0.0,0.0,0.0,0.0,0.0,0.0,0.0,0.0,0.0,0.0,0.0,0.0,0.0,0.0,0.0,0.0,0.0,0.0,0.0,0.0,0.0,0.0,0.0,0.0,0.0,0.0,0.0,0.0,0.0,0.0,0.0,0.0,0.0,0.0,0.0,0.0,0.0,0.0,0.0,0.0,0.0,0.0,0.0,0.0,0.0,0.0,0.0,0.0,0.0,0.0,0.0,0.0,0.0,0.0,0.0,0.0,0.0,0.0,0.0,0.0,0.0,0.0,0.0,0.0,0.0,0.0,0.0,0.0,0.0,0.0,0.0,0.0,0.0,0.0,0.0,0.0,0.0,0.0,0.0,0.0,0.0,0.0,0.0,0.0,0.0,0.0,0.0,0.0,0.0,0.0,0.0,0.0,0.0,0.0,0.0,0.0,0.0,0.0,0.0,0.0,0.0,0.0,0.0,0.0,0.0,0.0,0.0,0.0,0.0,0.0,0.0,0.0,0.0,0.0,0.0,0.0,0.0,0.0,0.0,0.0,0.0,0.0,0.0,0.0,0.0,0.0,0.0,0.0,0.0,0.0,0.0,0.0,0.0,0.0,0.0,0.0,0.0,0.0,0.0,0.0,0.0,0.0,0.0,0.0,0.0,0.0,0.0,0.0,0.0,0.0,0.0,0.0,0.0,0.0,0.0,0.0,0.0,0.0,0.0,0.0,0.0,0.0,0.0,0.0,0.0,0.0,0.0,0.0,0.0,0.0,0.0,0.0,0.0,0.0,0.0,0.0,0.0,0.0,0.0,0.0,0.0,0.0,0.0,0.0,0.0,0.0,0.0,0.0,0.0,0.0,0.0,0.0,0.0,0.0,0.0,0.0,0.0,0.0,0.0,0.0,0.0,0.0,0.0,0.0,0.0,0.0,0.0,0.0,0.0,0.0,0.0,0.0,0.0,0.0,0.0,0.0,0.0,0.0,0.0,0.0,0.0,0.0,0.0,0.0,0.0,0.0,0.0,0.0,0.0,0.0,0.0,0.0,0.0,0.0,0.0,0.0,0.0,0.0,0.0,0.0,0.0,0.0,0.0,0.0,0.0,0.0,0.0,0.0,0.0,0.0,0.0,0.0,0.0,0.0,0.0,0.0,0.0,0.0,0.0,0.0,0.0,0.0,0.0,0.0,0.0,0.0,0.0,0.0,0.0,0.0,0.0,0.0,0.0,0.0,0.0,0.0,0.0,0.0,0.0,0.0,0.0,0.0,0.0,0.0,0.0,0.0,0.0,0.0,0.0,0.0,0.0,0.0,0.0,0.0,0.0,0.0,0.0,0.0,0.0,0.0,0.0,0.0,0.0,0.0,0.0,0.0,0.0,0.0,0.0,0.0,0.0,0.0,0.0,0.0,0.0,0.0,0.0,0.0,0.0,0.0,0.0,0.0,0.0,0.0,0.0,0.0,0.0,0.0,0.0,0.0,0.0,0.0,0.0,0.0,0.0,0.0,0.0,0.0,0.0,0.0,0.0,0.0,0.0,0.0,0.0,0.0,0.0,0.0,0.0,0.0,0.0,0.0,0.0,0.0,0.0,0.0,0.0,0.0,0.0,0.0,0.0,0.0,0.0,0.0,0.0,0.0,0.0,0.0,0.0,0.0,0.0,0.0,0.0,0.0,0.0,0.0,0.0,0.0,0.0,0.0,0.0,0.0,0.0,0.0,0.0,0.0,0.0,0.0,0.0,0.0,0.0,0.0,0.0,0.0,0.0,0.0,0.0,0.0,0.0,0.0,0.0,0.0,0.0,0.0,0.0,0.0,0.0,0.0,0.0,0.0,0.0,0.0,0.0,0.0,0.0,0.0,0.0,0.0,0.0,0.0,0.0,0.0,0.0,0.0,0.0,0.0,0.0,0.0,0.0,0.0,0.0,0.0,0.0,0.0,0.0,-3.6237,-3.6292,0.0,0.0,0.0,0.0,0.0,0.0,0.0,0.0,0.0,0.0,0.0,0.0,0.0,0.0,0.0,0.0,0.0,0.0,0.0,0.0,0.0,0.0,0.0,-3.577,-3.5262,-3.4337,-3.4075,0.0,0.0,0.0,0.0,0.0,0.0,0.0,0.0,0.0,-3.1404,-3.2488,-3.2947,-3.3503,-3.4074,-3.2502,-3.1063,-2.9823,0.0,0.0,0.0,0.0,0.0,0.0,0.0,0.0,0.0,0.0,0.0,0.0,0.0,0.0,0.0,0.0,0.0,0.0,0.0,0.0,0.0,0.0,0.0,0.0,0.0,0.0,0.0,0.0,0.0,0.0,0.0,0.0,0.0,0.0,0.0,0.0,0.0,0.0,0.0,0.0,0.0,0.0,0.0,0.0,0.0,0.0,0.0,0.0,0.0,0.0,0.0,0.0,0.0,0.0,0.0,0.0,0.0,0.0,0.0,0.0,0.0,0.0,0.0,0.0,0.0,0.0,0.0,0.0,0.0,0.0,-3.7301,-3.7393,0.0,0.0,0.0,0.0,0.0,0.0,0.0,0.0,0.0,0.0,0.0,0.0,0.0,0.0,0.0,0.0,0.0,0.0,0.0,0.0,0.0,-3.6866,-3.6687,-3.5844,-3.5364,-3.5378,-3.4803,-3.4325,-3.4019,-3.3329,0.0,0.0,0.0,0.0,0.0,0.0,-3.2611,-3.3693,-3.455,-3.5346,-3.5957,-3.369,-3.177,-3.0195,-2.9277,0.0,0.0,0.0,0.0,0.0,0.0,0.0,0.0,0.0,0.0,0.0,0.0,0.0,0.0,0.0,0.0,0.0,0.0,0.0,0.0,0.0,0.0,0.0,0.0,0.0,0.0,0.0,0.0,0.0,0.0,0.0,0.0,0.0,0.0,0.0,0.0,0.0,0.0,0.0,0.0,0.0,0.0,0.0,0.0,0.0,0.0,0.0,0.0,0.0,0.0,0.0,0.0,0.0,0.0,0.0,0.0,0.0,0.0,0.0,0.0,0.0,0.0,0.0,-3.7429,-3.7503,-3.7649,-3.8053,-3.8089,-3.7888,-3.864,-3.864,-3.8181,-3.8841,0.0,0.0,0.0,0.0,0.0,0.0,0.0,0.0,0.0,0.0,0.0,0.0,0.0,0.0,0.0,0.0,0.0,0.0,0.0,-3.8462,-3.7382,-3.7596,-3.6999,-3.4987,-3.4743,-3.4561,-3.4023,-3.3536,0.0,0.0,0.0,0.0,0.0,-3.3501,-3.4198,-3.5304,-3.5491,-3.5659,-3.5714,-3.4045,-3.3152,-3.2851,-3.1641,-3.0918,-3.0586,0.0,0.0,0.0,0.0,0.0,0.0,0.0,0.0,0.0,0.0,0.0,0.0,0.0,0.0,0.0,0.0,0.0,0.0,0.0,0.0,0.0,0.0,0.0,0.0,0.0,0.0,0.0,0.0,0.0,0.0,0.0,0.0,0.0,0.0,0.0,0.0,0.0,0.0,0.0,0.0,0.0,-3.4477,-3.4899,0.0,0.0,0.0,0.0,0.0,0.0,0.0,0.0,0.0,0.0,0.0,0.0,0.0,-3.7888,-3.7924,-3.7539,-3.7374,-3.7429,-3.7429,-3.7796,-3.8493,-3.8896,-3.9245,-3.9638,-4.0015,0.0,-3.8487,-3.8676,0.0,0.0,0.0,0.0,0.0,0.0,0.0,0.0,0.0,0.0,0.0,0.0,0.0,0.0,0.0,0.0,0.0,0.0,0.0,0.0,0.0,-3.8153,-3.7304,-3.6393,-3.6377,-3.5914,-3.4721,-3.4483,0.0,0.0,0.0,0.0,0.0,0.0,-3.5399,-3.7421,-3.6759,-3.6467,-3.6556,-3.519,-3.409,-3.3418,-3.334,-3.2676,-3.1601,-3.1387,0.0,0.0,0.0,0.0,0.0,0.0,0.0,0.0,0.0,0.0,0.0,0.0,0.0,0.0,0.0,0.0,0.0,0.0,0.0,0.0,0.0,0.0,0.0,0.0,0.0,0.0,0.0,0.0,0.0,0.0,0.0,0.0,0.0,0.0,0.0,0.0,0.0,0.0,0.0,-3.4642,-3.499,-3.5614,-3.5687,-3.6036,0.0,0.0,0.0,0.0,0.0,0.0,0.0,0.0,0.0,-3.7686,-3.7686,-3.7796,-3.8016,-3.8071,-3.8456,-3.9135,-3.8896,-3.908,-3.9667,-3.985,-4.0143,-4.063,-4.0969,-4.0969,-4.0639,-4.0198,-4.0217,-4.0593,0.0,0.0,0.0,0.0,-4.0079,-4.0162,0.0,0.0,0.0,0.0,0.0,0.0,0.0,0.0,0.0,0.0,0.0,0.0,-4.0169,-3.8773,-3.7733,-3.7593,-3.7543,-3.6948,-3.5673,-3.5526,-3.509,0.0,0.0,0.0,0.0,0.0,0.0,-3.9224,-3.8218,-3.7695,-3.7619,-3.6455,-3.5159,-3.3965,-3.4707,-3.416,-3.2718,-3.2718,-3.2344,-3.1855,0.0,0.0,0.0,0.0,0.0,0.0,0.0,0.0,0.0,0.0,0.0,0.0,0.0,0.0,0.0,0.0,0.0,0.0,0.0,0.0,0.0,0.0,0.0,0.0,0.0,0.0,0.0,0.0,0.0,0.0,0.0,0.0,0.0,0.0,0.0,0.0,0.0,-3.5265,-3.5632,-3.6421,-3.6512,-3.6952,0.0,0.0,0.0,0.0,0.0,0.0,-3.8181,-3.8273,-3.8291,-3.8199,-3.8199,-3.8346,-3.864,-3.8951,-3.952,-4.0308,-4.0088,-4.0162,-4.0473,-4.0584,-4.0785,-4.1079,-4.15,-4.1794,-4.1941,-4.1537,-4.1372,-4.1335,-4.1042,-4.0932,-4.0895,-4.0584,-4.0602,-4.073,0.0,0.0,0.0,0.0,0.0,0.0,0.0,0.0,0.0,0.0,0.0,-4.1213,-4.1012,-3.9965,-3.8843,-3.7693,-3.7393,-3.7068,-3.6743,-3.649,-3.6314,-3.6242,-3.6723,0.0,0.0,0.0,0.0,-4.0306,-3.993,-3.9325,-3.8538,-3.7632,-3.6491,-3.5312,-3.5762,-3.5215,-3.3965,-3.3965,-3.418,-3.4434,-3.3613,0.0,0.0,0.0,0.0,0.0,0.0,0.0,0.0,0.0,0.0,0.0,0.0,0.0,0.0,0.0,0.0,0.0,0.0,0.0,0.0,0.0,0.0,0.0,0.0,0.0,0.0,0.0,0.0,0.0,0.0,0.0,0.0,0.0,0.0,0.0,0.0,0.0,0.0,-3.7264,-3.7356,0.0,0.0,0.0,0.0,-3.8016,-3.8383,-3.8524,-3.8524,-3.897,-3.952,-4.029,-4.0308,-4.0327,-4.0345,-4.0363,-4.0198,-3.995,-4.0253,-4.0455,-4.0473,-4.0859,-4.1042,-4.1079,-4.15,-4.1464,-4.1255,-4.1904,-4.2216,-4.2216,-4.2197,-4.2179,-4.2179,-4.2161,-4.1922,-4.1629,0.0,0.0,0.0,-4.2469,-4.1802,-4.1453,-4.1599,-4.2034,-4.2469,-4.2905,-4.194,-4.1406,-4.2059,-4.0618,-3.9601,-3.9733,-3.9491,-3.8932,-3.7962,-3.7939,-3.7493,-3.6459,0.0,0.0,0.0,0.0,-4.021,-4.0403,-4.0047,-3.9437,-3.8562,-3.7945,-3.7179,-3.623,-3.666,-3.6582,-3.6094,-3.5273,-3.4844,-3.4668,-3.4375,-3.4082,0.0,0.0,0.0,0.0,0.0,0.0,0.0,0.0,0.0,0.0,0.0,0.0,0.0,0.0,0.0,0.0,0.0,0.0,0.0,0.0,0.0,0.0,0.0,0.0,0.0,0.0,0.0,0.0,0.0,0.0,0.0,0.0,0.0,0.0,0.0,0.0,0.0,-3.7704,-3.7814,0.0,-3.8951,-3.8658,-3.864,-3.9153,-3.9336,-3.9538,-3.9813,-3.9703,-3.9758,-4.0134,-3.9813,-3.9795,-4.0152,-4.0327,-4.0657,-4.1042,-4.1189,-4.139,-4.1647,-4.1776,-4.1849,-4.1849,-4.1996,-4.1977,-4.1867,-4.2161,-4.1977,-4.15,-4.15,-4.15,-4.15,-4.15,-4.1574,-4.1684,0.0,-4.4269,0.0,-4.2847,-4.2179,-4.1976,-4.2586,-4.2847,-4.3224,-4.3892,-4.2775,-4.2174,-4.2912,-4.1361,-4.0392,-4.074,-4.0597,-4.0104,-3.9188,-3.9261,-3.896,-3.8046,-3.8695,0.0,0.0,-4.0306,-4.0739,-4.0932,-4.087,-4.0533,-3.9822,-3.9193,-3.845,-3.7619,-3.7378,-3.7305,-3.7246,-3.6406,-3.5781,-3.5351,-3.5215,-3.4883,-3.4512,0.0,0.0,0.0,0.0,0.0,0.0,0.0,0.0,0.0,0.0,0.0,0.0,0.0,0.0,0.0,0.0,0.0,0.0,0.0,0.0,0.0,0.0,0.0,0.0,0.0,0.0,0.0,0.0,0.0,0.0,0.0,0.0,0.0,0.0,0.0,-3.7484,-3.8144,-3.8218,-3.8548,-3.9355,-3.9208,-3.9263,-3.9877,-4.006,-4.0262,-4.0455,-4.0281,-4.0262,-4.0538,-4.0198,-4.0253,-4.074,-4.0932,-4.128,-4.1684,-4.1684,-4.1757,-4.1867,-4.1867,-4.1867,-4.1867,-4.1867,-4.1867,-4.1886,-4.2014,-4.1757,-4.128,-4.1427,-4.1555,-4.1666,-4.1666,-4.1849,-4.2069,-4.424,-4.3979,-4.3602,-4.2324,-4.157,-4.1366,-4.2063,-4.2644,-4.3282,-4.3907,-4.3742,-4.3589,-4.3589,-4.2242,-4.111,-4.0592,-4.0537,-4.0538,-4.0435,-4.0427,-4.0667,-4.1172,0.0,0.0,-4.1172,-4.122,-4.1485,-4.199,-4.2567,-4.2668,-4.2339,-4.1241,-4.0326,-3.9495,-3.8007,-3.7344,-3.7344,-3.7324,-3.709,-3.668,-3.623,-3.5801,-3.543,0.0,0.0,0.0,0.0,0.0,0.0,0.0,0.0,0.0,0.0,0.0,0.0,0.0,0.0,0.0,0.0,0.0,0.0,0.0,0.0,0.0,0.0,0.0,0.0,0.0,0.0,0.0,0.0,0.0,0.0,0.0,0.0,0.0,-3.7448,-3.7778,-3.8163,-3.8505,-3.8579,-3.8988,-3.984,-3.995,-3.9968,-3.9987,-4.0354,-4.051,-4.0529,-4.051,-4.0877,-4.1666,-4.1684,-4.1849,-4.2234,-4.2234,-4.2051,-4.1666,-4.1666,-4.1445,-4.106,-4.106,-4.106,-4.106,-4.106,-4.106,-4.1097,-4.15,-4.1666,-4.1702,-4.2124,-4.2509,-4.2839,-4.2839,-4.2821,-4.2784,-4.424,-4.3979,-4.3602,-4.2324,-4.1947,-4.2208,-4.3311,-4.3602,-4.3834,-4.4152,-4.3863,-4.3452,-4.3146,-4.2413,-4.1918,-4.1929,-4.1755,-4.1548,-4.1274,-4.1432,-4.1605,-4.1749,0.0,0.0,-4.1172,-4.1942,-4.2458,-4.2602,-4.2809,-4.3049,-4.3242,-4.1315,-4.041,-4.0356,-3.8923,-3.8223,-3.8203,-3.7891,-3.7676,-3.7539,-3.7109,-3.6699,-3.6328,0.0,0.0,0.0,0.0,0.0,0.0,0.0,0.0,0.0,0.0,0.0,0.0,0.0,0.0,0.0,0.0,0.0,0.0,0.0,0.0,0.0,0.0,0.0,0.0,0.0,0.0,0.0,0.0,0.0,0.0,0.0,0.0,-3.7851,-3.7851,-3.7943,-3.8163,-3.8505,-3.9153,-3.9593,-3.9895,-4.0465,-4.0859,-4.1152,-4.128,-4.1482,-4.1776,-4.1519,-4.1464,-4.1684,-4.139,-4.128,-4.139,-4.139,-4.1335,-4.1225,-4.1225,-4.117,-4.106,-4.106,-4.106,-4.106,-4.106,-4.106,-4.1079,-4.1189,-4.1225,-4.1299,-4.1996,-4.2344,-4.2399,-4.2124,-4.2014,-4.1996,-4.456,-4.4356,-4.3979,-4.2702,-4.2266,-4.2528,-4.3805,-4.3747,-4.3747,-4.4208,-4.4497,-4.4226,-4.3048,-4.3143,-4.2996,-4.24,-4.2199,-4.2111,-4.2089,-4.2662,-4.2784,0.0,0.0,-4.1653,-4.1509,-4.2543,-4.3192,-4.3433,-4.3939,-4.4472,-4.4921,-4.2467,-4.1516,-4.163,-3.955,-3.8574,-3.8555,-3.8301,-3.8203,-3.8164,-3.793,-3.7461,-3.6934,-3.6934,-3.6777,-3.6523,-3.6348,-3.6406,-3.6504,-3.6133,0.0,0.0,0.0,0.0,0.0,0.0,0.0,0.0,0.0,0.0,0.0,0.0,0.0,0.0,0.0,0.0,0.0,0.0,0.0,0.0,0.0,0.0,0.0,0.0,-3.8273,-3.8328,-3.8493,-3.8383,-3.8493,-3.908,-3.9557,-4.0033,-4.0565,-4.1189,-4.1666,-4.1922,-4.1941,-4.1959,-4.2032,-4.1647,-4.1427,-4.1427,-4.1189,-4.106,-4.106,-4.106,-4.106,-4.106,-4.106,-4.106,-4.106,-4.106,-4.106,-4.106,-4.106,-4.106,-4.1079,-4.1244,-4.1317,0.0,0.0,0.0,0.0,0.0,-4.1831,-4.1684,-4.5024,-4.4879,-4.4472,-4.3224,-4.2557,-4.2586,-4.3689,-4.3427,-4.3401,-4.4227,-4.5332,-4.5332,-4.3205,-4.4042,-4.4068,-4.2411,-4.2192,-4.2323,-4.2806,-4.3697,0.0,-4.2867,-4.3241,-4.3048,-4.2086,-4.3192,-4.4034,-4.4477,-4.551,-4.6343,-4.6734,-4.421,-4.3032,-4.2892,-3.989,-3.8574,-3.8574,-3.8574,-3.8574,-3.8574,-3.8574,-3.8086,-3.7363,-3.7363,-3.7344,-3.7246,-3.6875,-3.6973,-3.7187,-3.6426,0.0,0.0,0.0,0.0,0.0,0.0,0.0,0.0,0.0,0.0,0.0,0.0,0.0,0.0,0.0,0.0,0.0,0.0,0.0,0.0,0.0,0.0,0.0,0.0,-3.8713,-3.8841,-3.9245,-3.9006,-3.9043,-3.984,-4.0005,-4.0501,-4.1574,-4.2051,-4.2271,-4.2271,-4.2234,-4.2051,-4.1702,0.0,0.0,0.0,0.0,-4.106,-4.106,-4.106,-4.106,-4.106,-4.106,-4.106,-4.106,-4.106,-4.106,-4.106,-4.106,-4.106,-4.1097,-4.1464,-4.161,-4.1592,-4.1299,-4.139,-4.1739,-4.2087,-4.1959,-4.1629,-4.5024,-4.4879,-4.4472,-4.3224,-4.2905,-4.2905,-4.3137,-4.3544,-4.392,-4.4283,-4.536,-4.5448,-4.3835,-4.4251,-4.4277,-4.3241,-4.2673,-4.261,-4.3103,0.0,-4.3409,-4.2843,-4.3241,-4.3241,-4.2675,-4.4467,-4.5501,-4.5621,-4.668,-4.7257,-4.7287,-4.4368,-4.3032,-4.2892,-3.989,-3.8574,-3.8574,-3.8574,-3.8574,-3.8574,-3.8574,-3.8262,-3.7812,-3.7812,-3.7598,-3.7285,-3.7207,-3.7226,-3.7266,-3.7109,-3.7324,-3.7617,-3.7187,-3.7285,0.0,0.0,0.0,0.0,0.0,0.0,0.0,0.0,0.0,0.0,0.0,0.0,0.0,0.0,0.0,0.0,0.0,0.0,0.0,-3.9061,-3.9116,-3.9263,-3.9667,-3.973,-3.9748,-3.9913,-4.0501,-4.106,-4.1629,-4.2051,-4.2271,-4.2271,-4.1977,-4.1776,-4.1702,-4.1299,-4.106,-4.106,-4.106,-4.106,-4.106,-4.106,-4.106,-4.106,0.0,0.0,-4.106,-4.106,-4.106,-4.106,-4.106,-4.106,-4.1145,-4.1152,-4.1189,-4.1244,-4.1812,-4.1904,-4.1702,-4.1776,-4.1537,-4.1225,-4.5518,-4.5111,-4.4589,-4.366,-4.3224,-4.3108,-4.3427,-4.3776,-4.4064,-4.4237,-4.5108,-4.5001,-4.3178,-4.3729,-4.3891,-4.2999,-4.3144,-4.3277,0.0,-4.3686,-4.3818,-4.3577,-4.4058,-4.4202,-4.3962,-4.5501,-4.6319,-4.6319,-4.7112,-4.7497,-4.7431,-4.4413,-4.3163,-4.3241,-4.0234,-3.9023,-3.9238,-3.9238,-3.9238,-3.9238,-3.9238,-3.9101,-3.8867,-3.8418,-3.8125,-3.793,-3.793,-3.793,-3.791,-3.7676,-3.7754,-3.7891,-3.7676,-3.7754,-3.7969,0.0,0.0,0.0,0.0,0.0,0.0,0.0,0.0,0.0,0.0,0.0,0.0,0.0,0.0,-3.8676,0.0,0.0,-3.9373,-3.9795,-3.9667,-3.9758,-4.0446,-4.0354,-4.0308,-4.0712,-4.095,-4.1299,-4.1922,-4.2161,-4.2197,-4.1996,-4.1794,-4.1592,-4.139,-4.117,-4.106,-4.106,-4.106,-4.106,-4.106,-4.106,-4.106,-4.106,-4.106,-4.106,-4.106,-4.106,-4.106,-4.106,-4.106,-4.106,-4.106,-4.106,-4.106,-4.1115,-4.1739,-4.1739,-4.139,-4.161,-4.1555,-4.1427,-4.6011,-4.5256,-4.456,-4.4066,-4.3544,-4.3311,-4.3747,-4.3921,-4.4152,-4.4542,-4.5016,-4.4623,-4.2774,-4.3441,-4.3659,-4.2899,-4.3639,0.0,0.0,-4.4034,-4.4285,-4.4285,-4.4885,-4.5285,-4.5285,-4.6319,-4.6872,-4.6872,-4.7305,-4.7545,-4.7575,-4.4846,-4.3705,-4.3741,-4.1045,-3.983,-3.9902,-3.9902,-3.9902,-3.9902,-3.9902,-3.9902,-3.9805,-3.9004,-3.8691,-3.8691,-3.8613,-3.8574,-3.8516,-3.8164,-3.8047,-3.8047,-3.8047,-3.8105,-3.8262,-3.8711,-3.8574,0.0,0.0,0.0,0.0,0.0,0.0,0.0,0.0,0.0,-3.8548,-3.9208,-3.9355,-3.9392,-3.9557,-3.9795,-4.0189,-4.0529,-4.029,-4.0391,-4.0969,-4.0785,-4.0859,-4.1592,-4.1317,-4.1354,-4.2087,-4.2087,-4.1904,-4.1592,-4.1574,-4.1409,-4.1163,-4.106,-4.106,-4.106,-4.106,-4.106,-4.106,-4.106,-4.106,-4.106,-4.106,-4.106,-4.106,-4.106,-4.106,-4.106,-4.1152,-4.1189,-4.1189,-4.1262,-4.1299,-4.1335,-4.1757,-4.1702,-4.1445,-4.1794,-4.1977,-4.2106,-4.6011,-4.4908,-4.4066,-4.4008,-4.3921,-4.3689,-4.3195,-4.3602,-4.44,-4.5557,-4.5466,-4.5031,-4.4393,-4.4493,-4.4432,-4.402,-4.4448,0.0,-4.4002,-4.4181,-4.4285,-4.4285,-4.5245,-4.5838,-4.5838,-4.6872,-4.7425,-4.7425,-4.7473,-4.7738,-4.8195,-4.6494,-4.529,-4.4314,-4.2669,-4.1205,-3.9902,-3.9902,-3.9902,-3.9902,-3.9902,-3.9902,-3.9844,-3.9316,-3.9141,-3.9082,-3.8711,-3.8574,-3.8574,-3.8516,-3.8496,-3.8496,-3.8496,-3.8769,-3.9141,-3.9609,-3.9707,-3.9785,-4.0254,-4.0059,0.0,-4.0241,-4.0063,-3.9726,0.0,0.0,-3.9748,-3.984,-3.9858,-4.0079,-4.073,-4.0602,-4.0529,-4.0932,-4.1034,-4.1034,-4.1042,-4.1024,-4.117,-4.1629,-4.1317,-4.1244,-4.1702,-4.1409,-4.1255,-4.1134,-4.1134,-4.12,-4.106,-4.106,-4.106,-4.106,-4.106,-4.106,-4.106,-4.106,-4.106,-4.106,-4.106,-4.106,-4.106,-4.106,-4.106,-4.1079,-4.1464,-4.1629,-4.1647,-4.1996,-4.2142,-4.2179,-4.2582,-4.2711,-4.2674,-4.2711,-4.2968,-4.3353,-4.6098,-4.5459,-4.4966,-4.4589,-4.3892,-4.3456,-4.3573,-4.4095,-4.485,-4.5779,-4.4706,-4.398,-4.4373,-4.4539,-4.4142,-4.2987,-4.4263,-4.4719,-4.3735,-4.4096,-4.4573,-4.5173,-4.5694,-4.6223,-4.6824,-4.7281,-4.7497,-4.7497,-4.7497,-4.7762,-4.8291,-4.6792,-4.6169,-4.6209,-4.4692,-4.3245,-4.2034,-4.2034,-4.1446,-4.0644,-4.0644,-4.0644,-4.0566,-3.9863,-3.9609,-3.9551,-3.9101,-3.8945,0.0,-3.8945,-3.9121,-3.9297,-3.9023,-3.9414,-4.0,-4.0195,-4.0254,-4.0293,-4.0469,0.0,0.0,0.0,-4.0512,-4.0499,-4.0043,-4.0087,-4.0354,-4.0593,-4.063,-4.074,-4.1089,-4.0932,-4.0859,0.0,-4.106,-4.1152,-4.139,-4.1225,-4.1115,-4.1299,-4.117,-4.1134,-4.1299,-4.117,-4.106,-4.106,-4.106,-4.106,-4.106,-4.106,-4.106,-4.106,-4.106,-4.106,-4.106,-4.106,-4.106,-4.106,-4.106,-4.106,-4.1079,-4.1317,-4.1555,-4.1776,-4.1959,-4.2032,-4.2051,-4.2216,-4.2271,-4.2344,-4.2986,-4.3371,-4.3573,-4.3573,-4.3683,-4.3903,-4.6127,-4.575,-4.5401,-4.4763,-4.4008,-4.3689,-4.4153,-4.4618,-4.514,-4.5808,-4.434,-4.3383,-4.3856,-4.3622,-4.3157,-4.2315,-4.3639,-4.4256,-4.3505,-4.389,-4.4525,-4.5645,-4.5694,-4.6199,-4.7257,-4.7281,-4.7353,-4.7497,-4.7497,-4.7762,-4.8291,-4.7367,-4.7144,-4.7502,-4.6536,-4.5388,-4.4138,-4.4138,-4.3553,-4.2524,-4.2524,-4.2443,-4.2165,-4.0968,-4.0539,-4.0405,-3.9386,-3.9023,-3.9043,-3.916,-3.9434,-3.9668,-3.9453,-3.9922,-4.0527,-4.0527,-4.0605,-4.0723,-4.084,0.0,0.0,-4.0728,-4.083,-4.089,-4.0077,-4.0336,-4.0712,-4.1005,-4.106,-4.1097,-4.1207,-4.1225,-4.1225,-4.1225,-4.1225,-4.1299,-4.1482,-4.1244,-4.106,-4.106,-4.106,-4.106,-4.106,-4.106,-4.106,-4.106,-4.106,-4.106,-4.106,-4.106,-4.106,-4.106,-4.106,-4.106,-4.106,-4.106,-4.106,-4.106,-4.117,-4.1225,-4.1244,-4.1666,-4.1996,-4.2289,-4.2399,-4.2436,-4.2454,-4.2674,-4.2784,-4.2858,-4.3683,-4.416,-4.4435,-4.4545,-4.4581,-4.4618,-4.6127,-4.5372,-4.4734,-4.4124,-4.4472,-4.4821,-4.485,-4.4879,-4.514,-4.5808,-4.4943,-4.3905,-4.3046,-4.1732,-4.1428,-4.2749,-4.2656,-4.2767,-4.3457,-4.3529,-4.401,-4.5053,-4.5101,-4.5645,-4.6704,-4.6728,-4.6992,-4.7497,-4.7497,-4.7762,-4.8291,-4.882,-4.8494,-4.7502,-4.8007,-4.7316,-4.5841,-4.5841,-4.5766,-4.5788,-4.5788,-4.5431,-4.4733,-4.2868,-4.2113,-4.1715,-3.9473,-3.8594,-3.8652,-3.9062,-3.9219,-3.9297,-3.9746,-4.0176,-4.0527,-4.0527,-4.082,-4.125,-4.1641,0.0,-4.1133,-4.0652,-4.0768,-4.0909,-4.0095,-4.0556,-4.1126,-4.106,-4.106,-4.1189,-4.1592,-4.1666,-4.1666,-4.1666,-4.1666,-4.1537,-4.1134,-4.1079,-4.106,-4.106,-4.106,-4.106,0.0,-4.106,-4.106,-4.106,-4.106,-4.106,-4.106,-4.106,-4.106,-4.106,-4.106,-4.106,-4.106,-4.106,-4.106,-4.106,-4.1482,-4.1666,-4.1684,-4.2087,-4.2271,-4.2307,-4.2674,-4.2858,-4.2913,-4.3701,-4.4031,-4.4105,-4.493,-4.526,-4.5315,-4.57,-4.5828,-4.5828,-4.6127,-4.5721,-4.5488,-4.5285,-4.543,-4.5547,-4.5547,-4.5547,-4.5634,-4.5866,-4.4943,0.0,0.0,0.0,0.0,0.0,-4.1997,-4.2462,-4.253,-4.3144,-4.3842,-4.4525,-4.4885,-4.5477,-4.6175,-4.6535,-4.68,-4.6968,-4.7329,-4.7895,-4.8627,-4.8618,-4.8875,-4.9411,-4.9391,-4.8656,-4.7485,-4.7485,-4.6898,-4.5915,-4.5915,-4.5557,-4.4858,-4.2942,-4.2,-4.1471,0.0,-3.918,-3.9473,-3.9609,-3.9844,-4.0059,-3.9941,-4.0391,-4.0957,-4.0957,-4.125,-4.1621,-4.1758,0.0,-4.1917,-4.1404,-4.1417,-4.1387,-4.0805,-4.1079,-4.1482,-4.1482,-4.1684,-4.1904,-4.2051,-4.1867,-4.1684,-4.1684,-4.1445,-4.1225,-4.1079,-4.106,-4.106,-4.106,-4.106,0.0,0.0,0.0,0.0,-4.106,-4.106,-4.106,-4.106,-4.106,-4.106,-4.106,-4.106,-4.106,-4.106,-4.106,-4.1207,-4.1482,-4.1886,-4.2216,-4.2472,-4.2601,-4.2821,-4.3096,-4.3224,-4.3279,-4.3316,-4.3866,-4.4086,-4.416,-4.4985,-4.5297,-4.5352,-4.5737,-4.5883,-4.5883,0.0,0.0,0.0,-4.6185,-4.604,0.0,0.0,0.0,0.0,0.0,0.0,0.0,0.0,0.0,0.0,0.0,0.0,-4.1783,-4.2265,-4.288,-4.3577,-4.4261,-4.4621,-4.5053,-4.5621,-4.615,-4.6535,-4.6704,-4.7233,-4.7799,-4.8337,-4.8329,-4.8884,-4.9935,-4.9728,-4.9414,-4.9126,-4.8916,-4.8737,-4.8452,-4.7653,-4.7018,-4.6271,-4.3735,-4.224,0.0,-3.9612,-3.9375,-3.9922,-4.0078,-4.0293,-4.0508,-4.0391,-4.0723,-4.1211,-4.1348,-4.1582,0.0,-4.2168,-4.2298,-4.2322,-4.1802,-4.1831,-4.1798,-4.1229,-4.15,-4.1904,-4.1904,-4.2106,-4.2271,-4.2271,-4.1959,-4.1776,-4.2069,-4.1757,-4.1537,-4.1684,-4.1702,-4.1647,-4.1519,-4.15,-4.15,0.0,0.0,0.0,-4.1079,-4.106,-4.106,-4.106,-4.106,-4.106,-4.106,-4.106,-4.106,-4.106,-4.1207,-4.1555,-4.2106,-4.2362,-4.2692,-4.3096,-4.3096,-4.3243,-4.3499,-4.3499,-4.3573,-4.3738,-4.4123,-4.438,-4.4581,-4.526,-4.5517,-4.5535,-4.5792,-4.5883,-4.5883,0.0,0.0,0.0,0.0,0.0,0.0,0.0,0.0,0.0,0.0,0.0,0.0,0.0,0.0,0.0,0.0,0.0,0.0,-4.2602,-4.2795,0.0,-4.4165,-4.4323,-4.4587,-4.5029,-4.5621,-4.6126,-4.6631,-4.7185,-4.7449,-4.7539,-4.8069,-4.8599,-4.9105,-4.9105,-4.9707,-5.0576,-5.0116,-5.108,-5.2692,-5.0648,-4.9606,-4.8749,-4.5217,-4.3021,-4.14,-3.946,-3.9308,-4.0036,-4.0351,-4.0527,-4.0625,-4.1035,-4.1191,-4.1289,-4.168,-4.1836,-4.2051,-4.2851,-4.2793,-4.2356,-4.1966,-4.2137,-4.2189,-4.1368,-4.1721,-4.2271,-4.2271,-4.2289,-4.2307,0.0,0.0,-4.1996,-4.2747,-4.2527,-4.2399,-4.2784,-4.2839,-4.2692,0.0,0.0,0.0,0.0,0.0,0.0,-4.1152,0.0,-4.106,-4.106,-4.106,-4.106,-4.106,-4.1079,-4.1097,-4.1097,-4.1519,-4.2124,-4.2858,-4.2894,-4.3114,-4.3499,-4.3499,-4.3499,-4.3518,-4.3518,-4.3756,-4.4141,-4.4545,-4.4948,-4.5333,-4.5737,-4.5883,-4.5883,-4.5883,-4.5883,-4.5883,0.0,0.0,0.0,0.0,0.0,0.0,0.0,0.0,0.0,0.0,0.0,0.0,0.0,0.0,0.0,0.0,0.0,0.0,-4.1533,0.0,0.0,0.0,0.0,0.0,0.0,0.0,0.0,-4.5842,-4.6851,-4.7418,-4.7637,-4.7911,-4.8512,-4.9224,-4.9224,-4.948,-4.9907,-4.9761,-4.9866,-5.0046,-4.9493,-4.8974,-4.8325,-4.6288,-4.5023,-4.4038,-4.1594,-4.1126,0.0,0.0,0.0,0.0,0.0,-4.1387,-4.166,-4.1758,-4.2246,-4.2793,-4.3027,-4.2997,-4.2919,-4.2759,-4.2528,-4.2273,-4.2076,-4.2124,-4.2271,-4.2271,-4.2509,-4.2711,0.0,0.0,0.0,-4.2839,-4.2527,0.0,-4.2417,-4.2417,0.0,-4.2289,0.0,-4.2271,-4.2271,-4.2179,0.0,0.0,-4.1409,-4.106,-4.106,-4.106,-4.106,-4.106,-4.1372,-4.1519,-4.1519,-4.2216,-4.2674,-4.2876,-4.3188,-4.3389,-4.3499,-4.3499,-4.3646,-4.394,-4.394,-4.416,-4.4563,-4.4966,-4.5205,-4.5333,-4.5737,-4.5883,-4.5883,-4.5883,-4.5883,-4.5847,0.0,0.0,0.0,0.0,0.0,0.0,0.0,0.0,0.0,0.0,0.0,0.0,0.0,0.0,0.0,0.0,0.0,0.0,0.0,0.0,0.0,0.0,0.0,0.0,0.0,0.0,0.0,0.0,0.0,0.0,-4.8797,-4.7987,-4.8206,-4.9271,-4.905,-4.926,-4.9607,-4.9363,-4.962,0.0,0.0,-4.8622,-4.8144,-4.638,-4.4752,-4.3167,-4.1964,0.0,0.0,0.0,0.0,-4.2102,-4.1621,-4.2052,-4.2781,-4.2485,0.0,-4.3164,-4.3555,-4.3361,-4.3119,-4.3225,-4.3528,-4.3538,-4.2784,-4.3336,-4.3815,-4.2978,-4.2986,0.0,0.0,0.0,0.0,0.0,0.0,0.0,-4.3298,-4.3188,-4.3004,0.0,-4.2821,0.0,-4.2821,-4.2637,-4.2527,0.0,-4.1794,-4.1335,-4.1335,-4.1335,-4.1335,-4.1335,-4.1739,-4.2032,-4.2197,-4.2637,-4.2968,-4.3151,-4.3371,-4.3499,-4.3499,-4.3499,-4.3701,-4.4086,-4.4086,-4.4416,-4.4966,-4.5205,-4.5407,-4.5572,-4.581,-4.5883,-4.5883,-4.5883,-4.5773,-4.5608,0.0,0.0,0.0,0.0,0.0,0.0,0.0,0.0,0.0,0.0,-4.4134,-4.3487,0.0,0.0,0.0,0.0,0.0,0.0,0.0,0.0,0.0,0.0,0.0,0.0,0.0,0.0,0.0,0.0,0.0,0.0,-4.9583,-4.8069,-4.7996,-4.9141,-4.8879,-4.9026,-4.9523,-4.8993,-4.9664,-5.0863,-4.894,-4.8232,-4.8069,0.0,-4.4043,-4.1869,0.0,0.0,0.0,0.0,-4.3684,-4.331,-4.2425,-4.2976,-4.3882,-4.3236,-4.3164,-4.3418,-4.4199,-4.4057,-4.3748,-4.4013,-4.4954,-4.5392,-4.3697,-4.4667,-4.5442,-4.3837,0.0,-4.3499,-4.3499,-4.3499,-4.3738,-4.4471,0.0,-4.4141,-4.4545,-4.4251,-4.3884,-4.3536,-4.3499,-4.3499,-4.3499,-4.3169,-4.2949,-4.2949,-4.2271,-4.1831,-4.1776,-4.1776,-4.1794,-4.1849,-4.2179,-4.2546,-4.2949,-4.2949,-4.3133,-4.3499,-4.3499,-4.3499,-4.3499,-4.3499,-4.3701,-4.4086,-4.4141,-4.46,-4.5297,-4.5352,-4.5572,-4.5883,-4.5883,-4.5883,-4.5883,-4.5828,-4.559,-4.5278,0.0,0.0,0.0,0.0,0.0,0.0,0.0,0.0,0.0,0.0,-4.401,-4.271,0.0,0.0,0.0,0.0,0.0,0.0,0.0,0.0,0.0,0.0,0.0,0.0,0.0,0.0,0.0,0.0,0.0,0.0,-4.6855,-4.7686,-4.8273,-4.8536,-4.9117,-4.9302,-4.9149,-4.8813,-4.8589,-4.8549,-4.7919,-4.7652,-4.7647,-4.7786,0.0,0.0,0.0,0.0,0.0,0.0,-4.4591,-4.3539,-4.3705,-4.3255,-4.2722,-4.3011,-4.3594,-4.4199,-4.4355,-4.564,-4.6798,-4.6481,-4.6581,-4.649,-4.5822,-4.4788,0.0,0.0,-4.3499,-4.3499,-4.3499,-4.3499,-4.3646,-4.4105,0.0,0.0,0.0,0.0,-4.3573,0.0,0.0,0.0,0.0,0.0,0.0,0.0,0.0,-4.2527,-4.2197,-4.2179,-4.2326,-4.2656,-4.2729,-4.2968,-4.3371,-4.3389,-4.3426,-4.3499,-4.3499,-4.3499,-4.3499,-4.3499,-4.3701,-4.4105,-4.4435,0.0,-4.5333,-4.5645,-4.5828,-4.5883,-4.5883,-4.5883,-4.5847,-4.5535,-4.5352,-4.5205,0.0,0.0,0.0,0.0,0.0,0.0,0.0,-4.7679,-4.6824,-4.5955,-4.4632,-4.3309,-4.2093,-4.1935,-4.1885,0.0,0.0,0.0,0.0,0.0,0.0,0.0,0.0,0.0,0.0,0.0,0.0,-4.6835,0.0,-4.6662,-4.7651,-4.7519,-4.7794,-4.8557,-4.8807,-4.8888,-4.8837,-4.8445,-4.8116,-4.7696,-4.7563,-4.7666,-4.793,0.0,0.0,0.0,0.0,0.0,0.0,0.0,-4.6511,-4.5264,-4.5733,-4.5749,-4.5525,-4.519,-4.4929,-4.4935,-4.6125,-4.69,-4.7358,-4.7309,-4.8374,-4.8629,-4.5521,0.0,0.0,0.0,-4.3499,-4.3499,-4.3499,-4.3829,0.0,0.0,0.0,0.0,0.0,0.0,0.0,0.0,0.0,0.0,0.0,0.0,0.0,0.0,0.0,-4.3023,-4.2601,-4.2582,-4.2766,-4.3188,-4.3188,-4.3298,-4.3499,-4.3499,-4.3499,-4.3499,-4.3499,-4.3499,-4.3499,-4.3499,-4.3701,-4.4105,-4.4508,-4.4911,-4.5333,-4.5737,-4.5883,-4.5883,-4.5883,-4.5773,-4.5553,-4.537,-4.504,-4.4618,0.0,0.0,0.0,0.0,0.0,0.0,0.0,-4.7667,-4.673,-4.6372,-4.524,-4.4001,-4.2786,-4.2712,-4.2492,0.0,0.0,0.0,0.0,0.0,0.0,0.0,0.0,0.0,0.0,0.0,0.0,-4.7731,-4.6624,0.0,0.0,0.0,0.0,0.0,-4.8593,-4.8571,-4.8706,-4.8289,-4.7894,0.0,0.0,-4.781,0.0,0.0,0.0,0.0,0.0,0.0,0.0,0.0,-4.8209,-4.7236,-4.7553,-4.8087,-4.8547,-4.7737,-4.6927,-4.6619,-4.8378,-4.8735,-4.8609,-4.8769,-5.0353,-5.0681,-4.5803,-4.656,0.0,0.0,-4.3499,-4.3499,-4.3499,-4.4068,-4.4435,0.0,0.0,0.0,0.0,0.0,0.0,0.0,0.0,0.0,0.0,0.0,0.0,0.0,0.0,0.0,-4.3023,-4.3004,-4.3151,-4.3481,-4.3499,-4.3499,-4.3499,-4.3499,-4.3499,-4.3499,-4.3499,-4.3499,-4.3499,-4.3499,-4.3664,-4.3995,-4.4563,-4.4948,-4.5205,-4.5773,-4.5957,-4.5883,-4.5883,-4.5645,-4.5297,-4.5205,-4.471,-4.4086,0.0,0.0,0.0,0.0,0.0,0.0,0.0,-4.7028,-4.5797,-4.626,-4.4883,-4.3726,-4.3365,-4.3308,-4.2856,0.0,0.0,0.0,0.0,0.0,0.0,0.0,0.0,0.0,0.0,0.0,0.0,-4.6041,-4.6695,0.0,0.0,0.0,0.0,0.0,0.0,-4.9023,-4.9007,-4.8706,0.0,0.0,0.0,0.0,0.0,0.0,0.0,0.0,0.0,0.0,0.0,0.0,0.0,-4.858,-4.8545,-4.8689,-4.8943,-4.9264,0.0,0.0,-5.0691,-5.213,-5.3452,-5.2718,-5.2718,-5.2094,-4.9191,0.0,-4.5861,-4.3926,-4.3499,-4.3499,-4.3499,-4.3848,-4.4123,0.0,0.0,-4.416,0.0,0.0,0.0,0.0,0.0,0.0,0.0,0.0,0.0,0.0,0.0,0.0,-4.3444,-4.3444,-4.3444,-4.3499,-4.3499,-4.3499,-4.3499,-4.3499,-4.3499,-4.3499,-4.3499,-4.3499,-4.3499,-4.3499,-4.3518,-4.3609,-4.4746,-4.5058,0.0,-4.5957,-4.6213,-4.5883,-4.5883,-4.5645,-4.526,-4.4875,-4.4453,-4.4086,0.0,0.0,0.0,0.0,0.0,0.0,-4.6947,-4.6055,-4.5593,-4.5809,-4.5236,-4.4577,-4.3962,-4.4028,-4.3597,-4.2248,0.0,0.0,0.0,0.0,0.0,0.0,0.0,0.0,0.0,0.0,-4.662,-4.6314,-4.6923,0.0,0.0,0.0,0.0,0.0,0.0,-4.8101,-4.842,-4.8116,0.0,0.0,0.0,0.0,0.0,0.0,0.0,0.0,0.0,0.0,0.0,0.0,0.0,0.0,-5.1052,-5.208,0.0,0.0,-5.0851,-5.1625,-5.2697,-5.3593,-5.4079,-5.3258,-5.3011,-5.1993,-4.8163,-4.6734,-4.5705,-4.3837,-4.3499,-4.3573,-4.3811,-4.3976,-4.4086,0.0,0.0,0.0,0.0,0.0,0.0,0.0,0.0,0.0,0.0,0.0,0.0,0.0,0.0,0.0,-4.3499,-4.3499,-4.3499,-4.3499,-4.3499,-4.3499,-4.3499,-4.3499,-4.3499,-4.3499,-4.3499,-4.3499,-4.3499,-4.3499,-4.3628,-4.3903,-4.4875,-4.5333,0.0,-4.6177,-4.6379,-4.6195,-4.5718,-4.5278,-4.4875,-4.4471,-4.4068,-4.3756,0.0,0.0,0.0,0.0,0.0,-4.6669,-4.5674,-4.52,-4.5058,-4.5213,-4.5221,-4.5087,-4.4627,-4.4627,-4.4252,-4.348,-4.2754,0.0,0.0,0.0,0.0,0.0,0.0,0.0,0.0,0.0,-4.7232,-4.6985,-4.7432,-4.7579,0.0,0.0,-4.7488,-4.7921,0.0,0.0,0.0,0.0,0.0,0.0,0.0,0.0,0.0,0.0,0.0,0.0,0.0,0.0,0.0,0.0,0.0,0.0,0.0,0.0,0.0,0.0,-5.2876,-5.3505,-5.4754,-5.5079,-5.4917,-5.4184,-5.3505,-5.1993,0.0,-4.6714,-4.5705,-4.3837,-4.3499,-4.3573,-4.3866,-4.3995,-4.4086,0.0,0.0,-4.4343,0.0,0.0,0.0,0.0,0.0,0.0,0.0,0.0,0.0,0.0,0.0,0.0,-4.3499,-4.3499,-4.3499,-4.3499,-4.3499,-4.3499,-4.3499,-4.3499,-4.3499,-4.3499,-4.3499,-4.3499,-4.3499,-4.3499,-4.3701,-4.4141,-4.5077,-4.5627,0.0,-4.6452,-4.658,-4.6397,-4.5608,-4.504,-4.4618,-4.4233,-4.3829,-4.3573,0.0,0.0,0.0,0.0,0.0,0.0,-4.5454,-4.4556,-4.3991,-4.4568,-4.4644,-4.4844,-4.5422,-4.497,-4.4844,-4.5422,-4.394,0.0,0.0,0.0,0.0,0.0,0.0,0.0,0.0,0.0,-4.7908,-4.7908,-4.8131,-4.8302,-4.8302,-4.811,-4.8223,-4.8576,0.0,0.0,0.0,0.0,0.0,0.0,0.0,0.0,-4.9926,0.0,0.0,0.0,0.0,0.0,0.0,0.0,0.0,0.0,0.0,-5.1349,-5.232,0.0,-5.6533,-5.6941,-5.6941,-5.6941,-5.6861,-5.6486,-5.4696,-5.2409,0.0,0.0,-4.5686,-4.3837,-4.3499,-4.3499,-4.3499,-4.3829,-4.4086,-4.4086,-4.4086,0.0,0.0,0.0,0.0,0.0,0.0,0.0,0.0,0.0,0.0,0.0,0.0,0.0,-4.3499,-4.3499,-4.3499,-4.3499,-4.3499,-4.3499,-4.3499,-4.3499,-4.3499,-4.3499,-4.3499,-4.3499,-4.3499,-4.3499,-4.3701,-4.416,-4.5352,-4.5883,0.0,-4.6764,-4.6855,-4.6397,-4.5608,-4.504,-4.4618,-4.4233,-4.3829,-4.3609,0.0,0.0,0.0,0.0,0.0,0.0,0.0,-4.3518,-4.3438,-4.3991,-4.4392,-4.4694,-4.4869,-4.5095,-4.5296,-4.5472,-4.4644,0.0,0.0,0.0,0.0,0.0,0.0,0.0,0.0,-4.7883,-4.8156,-4.8156,-4.8493,-4.8648,-4.8607,-4.8743,-4.8589,-4.8385,-4.8251,-4.8251,0.0,0.0,0.0,0.0,0.0,-5.0095,-5.0455,0.0,0.0,0.0,0.0,0.0,0.0,0.0,0.0,0.0,0.0,0.0,0.0,-5.316,-5.4046,-5.4917,-5.367,-5.4265,-5.4673,-5.2763,-5.0737,-4.8935,-4.756,0.0,-4.4174,-4.357,-4.3701,-4.3903,-4.3903,-4.3995,-4.4178,-4.4435,-4.4251,0.0,0.0,0.0,0.0,0.0,0.0,0.0,0.0,0.0,0.0,0.0,0.0,0.0,-4.3499,-4.3499,-4.3499,-4.3499,-4.3499,-4.3499,-4.3499,-4.3499,-4.3499,-4.3499,-4.3499,-4.3499,-4.3499,-4.3774,-4.427,-4.4966,-4.5883,-4.6599,-4.713,-4.7112,-4.6855,-4.6379,-4.5297,-4.4618,-4.4251,-4.4123,-4.3995,-4.4013,0.0,0.0,0.0,0.0,0.0,0.0,0.0,-4.3162,-4.3338,-4.3463,-4.4518,-4.5171,-4.497,-4.5824,-4.6401,-4.6401,-4.5955,0.0,0.0,0.0,0.0,0.0,0.0,0.0,-4.7746,-4.8465,-4.8834,-4.8704,-4.8974,-4.912,-4.912,-4.9121,-4.8892,-4.8579,-4.8579,-4.8579,0.0,0.0,0.0,0.0,-5.0527,-5.0744,-5.072,0.0,0.0,0.0,0.0,0.0,0.0,0.0,0.0,0.0,0.0,0.0,0.0,0.0,-5.1409,-5.2243,-5.1849,-5.2514,-5.2823,-5.0968,-4.902,0.0,0.0,0.0,0.0,-4.3499,-4.3701,-4.3866,-4.3866,-4.3976,-4.4215,-4.46,-4.4471,0.0,0.0,0.0,0.0,0.0,0.0,0.0,0.0,0.0,0.0,0.0,0.0,0.0,-4.3499,-4.3499,-4.3499,-4.3499,-4.3499,-4.3499,-4.3499,-4.3499,-4.3499,-4.3499,-4.3499,-4.3573,-4.3719,-4.3976,-4.46,-4.5553,-4.6195,-4.6947,0.0,-4.7277,-4.6855,-4.636,-4.515,-4.4526,-4.4288,-4.4141,-4.4178,-4.4398,0.0,0.0,0.0,0.0,0.0,0.0,0.0,-4.3489,-4.3639,-4.3162,-4.497,-4.6125,-4.5598,-4.6954,-4.7933,-4.7958,-4.767,0.0,0.0,0.0,0.0,0.0,0.0,0.0,-4.7568,-4.9082,-4.9677,-4.9345,-4.9547,-4.9611,-4.9611,-4.9318,-4.9181,-4.9133,-4.9133,-4.9133,0.0,0.0,0.0,0.0,-5.1562,-5.1586,0.0,0.0,0.0,0.0,0.0,0.0,0.0,0.0,0.0,0.0,0.0,0.0,0.0,0.0,0.0,0.0,0.0,-5.1347,-5.1325,-5.0631,-4.8935,-4.7255,-4.6734,0.0,0.0,-4.3536,-4.3536,-4.3536,-4.3536,-4.3866,-4.4251,-4.4618,-4.4856,0.0,0.0,0.0,0.0,0.0,0.0,0.0,0.0,0.0,0.0,0.0,0.0,0.0,-4.3499,-4.3499,-4.3499,-4.3499,-4.3499,-4.3499,-4.3499,-4.3499,-4.3499,-4.3499,-4.3499,-4.3701,-4.4086,-4.4141,-4.482,0.0,-4.6379,-4.702,-4.7699,-4.7314,-4.6874,-4.6324,-4.5205,-4.471,-4.46,-4.4288,-4.4398,-4.4783,0.0,0.0,0.0,0.0,0.0,0.0,0.0,0.0,0.0,0.0,-4.5447,-4.625,-4.6125,-4.7179,-4.8083,0.0,0.0,0.0,0.0,0.0,0.0,0.0,0.0,0.0,-4.928,-4.919,-4.9224,-4.9504,-4.9765,-4.9824,-4.9824,-5.0189,-5.0095,-4.9686,-4.9686,-4.9686,0.0,0.0,0.0,0.0,-5.0912,-5.0936,0.0,0.0,0.0,0.0,-4.8494,-4.8079,0.0,0.0,0.0,0.0,0.0,0.0,0.0,0.0,-4.7986,-4.6967,-4.7034,0.0,-4.8634,-4.6753,-4.5637,-4.4883,0.0,-4.3926,-4.3573,-4.3884,-4.394,-4.394,-4.394,-4.427,-4.4563,-4.4655,0.0,0.0,0.0,0.0,0.0,0.0,0.0,0.0,0.0,0.0,0.0,0.0,0.0,-4.3499,-4.3499,-4.3499,-4.3499,-4.3499,-4.3499,-4.3499,-4.3499,-4.3499,-4.3499,-4.3499,-4.3499,-4.3701,-4.4105,-4.4728,-4.5498,-4.6379,-4.7094,-4.7699,-4.8121,-4.7717,-4.6947,-4.5993,-4.5718,-4.504,-4.4288,-4.482,-4.5077,-4.5205,0.0,0.0,0.0,0.0,0.0,0.0,0.0,0.0,0.0,0.0,-4.5874,-4.6753,-4.6024,-4.7581,-4.8711,0.0,0.0,0.0,0.0,0.0,0.0,0.0,0.0,-4.9347,-4.9731,-4.9639,-4.9636,-4.9721,-5.0379,-5.0479,-5.0263,-5.0816,-5.0768,-5.0239,-5.0239,-5.0239,0.0,0.0,0.0,-5.0744,-5.1225,0.0,0.0,0.0,0.0,0.0,-4.7238,-4.7698,0.0,-4.8213,-4.949,-5.1325,0.0,0.0,0.0,0.0,-4.7054,-4.6221,-4.5695,-4.6357,-4.6686,-4.4971,-4.437,-4.4104,-4.3589,-4.3628,-4.3829,-4.405,-4.4233,-4.456,-4.5258,-4.563,-4.62,0.0,-4.8147,0.0,0.0,0.0,0.0,0.0,0.0,0.0,0.0,0.0,0.0,0.0,0.0,-4.3499,-4.3499,-4.3499,-4.3499,-4.3499,-4.3499,-4.3499,-4.3499,-4.3499,-4.3499,-4.3499,-4.3499,-4.3903,-4.4655,-4.5095,-4.5938,-4.7057,-4.7497,-4.7919,-4.8249,-4.7864,-4.6984,-4.5865,-4.57,-4.5095,-4.4416,-4.4856,-4.526,-4.5608,0.0,0.0,0.0,0.0,0.0,0.0,0.0,0.0,0.0,0.0,0.0,0.0,0.0,0.0,0.0,0.0,0.0,0.0,0.0,0.0,0.0,0.0,-4.971,-4.9823,-4.9796,-5.0194,-5.0371,-5.0234,-5.1104,-5.1297,-5.096,-5.1321,-5.1249,-5.0816,-5.0744,-5.0696,-5.0768,-5.1658,-5.1513,-5.0768,-5.1441,0.0,0.0,0.0,0.0,0.0,0.0,0.0,0.0,-4.8547,-5.0601,-5.2988,-4.9913,0.0,0.0,0.0,0.0,0.0,-4.6026,-4.5939,-4.5588,-4.4459,-4.4104,-4.4015,-4.3589,-4.3793,-4.4105,-4.416,-4.4708,-4.5547,-4.6675,-4.7424,0.0,0.0,0.0,0.0,0.0,0.0,0.0,0.0,0.0,0.0,0.0,0.0,0.0,0.0,0.0,-4.3499,-4.3499,-4.3499,-4.3499,-4.3499,-4.3499,-4.3499,-4.3499,-4.3499,-4.3499,-4.3499,-4.3499,-4.4123,-4.5297,-4.537,-4.6232,-4.7699,0.0,0.0,-4.8249,-4.7919,-4.7039,-4.5865,-4.559,-4.515,-4.4673,-4.4746,-4.5242,-4.5883,0.0,0.0,0.0,0.0,0.0,0.0,0.0,0.0,0.0,0.0,0.0,0.0,0.0,0.0,0.0,0.0,0.0,0.0,0.0,0.0,0.0,-5.0051,-4.978,-4.9957,-5.0793,-5.0731,-5.098,-5.17,-5.1537,-5.1682,-5.2018,-5.1658,-5.1441,-5.1345,-5.0912,-5.0696,-5.072,-5.0888,-5.0864,-5.0578,-4.9385,0.0,0.0,0.0,0.0,0.0,0.0,0.0,0.0,-4.7604,-4.8942,-4.9743,-4.9168,0.0,0.0,0.0,0.0,0.0,-4.7621,-4.7621,-4.6793,-4.4706,-4.3926,-4.3589,-4.3499,-4.3793,-4.4178,-4.4508,-4.5947,-4.7211,-4.7313,-4.8671,-4.9805,0.0,0.0,0.0,0.0,0.0,0.0,0.0,0.0,0.0,0.0,0.0,0.0,0.0,0.0,-4.3499,-4.3499,-4.3499,-4.3499,-4.3499,-4.3499,-4.3499,-4.3499,-4.3499,-4.3499,-4.3499,-4.3499,-4.4123,-4.5315,-4.5645,-4.6489,-4.7717,0.0,-4.8231,-4.8286,-4.8212,-4.7277,-4.592,-4.6195,-4.5627,-4.471,-4.5077,-4.5498,-4.5883,0.0,0.0,0.0,0.0,0.0,0.0,0.0,0.0,0.0,0.0,0.0,0.0,0.0,0.0,0.0,0.0,0.0,0.0,0.0,0.0,-4.9983,-5.0616,-5.036,-5.0489,-5.108,-5.1044,-5.1075,-5.1317,-5.1417,-5.161,-5.185,-5.1898,-5.1778,-5.1489,-5.1249,-5.096,-5.0696,-5.0696,-5.0696,-5.0554,0.0,0.0,0.0,0.0,0.0,0.0,0.0,0.0,0.0,0.0,-5.0685,-5.1492,-4.9573,0.0,0.0,0.0,0.0,0.0,-4.6444,-4.7034,-4.7208,-4.5637,-4.5881,-4.6473,-4.6473,-4.6826,-4.7091,-4.7287,-4.8215,-4.9182,0.0,0.0,-5.1702,-5.2796,0.0,0.0,0.0,0.0,0.0,0.0,0.0,0.0,0.0,0.0,0.0,0.0,0.0,0.0,-4.3499,-4.3499,-4.3499,-4.3499,-4.3499,-4.3499,-4.3499,-4.3499,-4.3499,-4.3499,-4.3701,-4.4453,-4.5627,-4.603,-4.6874,-4.8029,0.0,-4.8286,-4.8286,-4.8286,-4.7332,-4.592,-4.6324,-4.5737,-4.4746,-4.5388,-4.5737,-4.5883,0.0,0.0,0.0,0.0,0.0,0.0,0.0,0.0,0.0,0.0,0.0,0.0,0.0,0.0,0.0,0.0,0.0,0.0,0.0,0.0,-5.0147,-5.0985,-5.0968,-5.1119,-5.1352,-5.1287,-5.1218,-5.1006,-5.1489,-5.173,-5.1874,-5.2283,-5.2187,-5.1682,-5.1537,-5.1201,-5.0696,-5.0696,-5.0696,-5.0554,0.0,0.0,0.0,0.0,0.0,0.0,0.0,0.0,0.0,0.0,0.0,0.0,0.0,0.0,0.0,-4.7727,-4.6638,-4.6289,-4.6357,-4.7295,-4.8225,-4.8249,-4.8678,-4.9041,-4.9041,-4.9307,-4.9572,-4.9572,-5.0273,0.0,0.0,-5.2678,0.0,-5.5748,0.0,0.0,0.0,0.0,0.0,0.0,0.0,0.0,0.0,0.0,0.0,0.0,0.0,0.0,-4.3499,-4.3499,-4.3499,-4.3499,-4.3499,-4.3499,-4.3499,-4.3499,-4.3499,-4.3499,-4.3903,-4.471,-4.5902,-4.6305,-4.713,-4.8286,-4.8286,-4.8286,-4.8286,-4.8286,-4.7387,-4.6048,-4.636,-4.5792,-4.4911,-4.5627,-4.5883,-4.5883,0.0,0.0,0.0,0.0,0.0,0.0,0.0,0.0,0.0,0.0,0.0,0.0,0.0,0.0,0.0,0.0,0.0,0.0,0.0,0.0,-5.0419,-5.1004,-5.1431,-5.1751,-5.1751,-5.1604,-5.1632,-5.1894,-5.2091,-5.2475,-5.2956,-5.3004,-5.274,-5.2211,-5.1706,-5.1201,-5.0696,-5.0696,-5.0696,-5.0554,-4.8982,0.0,0.0,0.0,0.0,0.0,0.0,0.0,0.0,0.0,0.0,0.0,0.0,0.0,-4.9168,-4.8911,-4.7641,-4.69,-4.9743,-5.0358,-5.0886,-5.3715,-5.1743,-4.9041,-4.9041,-4.9307,-4.9572,-4.9572,-5.1335,-5.2735,-5.2342,-5.3817,0.0,0.0,0.0,0.0,0.0,0.0,0.0,0.0,0.0,0.0,0.0,0.0,0.0,0.0,0.0,0.0,-4.3499,-4.3499,-4.3499,-4.3499,-4.3499,-4.3499,-4.3499,-4.3499,-4.3499,-4.3499,-4.3903,-4.471,-4.5902,-4.6305,-4.713,-4.8286,-4.8286,-4.8286,-4.8286,-4.8286,-4.7552,-4.6434,-4.647,-4.5975,-4.5315,-4.5737,-4.5883,-4.5883,0.0,0.0,0.0,0.0,0.0,0.0,0.0,0.0,0.0,0.0,0.0,-4.959,-4.959,0.0,0.0,0.0,0.0,0.0,0.0,-4.9872,-5.025,-5.108,-5.1324,-5.1446,-5.1446,-5.136,-5.1269,-5.1198,-5.1922,-5.2548,-5.3077,-5.3389,-5.3077,-5.2283,-5.2067,-5.1513,-5.0696,-5.0696,-5.0696,-5.0554,-4.8982,-4.8492,0.0,0.0,0.0,0.0,0.0,0.0,0.0,0.0,-5.3343,-5.2409,-5.3071,-5.2823,-5.2077,-5.1011,-5.0167,-4.9828,-5.0421,-5.1263,-5.2182,-5.2785,-5.2702,0.0,-5.237,-5.2282,-5.2221,-5.2508,-5.3315,-5.3911,-5.4046,0.0,0.0,0.0,0.0,0.0,0.0,0.0,0.0,0.0,0.0,0.0,0.0,0.0,0.0,0.0,0.0,0.0,-4.3499,-4.3499,-4.3499,-4.3499,-4.3499,-4.3499,-4.3499,-4.3499,-4.3499,-4.3499,-4.4416,-4.5205,-4.592,-4.6819,-4.7626,-4.8286,-4.8286,-4.8286,-4.8286,-4.8286,-4.7424,-4.6067,-4.5553,-4.548,-4.5682,-4.5828,-4.5883,-4.5883,0.0,0.0,0.0,0.0,0.0,0.0,0.0,0.0,-4.959,0.0,0.0,0.0,0.0,-4.959,0.0,0.0,0.0,0.0,-4.9897,-5.0074,-5.0425,-5.1187,-5.1282,-5.1352,-5.1211,-5.1095,-5.1051,-5.096,-5.2018,-5.2788,-5.3317,-5.3485,-5.3125,-5.2283,-5.2115,-5.1537,-5.0696,-5.0696,-5.0792,-5.0889,-4.9744,-4.9613,0.0,0.0,0.0,0.0,0.0,0.0,0.0,0.0,-5.444,-5.367,-5.4835,-5.4406,-5.3341,-5.268,-5.2015,-5.1431,-5.1241,-5.18,-5.2584,-5.2575,0.0,0.0,-5.4554,-5.4416,-5.4255,-5.46,-5.4783,-5.5059,-5.5587,-5.5817,0.0,0.0,0.0,0.0,0.0,0.0,0.0,0.0,0.0,0.0,0.0,0.0,0.0,0.0,0.0,0.0,0.0,-4.3499,-4.3499,-4.3499,-4.3499,-4.3499,-4.3499,-4.3499,-4.3554,-4.3701,-4.4911,-4.5627,-4.5938,-4.7149,-4.7901,-4.8286,-4.8286,-4.8286,-4.8286,-4.8286,-4.7497,-4.6195,-4.537,-4.5407,-4.5883,-4.5883,-4.5883,-4.5883,0.0,0.0,0.0,0.0,0.0,0.0,0.0,0.0,-4.959,-4.959,-4.959,0.0,0.0,0.0,0.0,0.0,0.0,0.0,-4.9582,-5.046,-5.1068,-5.1187,-5.1586,-5.1586,-5.1211,-5.0908,-5.0984,-5.1489,-5.2548,-5.3317,-5.3822,-5.3293,-5.2788,-5.2259,-5.173,-5.1201,-5.072,-5.072,-5.1008,-5.1489,-5.1489,-5.1826,-5.2355,0.0,0.0,0.0,0.0,0.0,0.0,0.0,-5.2425,-5.2348,-5.5852,-5.4592,-5.2099,-5.3834,-5.2763,-5.1347,-5.268,-5.2346,-5.2101,0.0,0.0,0.0,-5.4852,-5.5197,-5.5197,-5.522,-5.561,-5.6092,-5.6574,-5.6276,0.0,0.0,0.0,0.0,0.0,0.0,0.0,0.0,0.0,0.0,0.0,0.0,0.0,0.0,0.0,0.0,0.0,-4.3499,-4.3499,-4.3499,-4.3499,-4.3499,-4.3499,-4.3499,-4.3701,-4.4105,-4.5315,-4.5883,-4.5938,-4.7149,-4.7919,-4.8286,-4.8286,-4.8286,-4.8286,-4.8267,-4.7809,-4.702,-4.6195,-4.5883,-4.5883,-4.5883,-4.5883,-4.5883,0.0,0.0,0.0,0.0,0.0,0.0,0.0,0.0,-4.959,-4.959,-4.959,0.0,0.0,0.0,0.0,0.0,0.0,0.0,-4.9582,-5.046,-5.093,-5.0884,-5.1471,-5.1471,-5.0837,-5.1489,-5.1874,-5.2043,-5.2355,-5.2956,-5.3822,-5.3293,-5.2788,-5.2259,-5.173,-5.1393,-5.1249,-5.1249,-5.1562,-5.2043,-5.2043,-5.2355,-5.286,0.0,0.0,0.0,0.0,0.0,0.0,0.0,0.0,0.0,-5.6582,-5.6278,-5.5506,-5.6013,-5.5772,-5.5183,-5.494,-5.4662,-5.443,-5.4452,0.0,0.0,0.0,-5.4921,0.0,0.0,-5.6115,-5.6391,-5.6184,0.0,0.0,0.0,0.0,0.0,0.0,0.0,0.0,0.0,0.0,0.0,0.0,0.0,0.0,0.0,0.0,0.0,0.0,-4.3499,-4.3499,-4.3499,-4.3499,-4.3499,-4.3499,-4.3499,-4.3829,-4.4508,-4.5443,-4.603,-4.6342,-4.7552,-4.8176,-4.8286,-4.8286,-4.8286,-4.8212,-4.7369,-4.7057,-4.7002,-4.5902,-4.5645,-4.5883,-4.5883,-4.5883,-4.592,0.0,0.0,0.0,0.0,0.0,0.0,-4.959,-4.959,-4.959,-4.959,-4.959,-4.959,0.0,0.0,0.0,-4.8942,-4.9265,-4.9608,-4.9675,-5.0597,-5.1068,-5.093,-5.1471,-5.1471,-5.0696,-5.1321,-5.1754,-5.197,-5.2596,-5.3101,-5.351,-5.3004,-5.2475,-5.1946,-5.1634,-5.1489,-5.1513,-5.1706,-5.2115,-5.2596,-5.2596,-5.2908,-5.3365,0.0,0.0,0.0,0.0,0.0,0.0,0.0,0.0,0.0,-5.6612,-5.6852,-5.6941,-5.6782,-5.6622,-5.6358,-5.5611,-5.5147,0.0,-5.4452,-5.4646,-5.5059,-5.5656,0.0,-5.5541,0.0,-5.662,-5.6597,-5.6276,0.0,0.0,0.0,0.0,0.0,0.0,0.0,0.0,0.0,0.0,0.0,0.0,0.0,0.0,0.0,0.0,0.0,0.0,-4.3926,-4.3499,-4.3499,-4.3499,-4.3573,-4.3719,-4.3738,-4.4215,-4.5168,-4.581,-4.6415,-4.6984,-4.7882,-4.8286,-4.8286,-4.8286,-4.8286,-4.8212,-4.7149,-4.6874,-4.7002,-4.5938,-4.5682,-4.5883,-4.5883,-4.5993,-4.6158,0.0,0.0,0.0,0.0,0.0,0.0,-4.9615,-4.959,-4.959,-4.959,-4.959,-4.959,0.0,0.0,0.0,-4.8706,-4.9422,-4.9833,-4.9767,-5.0826,-5.1344,-5.1187,-5.1516,-5.1401,-5.0696,-5.0744,-5.1008,-5.1489,-5.2908,-5.3389,-5.298,-5.2451,-5.1946,-5.1489,-5.1489,-5.1513,-5.161,-5.2139,-5.2668,-5.3125,-5.3125,-5.3413,-5.3822,-5.3822,0.0,0.0,0.0,0.0,0.0,0.0,0.0,0.0,-5.6203,-5.6564,-5.6869,-5.6542,-5.6141,-5.5691,-5.523,-5.45,-5.3969,-5.437,-5.4554,-5.499,-5.6413,-5.6712,-5.6827,-5.7309,0.0,-5.6643,0.0,0.0,0.0,0.0,0.0,0.0,0.0,0.0,0.0,0.0,0.0,0.0,0.0,0.0,0.0,0.0,0.0,0.0,0.0,-4.4422,-4.3499,-4.3499,-4.3536,-4.3719,-4.4086,-4.4123,-4.4746,-4.5957,-4.6305,-4.6929,-4.7754,-4.8121,-4.8286,-4.8286,-4.8286,-4.8267,-4.8176,-4.7424,-4.7094,-4.6965,-4.6195,-4.5883,-4.5883,-4.5883,-4.614,-4.6489,0.0,0.0,0.0,0.0,0.0,0.0,-4.9665,-4.959,-4.959,-4.959,-4.959,-4.959,-4.959,-4.959,0.0,-4.9007,-4.9528,-4.9966,-5.0106,-5.0714,-5.1161,-5.1187,-5.1025,-5.0837,-5.0696,-5.1105,-5.1369,-5.1489,-5.1826,-5.2139,-5.2427,-5.1898,-5.161,-5.1489,-5.1489,-5.173,-5.2139,-5.2668,-5.3197,-5.3654,-5.3654,-5.3726,-5.3822,-5.3822,-5.3822,0.0,0.0,0.0,0.0,0.0,0.0,0.0,-5.5963,-5.6323,-5.6413,-5.6741,-5.6542,-5.6141,0.0,-5.5217,0.0,0.0,-5.561,-5.6391,-5.7148,-5.6987,-5.6712,-5.6827,-5.6758,0.0,0.0,0.0,0.0,0.0,0.0,0.0,0.0,0.0,0.0,0.0,0.0,0.0,0.0,0.0,0.0,0.0,0.0,0.0,-4.4263,-4.3748,-4.3499,-4.3499,-4.3793,-4.3995,-4.4086,-4.438,-4.515,0.0,-4.6434,-4.7075,-4.8157,-4.8249,-4.8286,-4.8286,-4.8286,-4.8102,-4.7791,-4.7314,-4.691,-4.6562,-4.6085,-4.5883,-4.5883,-4.5883,-4.614,-4.6525,0.0,0.0,0.0,0.0,0.0,0.0,0.0,0.0,-4.9992,-4.9992,-4.9766,-4.959,-4.959,-4.959,0.0,0.0,-4.9476,-4.9809,-5.0023,-5.0567,-5.096,-5.1187,-5.0908,-5.0696,-5.0696,-5.096,-5.1105,-5.1105,-5.1105,-5.1393,-5.1898,-5.161,-5.1345,-5.1129,-5.1634,-5.2018,-5.2331,-5.3101,-5.3582,-5.3822,-5.3822,-5.3822,-5.3822,-5.3822,-5.3822,-5.3822,-5.3822,0.0,0.0,0.0,0.0,0.0,0.0,0.0,-5.5881,-5.5747,-5.5768,0.0,0.0,0.0,0.0,-5.544,0.0,-5.6528,-5.7309,-5.7056,-5.662,-5.6368,0.0,0.0,0.0,0.0,0.0,0.0,0.0,0.0,0.0,0.0,0.0,0.0,0.0,0.0,0.0,0.0,0.0,0.0,0.0,-4.8184,-4.623,-4.444,-4.3499,-4.3499,-4.3884,-4.4178,-4.4361,-4.4765,-4.5572,-4.6782,-4.6782,-4.7314,-4.8286,-4.8286,-4.8286,-4.8286,-4.8286,-4.8066,-4.7662,-4.7277,-4.6855,-4.6434,-4.6048,-4.5883,-4.5883,-4.5883,-4.6269,-4.68,0.0,0.0,0.0,0.0,0.0,0.0,0.0,0.0,0.0,-5.0419,-4.9941,-4.959,-4.959,-4.959,-4.9461,0.0,0.0,0.0,-4.9974,-5.0489,-5.0851,-5.0971,-5.0765,-5.0696,-5.0696,-5.0696,-5.0696,-5.0696,-5.0696,-5.096,-5.1489,-5.1393,-5.1177,-5.0888,-5.185,-5.2331,-5.2475,-5.3413,-5.3822,-5.3822,-5.3822,-5.3822,-5.3822,-5.3822,-5.3822,-5.3822,-5.3822,-5.3822,-5.3822,-5.3822,0.0,0.0,0.0,0.0,-5.5099,-5.4574,0.0,0.0,0.0,0.0,-5.4783,-5.5702,-5.6,0.0,-5.7263,-5.6987,-5.6436,0.0,0.0,0.0,0.0,0.0,0.0,0.0,0.0,0.0,0.0,0.0,0.0,0.0,0.0,0.0,0.0,0.0,0.0,0.0,0.0,-4.8356,-4.8098,-4.5185,-4.3591,-4.3591,-4.405,-4.4453,-4.4783,-4.526,-4.6048,-4.7112,-4.724,-4.7662,-4.8286,-4.8286,-4.8286,-4.8286,-4.8286,-4.8029,-4.7571,-4.724,-4.6819,-4.6342,-4.6012,-4.5883,-4.5883,-4.5883,-4.6415,-4.7112,0.0,0.0,0.0,0.0,0.0,0.0,0.0,0.0,0.0,0.0,-4.9941,-4.959,-4.959,-4.959,-4.959,-4.9525,-4.959,-4.9841,-5.0328,0.0,0.0,-5.0114,-5.0455,-5.0696,-5.0696,-5.0696,-5.0696,-5.0696,-5.0696,-5.096,-5.1489,-5.1032,-5.1008,-5.1417,-5.2018,-5.2524,-5.3004,-5.3582,-5.3822,-5.3822,-5.3822,-5.3822,-5.3822,-5.3822,-5.3822,-5.3822,-5.3822,-5.3822,-5.3822,-5.3822,-5.3644,0.0,0.0,0.0,-5.3841,-5.468,-5.469,0.0,0.0,0.0,0.0,0.0,-5.6253,-5.6735,0.0,0.0,0.0,0.0,0.0,0.0,0.0,0.0,0.0,0.0,0.0,0.0,0.0,0.0,0.0,0.0,0.0,0.0,0.0,0.0,0.0,0.0,-4.7733,-4.5861,-4.4352,-4.4081,-4.3995,-4.3995,-4.4746,-4.5168,-4.5223,-4.5957,-4.658,-4.7112,-4.7809,-4.8176,-4.8286,-4.8286,-4.8286,-4.8286,-4.8286,-4.7864,-4.7185,-4.713,-4.6654,-4.5957,-4.5902,-4.5883,-4.5883,-4.5883,-4.6415,-4.7112,0.0,0.0,0.0,0.0,0.0,0.0,0.0,0.0,0.0,0.0,0.0,-4.959,-4.959,-4.959,-4.959,-4.959,-4.959,-4.9621,-4.9777,-4.9939,-4.9884,-4.949,-4.9662,-4.9782,-4.9782,-4.9782,-4.9782,-4.9782,-5.0095,-5.0359,0.0,-5.0672,-5.1153,-5.1946,-5.2187,-5.2572,-5.3077,-5.3293,-5.3558,-5.3822,-5.3822,-5.3991,-5.4231,-5.3918,-5.4183,-5.4616,-5.4039,-5.4015,-5.4131,-5.3617,-5.337,-5.3191,-5.297,0.0,0.0,0.0,-5.3723,0.0,0.0,0.0,0.0,0.0,0.0,0.0,0.0,0.0,0.0,0.0,0.0,0.0,0.0,0.0,0.0,0.0,0.0,0.0,0.0,0.0,0.0,0.0,0.0,0.0,0.0,0.0,0.0,0.0,0.0,-4.5861,-4.509,-4.4458,-4.4086,-4.4086,-4.4875,-4.5297,-4.5297,-4.6085,-4.68,-4.7442,-4.8011,-4.8286,-4.8286,-4.8286,-4.8286,-4.8267,-4.8047,-4.7626,-4.7094,-4.6855,-4.6415,-4.5883,-4.5883,-4.5883,-4.592,-4.614,-4.6599,-4.713,0.0,0.0,0.0,0.0,0.0,0.0,0.0,0.0,0.0,0.0,0.0,-4.959,-4.959,0.0,0.0,0.0,-4.9525,-4.9311,-4.8984,-4.9089,-4.9066,-4.8936,-4.9012,-4.9084,-4.9084,-4.9205,-4.9277,-4.9277,-4.9806,0.0,-5.0287,-5.072,-5.1393,-5.2283,-5.2139,-5.2379,-5.2884,-5.3004,-5.3293,-5.3654,-5.3918,-5.4255,-5.4568,-5.4327,-5.4712,-5.5289,-5.4496,-5.4395,-5.4506,-5.3676,-5.3281,-5.2952,-5.22,-5.2202,0.0,0.0,0.0,0.0,0.0,0.0,0.0,0.0,0.0,0.0,0.0,0.0,0.0,0.0,0.0,0.0,0.0,0.0,0.0,0.0,0.0,0.0,0.0,0.0,0.0,0.0,0.0,0.0,0.0,0.0,0.0,0.0,0.0,-4.5568,-4.5664,-4.4786,-4.4288,-4.4398,-4.5077,-4.5498,-4.5608,-4.6397,-4.7149,-4.7846,-4.8139,-4.8286,-4.8286,-4.8286,-4.8286,-4.8267,-4.7864,-4.7479,-4.7075,-4.6654,-4.625,-4.5883,-4.5883,-4.5883,-4.5938,-4.6324,-4.6745,-4.7167,0.0,0.0,0.0,0.0,0.0,0.0,0.0,0.0,0.0,0.0,0.0,-4.959,-4.959,-4.959,-4.959,-4.959,-4.9332,-4.8812,-4.814,-4.8537,-4.8694,-4.8339,-4.882,0.0,-4.9084,-4.9565,-4.983,-4.983,0.0,0.0,-5.1417,-5.1441,-5.1754,-5.2259,-5.1754,-5.1826,-5.2355,-5.286,-5.3077,-5.3197,-5.4183,-5.4592,-5.4664,-5.5145,-5.5337,-5.5385,-5.5337,-5.5105,-5.467,-5.4146,-5.3441,-5.2729,-5.2163,-5.1739,-5.1546,0.0,0.0,0.0,0.0,0.0,0.0,0.0,0.0,0.0,0.0,0.0,0.0,0.0,0.0,0.0,0.0,0.0,0.0,0.0,0.0,0.0,0.0,0.0,0.0,0.0,0.0,0.0,0.0,0.0,0.0,0.0,0.0,-4.3825,-4.4212,-4.4507,-4.482,-4.5223,-4.5645,-4.603,-4.6415,-4.7222,-4.7846,-4.8249,-4.8267,-4.8286,-4.8286,-4.8286,-4.8286,-4.8267,-4.7864,-4.7479,-4.7075,-4.6654,-4.625,-4.5883,-4.5883,-4.5883,-4.5938,-4.6324,-4.6745,-4.7167,0.0,0.0,0.0,0.0,0.0,0.0,0.0,0.0,0.0,0.0,0.0,0.0,0.0,-4.959,-4.9525,-4.9332,-4.8967,-4.8576,-4.8026,-4.8196,-4.8119,-4.7786,-4.7954,-4.8074,-4.8074,-4.8579,-4.8844,0.0,0.0,-5.0263,-5.0455,-5.0816,-5.1081,-5.1273,-5.1417,-5.1778,-5.2307,-5.2836,-5.3077,-5.3197,-5.4568,-5.5121,-5.5145,-5.5337,-5.5842,-5.6347,-5.565,-5.5393,-5.5216,-5.4382,-5.3514,-5.2744,-5.2271,-5.2069,-5.2005,-5.2487,-5.2671,0.0,0.0,0.0,0.0,0.0,0.0,0.0,0.0,0.0,0.0,0.0,0.0,0.0,0.0,0.0,0.0,0.0,0.0,0.0,0.0,0.0,0.0,0.0,0.0,0.0,0.0,0.0,0.0,0.0,0.0,0.0,-4.4158,-4.4453,-4.4856,-4.5278,-4.5682,-4.6213,-4.6874,-4.7424,-4.7901,-4.8286,-4.8286,-4.8286,-4.8286,-4.8286,-4.8286,-4.8267,-4.7864,-4.7479,-4.7075,-4.6654,-4.625,-4.5883,-4.5883,-4.6048,-4.6324,-4.6727,-4.713,-4.7534,0.0,0.0,0.0,0.0,0.0,0.0,0.0,0.0,-5.1071,-5.0362,0.0,0.0,0.0,0.0,-4.9137,-4.8747,-4.851,-4.8248,-4.7828,-4.7828,-4.7762,-4.7497,-4.7666,-4.7762,-4.7762,-4.8652,-4.9012,0.0,0.0,0.0,0.0,-5.0527,-5.0696,-5.072,-5.1081,-5.1417,-5.1802,-5.2692,-5.3077,-5.3221,-5.4977,-5.5674,-5.5698,-5.5866,-5.6492,-5.7141,-5.5902,-5.5659,-5.5738,-5.4469,-5.3598,-5.3042,-5.2543,-5.2418,-5.2487,-5.2809,-5.2671,0.0,-5.3015,0.0,0.0,0.0,0.0,0.0,0.0,0.0,0.0,0.0,0.0,0.0,0.0,0.0,0.0,0.0,0.0,0.0,0.0,0.0,0.0,0.0,0.0,0.0,0.0,0.0,0.0,0.0,0.0,0.0,-4.4342,-4.4655,-4.5132,-4.5682,-4.6085,-4.6617,-4.7295,-4.7699,-4.8029,-4.8286,-4.8286,-4.8286,-4.8286,-4.8286,-4.8286,-4.8267,-4.8011,-4.7662,-4.7259,-4.6709,-4.6324,-4.6085,-4.6085,-4.625,-4.6544,-4.7094,-4.7479,-4.7754,0.0,0.0,0.0,0.0,0.0,0.0,-5.2176,-5.1624,-5.0938,-5.0033,0.0,0.0,0.0,0.0,0.0,-4.8026,-4.796,-4.7804,-4.7497,-4.7497,-4.7497,-4.7497,-4.8002,-4.8291,-4.8291,-4.9854,-5.0407,0.0,0.0,0.0,0.0,0.0,-5.0696,-5.0696,-5.0696,-5.0696,-5.0816,0.0,-5.3077,-5.3245,-5.5385,-5.6251,-5.6299,-5.6828,-5.7333,-5.7565,-5.6136,-5.5999,-5.6151,-5.4251,-5.3667,-5.3589,-5.3084,-5.2901,-5.2901,-5.2901,-5.2901,-5.3015,0.0,0.0,0.0,0.0,0.0,0.0,0.0,0.0,0.0,0.0,0.0,0.0,0.0,0.0,0.0,0.0,0.0,0.0,0.0,0.0,0.0,0.0,0.0,0.0,0.0,0.0,0.0,0.0,0.0,-4.6268,-4.4746,-4.5077,-4.5682,-4.6452,-4.6892,-4.7295,-4.7699,-4.8084,-4.8286,-4.8286,-4.8286,-4.8286,-4.8286,-4.8286,-4.8286,-4.8286,-4.8286,-4.8066,-4.7644,-4.6837,-4.6507,-4.6507,-4.6507,-4.6507,-4.6617,-4.7406,-4.7717,-4.7791,0.0,0.0,0.0,0.0,0.0,-5.2591,-5.1811,-5.1195,-5.0513,0.0,0.0,0.0,-4.8706,-4.8012,-4.7678,-4.8002,-4.7399,-4.7154,-4.7473,-4.7497,-4.7497,-4.7497,-4.8002,-4.8291,-4.8291,-4.9469,-5.0022,-4.9878,0.0,0.0,0.0,0.0,-5.0696,-5.0696,-5.0696,-5.0696,-5.084,-5.2788,0.0,-5.3293,-5.5794,-5.6564,-5.6299,-5.6828,-5.6877,-5.6733,-5.6367,-5.5617,-5.488,-5.4753,-5.4014,-5.3153,-5.3406,-5.3199,-5.2901,-5.2901,-5.2901,-5.2763,-5.2212,0.0,0.0,0.0,0.0,0.0,0.0,0.0,0.0,0.0,0.0,0.0,0.0,0.0,0.0,0.0,0.0,0.0,0.0,0.0,0.0,0.0,0.0,0.0,0.0,0.0,0.0,0.0,-4.8872,-4.7583,-4.4838,-4.5352,-4.5957,-4.6452,-4.6892,-4.7295,-4.7699,-4.8084,-4.8286,-4.8286,-4.8286,-4.8286,-4.8286,-4.8286,-4.8286,-4.8286,-4.8286,-4.8212,-4.8084,-4.7571,-4.7185,-4.6929,-4.6929,-4.7112,-4.7387,-4.7607,-4.8066,-4.8598,0.0,0.0,-5.2929,-5.2929,-5.2792,-5.2454,-5.1607,-5.1123,-5.0524,0.0,0.0,0.0,-4.8523,-4.8099,-4.8057,-4.8433,-4.7799,-4.7497,-4.781,-4.7834,-4.7834,-4.7834,-4.8555,-4.894,-4.894,-4.9998,-5.0431,-5.0215,0.0,0.0,0.0,-5.1032,-5.1032,-5.1032,-5.1032,-5.0912,-5.0816,-5.2716,0.0,0.0,-5.5794,0.0,0.0,-5.666,-5.6654,-5.6643,-5.5818,-5.5376,-5.5207,-5.472,-5.4084,-5.3589,-5.3888,-5.3635,-5.3222,-5.3222,-5.2786,-5.2212,-5.1844,-5.1844,-5.2028,-5.2395,0.0,0.0,0.0,0.0,0.0,0.0,0.0,0.0,0.0,0.0,0.0,0.0,0.0,0.0,0.0,0.0,0.0,0.0,0.0,0.0,0.0,0.0,0.0,-4.9482,-4.9593,-4.8453,-4.5335,-4.5627,-4.6158,-4.6727,-4.6984,-4.7369,-4.7937,-4.8176,-4.8286,-4.8286,-4.8286,-4.8286,-4.8286,-4.8286,-4.8286,-4.8286,-4.8286,-4.8286,-4.8267,-4.8029,-4.7699,-4.7351,-4.7351,-4.7497,-4.7736,-4.8084,-4.8506,-4.8928,0.0,0.0,-5.2886,-5.2936,-5.2659,-5.2278,-5.1643,-5.1245,-5.068,0.0,-4.9174,-4.8724,-4.8455,-4.8584,-4.8821,-4.9033,-4.8555,-4.8291,-4.8291,-4.8339,-4.8387,-4.8387,-4.9325,-4.9878,-4.9878,-5.0888,-5.1153,-5.06,-5.1153,-5.1393,-5.1393,-5.1465,-5.1489,-5.1489,-5.1489,-5.1225,-5.0888,-5.2427,0.0,-5.3942,-5.5506,-5.6492,0.0,0.0,-5.6534,-5.6824,-5.4948,-5.5181,-5.5971,-5.4303,-5.4026,-5.4416,-5.4416,-5.4117,-5.375,-5.3635,-5.2648,-5.1638,-5.1936,-5.1339,-5.0949,-5.2304,-5.2717,0.0,-5.4026,-5.4324,0.0,0.0,0.0,0.0,0.0,0.0,0.0,0.0,0.0,0.0,0.0,0.0,0.0,0.0,0.0,0.0,0.0,-5.4554,-5.3203,-4.9877,-4.963,-4.8641,-4.6164,-4.5975,-4.6324,-4.7149,-4.713,-4.7479,-4.8286,-4.8286,-4.8286,-4.8286,-4.8286,-4.8286,-4.8286,-4.8286,-4.8286,-4.8286,-4.8286,-4.8286,-4.8286,-4.8286,-4.8084,-4.7754,-4.7754,-4.7754,-4.7864,-4.8634,-4.8946,-4.9038,-5.2929,-5.2929,-5.2917,-5.3064,-5.2998,-5.2738,-5.2005,-5.1474,-5.0871,-4.999,-4.939,-4.8984,-4.8916,-4.8623,-4.8406,-4.8435,-4.8363,-4.8291,-4.8291,-4.87,-4.8916,-4.8916,-4.9517,-4.9878,-4.9878,-5.0527,-5.0576,-5.0022,-5.0576,-5.0864,-5.0864,-5.1297,-5.1489,-5.1489,-5.1489,-5.1441,-5.1417,-5.2572,0.0,-5.3918,-5.5097,0.0,-5.6893,-5.6025,-5.5794,-5.589,-5.5205,-5.4627,-5.4176,-5.3796,-5.4026,-5.4416,-5.4416,-5.4347,-5.4117,-5.3291,-5.2832,-5.2372,-5.1224,-5.0788,-5.0696,-5.0995,-5.1707,0.0,-5.3061,-5.3819,0.0,0.0,0.0,0.0,0.0,0.0,0.0,0.0,0.0,0.0,0.0,0.0,0.0,0.0,0.0,0.0,0.0,0.0,-5.394,-4.994,-4.7819,-4.6747,-4.6819,-4.6544,-4.6727,-4.7552,-4.7277,-4.7479,-4.8286,-4.8286,-4.8286,-4.8286,-4.8286,-4.8286,-4.8286,-4.8286,-4.8286,-4.8286,-4.8286,-4.8286,-4.8286,-4.8286,-4.8231,-4.8176,-4.8176,-4.8176,-4.8231,-4.8726,-4.9111,-4.9441,-5.2929,-5.2792,-5.2734,-5.3048,-5.2795,-5.2441,-5.2085,-5.1653,-5.1101,-5.0429,-5.0046,-4.9902,-4.9902,-4.9902,-4.9878,-4.9878,-4.9638,-4.9373,-4.9084,-4.9325,-4.9469,-4.9469,-4.9998,-5.0143,-4.9948,-5.0143,-5.0022,-4.9469,-4.9758,-5.0167,-5.072,-5.0984,-5.1393,-5.1874,-5.1874,-5.1874,-5.1946,0.0,-5.375,-5.4279,-5.5073,0.0,-5.6485,-5.554,-5.5431,-5.5611,-5.523,-5.4765,-5.4462,-5.4462,-5.4439,-5.4416,-5.4416,-5.4255,-5.3957,-5.3452,-5.2924,-5.2304,-5.1293,-5.0834,-5.0696,-5.0949,-5.1408,0.0,0.0,0.0,0.0,0.0,0.0,0.0,0.0,0.0,0.0,0.0,0.0,0.0,0.0,0.0,0.0,0.0,0.0,0.0,0.0,0.0,-5.2713,-4.9389,-4.7267,-4.6452,-4.7075,-4.6709,-4.6764,-4.7387,-4.7204,-4.7387,-4.7992,-4.8194,-4.8286,-4.8286,-4.8286,-4.8286,-4.8286,-4.8286,-4.8286,-4.8286,-4.8286,-4.8286,-4.8286,-4.8286,-4.8286,-4.8304,-4.8506,-4.8598,-4.8671,-4.9294,-4.9643,-4.9881,-5.2929,-5.2729,-5.2675,-5.3081,-5.2686,-5.2258,-5.2258,-5.1898,-5.1441,-5.0912,-5.0864,-5.0864,-5.0864,-5.1153,-5.1345,-5.1345,-5.1032,-5.0672,-5.0215,-5.0167,-5.0167,-5.0167,-5.0503,-5.0431,-4.9878,-4.9878,-4.9565,-4.894,-4.9036,-4.9589,-5.0551,-5.0648,-5.1273,-5.2283,-5.2283,-5.2379,0.0,0.0,0.0,-5.4511,0.0,-5.5686,-5.6231,-5.5209,-5.5263,-5.5811,-5.5253,-5.503,-5.5082,-5.5174,-5.4852,-5.4439,-5.4531,-5.4232,-5.3819,-5.3727,-5.3038,-5.2212,-5.1707,-5.111,-5.0765,-5.1293,-5.1431,-5.1661,0.0,0.0,0.0,0.0,0.0,0.0,0.0,0.0,0.0,0.0,0.0,0.0,0.0,0.0,0.0,0.0,0.0,0.0,0.0,0.0,-5.071,-4.8901,-4.7554,-4.6892,-4.7314,-4.6874,-4.6782,-4.7204,-4.7149,-4.7295,-4.7699,-4.8084,-4.8286,-4.8286,-4.8286,-4.8286,-4.8286,-4.8286,-4.8286,-4.8286,-4.8286,-4.8286,-4.8286,-4.8286,-4.8341,-4.8432,-4.8689,-4.8836,-4.9001,-4.9735,-5.0065,-5.0193,-5.2929,-5.2959,-5.3081,-5.3293,-5.3375,-5.3326,-5.3032,-5.2573,-5.1994,-5.1465,-5.1393,-5.1393,-5.1393,-5.1032,-5.0792,-5.0792,-5.1177,-5.1369,-5.1321,-5.1297,-5.1297,-5.1297,-5.0912,-5.0431,-4.9878,-4.9878,-4.9373,-4.8387,-4.8844,-4.9373,-4.9974,-5.0479,-5.1273,-5.2283,-5.2283,0.0,0.0,0.0,-5.3908,0.0,-5.4652,-5.5747,0.0,-5.5496,-5.5614,-5.6369,-5.5537,-5.4852,-5.4577,0.0,-5.4852,-5.4485,-5.4967,-5.476,-5.4255,-5.3819,-5.3268,-5.2717,-5.2235,-5.1362,-5.0765,-5.1293,-5.1431,-5.1569,-5.2143,0.0,-5.2992,-5.2992,0.0,0.0,0.0,0.0,0.0,0.0,0.0,0.0,0.0,0.0,0.0,0.0,0.0,0.0,0.0,0.0,0.0,-4.9277,-4.8249,-4.7736,-4.8121,-4.7442,-4.7222,-4.7607,-4.7295,-4.7295,-4.7699,-4.8084,-4.8286,-4.8286,-4.8286,-4.8286,-4.8286,-4.8286,-4.8286,-4.8286,-4.8286,-4.8286,-4.8286,-4.8286,-4.8506,-4.8799,-4.8487,-4.8579,-4.8964,-4.9404,-4.9808,-5.0193,-5.3153,-5.2858,-5.2949,-5.3423,-5.3424,-5.3299,-5.3151,-5.262,-5.2211,-5.197,-5.2211,-5.2283,-5.197,-5.2018,-5.1826,-5.1225,-5.1369,-5.1489,-5.1489,-5.1489,-5.1489,-5.1489,-5.1273,-5.0744,-4.9948,-4.9878,-4.9349,-4.8291,-4.8507,-4.8892,-4.9421,-4.9662,-5.0503,-5.1826,-5.2139,0.0,-5.304,0.0,-5.453,0.0,0.0,0.0,0.0,-5.5287,-5.5113,-5.5699,-5.5026,-5.4806,-5.4852,0.0,-5.4806,0.0,0.0,-5.4577,-5.4714,-5.3934,-5.3727,-5.3658,-5.3199,-5.274,-5.2395,-5.2304,-5.2074,-5.1913,-5.2143,-5.2097,-5.212,-5.2418,0.0,0.0,0.0,0.0,0.0,0.0,0.0,0.0,0.0,0.0,0.0,0.0,0.0,0.0,0.0,0.0,0.0,0.0,0.0,-4.7534,-4.7919,-4.7406,-4.7185,-4.7351,-4.6947,-4.6947,-4.7351,-4.7736,-4.8066,-4.8286,-4.8286,-4.8286,-4.8286,-4.8286,-4.8286,-4.8286,-4.8286,-4.8286,-4.8304,-4.8543,-4.8763,-4.8928,-4.8964,-4.9258,-4.9661,-5.0065,-5.0321,-5.0486,-5.3573,-5.3192,-5.3176,-5.3571,-5.3469,-5.3221,-5.3101,-5.286,-5.2596,-5.2331,-5.262,-5.2644,-5.2115,-5.2283,-5.2163,-5.1537,-5.1489,-5.161,-5.1898,-5.1778,-5.1778,-5.1922,-5.1658,-5.1056,-5.0119,-4.995,-4.9349,-4.8291,-4.8291,-4.8555,-4.9084,-4.9084,-5.0022,-5.173,-5.2259,-5.2638,-5.2934,0.0,-5.4586,-5.4878,-5.5165,-5.5894,-5.6548,-5.5241,-5.4822,-5.4967,-5.4714,-5.4783,-5.4944,-5.4714,-5.4783,0.0,-5.4301,-5.4416,-5.4646,0.0,0.0,0.0,-5.375,-5.3589,-5.3406,-5.3176,-5.274,-5.2372,-5.2372,-5.1982,-5.173,-5.2097,-5.2189,0.0,0.0,0.0,0.0,0.0,0.0,0.0,0.0,0.0,0.0,0.0,0.0,0.0,0.0,0.0,0.0,0.0,0.0,0.0,-4.7681,-4.7424,-4.7259,-4.7259,-4.6874,-4.68,-4.7112,-4.7497,-4.7846,-4.8121,-4.8231,-4.8286,-4.8286,-4.8286,-4.8286,-4.8286,-4.8286,-4.8286,-4.8322,-4.8744,-4.8983,-4.9111,-4.9514,-4.9936,-5.0321,-5.0486,-5.0633,-5.0725,-5.4228,-5.418,-5.4034,-5.3643,-5.3685,-5.363,-5.3149,-5.3461,-5.3413,0.0,0.0,-5.2115,-5.1586,-5.1081,-5.096,-5.1441,-5.1489,-5.1922,-5.2956,-5.2548,-5.2475,-5.3004,-5.2043,-5.1249,-5.0696,-5.0143,-4.9349,-4.8291,-4.8291,-4.8555,0.0,-4.9084,-5.0215,-5.2283,-5.2812,-5.3381,-5.3956,-5.4004,-5.3565,-5.2985,-5.3929,-5.4731,-5.5288,0.0,-5.5265,-5.4508,-5.5013,0.0,0.0,-5.5013,-5.4852,0.0,0.0,0.0,0.0,0.0,0.0,0.0,0.0,0.0,0.0,-5.3543,-5.3268,-5.2878,-5.2878,-5.2487,-5.2166,-5.2189,-5.2189,-5.2189,-5.2189,-5.2579,-5.2901,-5.2901,0.0,0.0,0.0,0.0,0.0,0.0,0.0,0.0,0.0,0.0,0.0,0.0,0.0,0.0,-4.7681,-4.7681,-4.7681,-4.7681,-4.7295,-4.7094,-4.7112,-4.7497,-4.7699,-4.7717,-4.8102,-4.8286,-4.8286,-4.8286,-4.8286,-4.8286,-4.8286,-4.8286,-4.8322,-4.8744,-4.9129,-4.9514,-4.9955,-5.0358,-5.0651,-5.0285,-5.0395,-5.0725,-5.4795,-5.4524,-5.4228,-5.3782,-5.3777,-5.375,-5.3606,-5.3702,0.0,0.0,-5.2812,0.0,0.0,-5.1345,-5.1153,-5.0984,-5.096,-5.1273,-5.197,-5.2187,-5.2355,-5.2548,-5.2548,-5.2115,-5.1249,-5.1032,-5.0407,-4.9325,-4.8988,-4.9084,0.0,-4.9253,-5.0046,-5.1802,-5.2373,-5.2573,0.0,0.0,0.0,0.0,0.0,-5.568,-5.6092,0.0,0.0,-5.4439,-5.4623,-5.4554,0.0,-5.4623,-5.4806,-5.4852,-5.437,-5.4439,-5.4577,-5.3888,-5.3566,-5.3452,0.0,0.0,-5.3015,-5.3566,0.0,0.0,-5.2832,-5.2533,-5.2189,-5.2189,-5.2441,-5.2556,-5.2235,-5.2304,-5.2304,-5.1982,-5.2212,0.0,0.0,0.0,0.0,0.0,0.0,0.0,0.0,0.0,0.0,0.0,0.0,0.0,0.0,-4.7314,-4.7424,-4.7681,-4.7039,-4.6819,-4.7112,-4.6965,-4.7039,-4.7314,-4.7974,-4.8286,-4.8286,-4.8579,-4.8708,-4.8689,-4.8414,-4.8286,-4.8322,-4.8744,-4.9148,-4.9551,-4.9973,-5.0376,-5.0706,-5.0578,-5.0615,-5.0725,-5.5115,-5.4645,-5.4248,-5.3897,-5.3822,-5.3822,-5.3822,0.0,0.0,0.0,-5.262,0.0,-5.1297,0.0,-5.1081,-5.0744,-5.0696,-5.1008,-5.173,-5.2091,-5.2451,-5.2812,-5.298,-5.2764,-5.2067,-5.1682,-5.1056,-5.0167,-4.9638,-4.9421,0.0,0.0,-5.0049,-5.1321,0.0,-5.2344,-5.1962,0.0,-5.3598,0.0,0.0,-5.5652,0.0,0.0,-5.4921,-5.5174,0.0,-5.4691,-5.4668,-5.4485,-5.4646,-5.4806,-5.4163,-5.4278,-5.4531,-5.3888,-5.3566,-5.3452,-5.3635,-5.3314,0.0,-5.3566,-5.3061,0.0,-5.3061,0.0,-5.2487,-5.2671,-5.2809,-5.2809,-5.2487,-5.2441,0.0,0.0,-5.1959,0.0,0.0,0.0,0.0,0.0,0.0,0.0,0.0,0.0,0.0,0.0,0.0,0.0,0.0,0.0,-4.7424,-4.7681,-4.7185,-4.7039,-4.7314,-4.691,-4.6837,-4.7112,-4.7901,-4.8286,-4.8304,-4.8726,-4.8909,-4.8891,-4.8469,-4.8286,-4.8322,-4.8744,-4.9056,-4.9349,-4.9918,-5.0285,-5.0523,-5.067,-5.0725,-5.0725,-5.5041,-5.4645,-5.4272,-5.3897,-5.3822,0.0,0.0,0.0,-5.2884,0.0,-5.1826,-5.1297,-5.0792,-5.0744,-5.0744,-5.0792,-5.0792,-5.1201,-5.2211,-5.2307,-5.2764,-5.3726,-5.3341,-5.3101,-5.3077,-5.2091,-5.1297,-5.0744,-5.0191,0.0,0.0,0.0,0.0,-5.0912,-5.2407,0.0,-5.2047,-5.3092,-5.332,-5.3015,-5.4026,-5.4783,-5.5311,-5.5265,-5.5862,-5.6574,-5.5564,-5.522,-5.5128,-5.4623,-5.4439,-5.4439,-5.4439,-5.4117,-5.3727,-5.3727,-5.336,-5.3038,-5.3566,-5.3314,-5.3015,-5.3566,-5.3268,0.0,0.0,0.0,-5.3015,0.0,-5.3245,-5.2924,-5.2901,-5.2924,0.0,0.0,0.0,0.0,0.0,0.0,0.0,0.0,0.0,0.0,0.0,0.0,0.0,0.0,0.0,0.0,0.0,0.0,0.0,-4.7699,-4.7699,-4.7699,-4.7699,-4.7277,-4.7094,-4.7112,-4.7901,-4.8286,-4.8322,-4.8744,-4.8946,-4.8928,-4.8469,-4.8286,-4.8322,-4.8726,-4.8909,-4.9019,-4.979,-5.012,-5.0211,-5.0578,-5.0725,-5.0725,-5.4645,-5.4272,-5.3897,0.0,-5.3822,-5.3822,0.0,0.0,0.0,0.0,-5.1826,-5.1441,-5.1297,-5.1297,-5.1441,-5.1826,-5.1874,-5.1994,-5.2259,-5.2644,-5.298,-5.3245,-5.3485,-5.3461,-5.3077,-5.2812,-5.2211,-5.1297,-5.0744,0.0,-4.9662,0.0,0.0,0.0,0.0,0.0,-5.1559,-5.264,-5.321,-5.3543,-5.4163,-5.5403,0.0,0.0,-5.6391,-5.7102,-5.5702,-5.522,-5.5197,-5.5059,-5.5013,-5.5013,-5.5013,-5.4646,-5.4232,-5.4232,-5.3888,-5.352,-5.3658,-5.3314,-5.3015,-5.3566,-5.3015,-5.2487,0.0,0.0,0.0,0.0,0.0,0.0,-5.2969,0.0,0.0,0.0,0.0,0.0,0.0,0.0,0.0,0.0,0.0,0.0,0.0,0.0,0.0,0.0,0.0,0.0,0.0,0.0,0.0,-4.7681,-4.7699,-4.7699,-4.7699,-4.7002,-4.68,-4.7112,-4.7901,-4.8451,-4.8763,-4.9166,-4.9349,-4.9313,-4.8598,-4.8286,-4.8286,-4.8396,-4.8799,-4.9368,-4.9588,-5.0028,-5.0578,-5.0688,-5.0725,-5.0725,-5.4397,-5.4122,-5.3822,-5.3822,0.0,0.0,-5.3485,-5.3245,0.0,-5.2668,-5.2163,0.0,-5.2163,-5.197,-5.1946,-5.2259,-5.2283,-5.2379,-5.262,-5.3101,-5.3389,-5.3389,-5.3894,-5.3918,-5.3413,-5.3389,-5.2884,-5.1826,-5.1537,0.0,-4.9517,0.0,0.0,0.0,0.0,-5.1569,0.0,-5.3003,-5.3612,-5.375,-5.4485,0.0,0.0,-5.5839,-5.5977,-5.6368,-5.5518,-5.522,-5.5174,-5.4944,-5.4852,-5.4852,-5.4852,-5.4646,-5.4416,-5.4416,-5.4209,-5.4003,-5.4003,-5.3635,-5.3314,-5.3612,-5.3084,-5.2625,-5.313,-5.3038,-5.2832,0.0,-5.3291,-5.352,0.0,0.0,0.0,0.0,0.0,0.0,0.0,0.0,0.0,0.0,0.0,0.0,0.0,0.0,0.0,0.0,0.0,0.0,0.0,0.0,0.0,-4.7424,-4.7442,-4.7607,-4.7956,-4.7149,-4.6947,-4.7369,-4.8176,-4.8579,-4.8653,-4.9239,-4.9404,-4.9203,-4.8561,-4.8286,-4.8286,-4.8286,-4.8561,-4.9001,-4.9368,-4.9991,-5.0725,-5.0725,-5.0725,-5.0725,-5.4322,-5.4047,-5.3822,0.0,0.0,0.0,0.0,-5.3152,0.0,-5.2956,0.0,-5.2475,-5.3004,-5.2668,-5.2403,-5.2475,-5.2548,-5.2788,-5.3245,-5.375,-5.4015,-5.4015,-5.4399,-5.4475,-5.4219,-5.4146,-5.3663,-5.2841,-5.2696,0.0,0.0,0.0,0.0,0.0,0.0,0.0,0.0,-5.3727,-5.4026,-5.3681,-5.4783,-5.5243,-5.5311,-5.538,-5.5357,-5.5311,-5.5311,-5.5265,-5.5151,-5.4668,-5.4508,-5.4508,-5.4508,-5.4462,-5.4416,-5.4416,-5.4416,-5.4416,-5.4416,-5.4094,-5.3796,-5.3796,-5.3383,-5.313,-5.3589,-5.3635,-5.3589,-5.3589,-5.3589,-5.3452,0.0,0.0,0.0,0.0,0.0,0.0,0.0,0.0,0.0,0.0,0.0,0.0,0.0,0.0,0.0,0.0,0.0,0.0,0.0,0.0,0.0,0.0,-4.7112,0.0,-4.8121,0.0,-4.7351,-4.7699,-4.8524,-4.8726,-4.8396,-4.9148,-4.9294,-4.8891,-4.8469,-4.8286,-4.8286,-4.8286,-4.8341,-4.8524,-4.9276,-5.0046,-5.0725,-5.0725,-5.0725,-5.0706,-5.3972,-5.3822,-5.3822,0.0,0.0,-5.5405,-5.4957,-5.3521,-5.2427,-5.2427,-5.2331,-5.2475,-5.3004,-5.298,-5.3101,-5.351,-5.3942,0.0,0.0,0.0,-5.5121,-5.5121,-5.4784,-5.5151,-5.6352,-5.5928,-5.5605,-5.5405,-5.4555,-5.3623,0.0,0.0,0.0,0.0,0.0,0.0,-5.2809,-5.352,0.0,-5.3153,-5.4623,-5.5449,-5.5862,-5.6276,-5.6161,-5.5794,-5.5794,-5.5541,-5.5197,-5.5105,-5.5082,-5.5082,-5.5082,-5.476,-5.4416,-5.4416,-5.4416,-5.4416,-5.4416,-5.4347,-5.4278,-5.4278,-5.3911,-5.3566,-5.3681,-5.336,-5.3038,-5.3038,-5.3038,-5.3015,-5.2901,0.0,0.0,0.0,0.0,0.0,0.0,0.0,0.0,0.0,0.0,0.0,0.0,0.0,0.0,0.0,0.0,0.0,0.0,0.0,0.0,0.0,0.0,0.0,0.0,0.0,-4.7626,-4.7699,-4.8524,-4.8873,-4.8818,-4.9294,-4.9294,-4.8891,-4.8469,-4.8286,-4.8286,-4.8286,-4.8689,-4.9331,-4.9826,-5.0303,-5.0725,-5.0725,-5.0725,-5.067,-5.464,0.0,-5.4772,-5.5285,0.0,0.0,0.0,-5.568,-5.5131,-5.5433,-5.4762,-5.4767,-5.6093,-5.5334,-5.5163,-5.6543,-5.6919,-5.717,-5.7472,-5.8001,-5.8177,-5.79,-5.79,-5.8021,-5.817,-5.817,-5.7888,-5.7323,-5.7112,-5.6406,-5.521,0.0,0.0,0.0,0.0,-5.3662,0.0,0.0,0.0,-5.3406,-5.4393,-5.5243,-5.5931,-5.5931,-5.5931,-5.5885,-5.5656,-5.522,-5.4806,-5.4806,-5.4806,-5.4806,-5.4806,-5.4623,-5.4416,-5.4416,-5.4416,-5.4416,-5.4416,-5.4416,-5.4416,-5.4416,-5.4232,-5.4072,-5.4072,-5.3865,-5.3612,-5.336,-5.3314,-5.3222,-5.2946,-5.3543,0.0,0.0,0.0,0.0,0.0,0.0,-5.4317,0.0,0.0,0.0,0.0,0.0,0.0,0.0,0.0,0.0,0.0,0.0,0.0,0.0,0.0,0.0,0.0,0.0,0.0,-4.8011,-4.8836,-4.9001,-4.8616,-4.9221,-4.9166,-4.8579,-4.8377,-4.8286,-4.8286,-4.8286,-4.8634,-4.9221,-4.9423,-4.9881,-5.0395,-5.0175,-5.023,-5.0395,-5.5703,-5.5755,0.0,0.0,-5.7124,0.0,-5.8114,-5.8546,-5.8583,-5.8271,-5.7246,-5.7189,-5.885,-5.7682,-5.7465,-5.9176,-5.9509,-5.985,-6.0367,-6.087,-6.0975,-6.053,-6.0818,-6.0676,-5.994,-6.023,-5.9966,-5.9114,-5.9457,0.0,0.0,0.0,0.0,0.0,0.0,0.0,0.0,0.0,-5.3704,-5.375,-5.4347,-5.5128,-5.5885,-5.5495,-5.561,-5.5862,-5.538,-5.4875,-5.4416,-5.4416,-5.4416,-5.4416,-5.4416,-5.4416,-5.4416,-5.4416,-5.4416,-5.4416,-5.4416,-5.4416,-5.4416,-5.4416,-5.4416,-5.4416,-5.4416,-5.4416,-5.4301,-5.3934,-5.3773,-5.3566,-5.3153,-5.3727,0.0,0.0,0.0,0.0,0.0,0.0,0.0,0.0,0.0,0.0,0.0,0.0,0.0,0.0,0.0,0.0,0.0,0.0,0.0,0.0,0.0,-4.647,-4.7424,0.0,-4.7937,-4.8157,-4.8983,-4.9001,-4.8304,-4.9038,-4.8983,-4.8286,-4.8286,-4.8286,-4.8286,-4.8286,-4.8524,-4.8909,-4.8909,-4.9349,-4.9955,-4.9624,-4.9716,-4.9991,0.0,0.0,0.0,0.0,0.0,0.0,-6.0333,-6.1476,-6.1244,-5.8078,-5.7982,-5.825,-5.8444,-5.8791,-5.9078,-5.93,-6.0242,-6.087,-6.0923,-6.1446,-6.1685,-6.1633,-6.1237,-6.1371,-6.2074,-6.1658,-6.136,-6.1129,-6.0835,-5.9559,0.0,0.0,0.0,0.0,0.0,0.0,0.0,-5.3978,-5.3704,-5.3773,-5.4737,-5.5449,-5.5931,-5.5885,-5.5885,-5.5862,-5.538,-5.4875,-5.4416,-5.4416,-5.4416,-5.4416,-5.4416,-5.4416,-5.4416,-5.4416,-5.4416,-5.4416,-5.4416,-5.4416,-5.4416,-5.4416,-5.4416,-5.4416,-5.4416,-5.4416,-5.4393,-5.4347,-5.4003,-5.3681,-5.3635,-5.3704,-5.4026,0.0,0.0,0.0,0.0,0.0,-5.3922,-5.4239,0.0,0.0,0.0,0.0,0.0,0.0,0.0,0.0,0.0,0.0,0.0,0.0,0.0,-4.647,-4.658,-4.7681,-4.8066,-4.7754,-4.8579,-4.8726,-4.8304,-4.8763,-4.8726,-4.8286,-4.8286,-4.8286,-4.8286,-4.8286,-4.8524,-4.8909,-4.8909,-4.9184,-4.9551,-4.9514,-4.9533,-4.9514,0.0,0.0,0.0,0.0,0.0,0.0,0.0,-6.2487,-6.2403,-6.0959,-6.0141,-6.007,-6.1016,-6.0816,-6.1188,-6.2477,-6.334,-6.3969,-6.4324,-6.4571,-6.4707,-6.4707,-6.4488,-6.4198,-6.3847,-6.3639,-6.3265,0.0,-6.3084,-6.2508,-6.1219,0.0,0.0,0.0,0.0,-5.6574,-5.5162,-5.4901,-5.4381,-5.3773,-5.4806,-5.5334,-5.5518,-5.5817,-5.5748,-5.5472,-5.5288,-5.4875,-5.4416,-5.4416,-5.4416,-5.4416,-5.4416,-5.4416,-5.4416,-5.4416,-5.4416,-5.4416,-5.4416,-5.4416,-5.4416,-5.4416,-5.4416,-5.4416,-5.4416,-5.4416,-5.4416,-5.4416,-5.4255,-5.4026,-5.375,-5.4186,-5.4439,-5.3911,0.0,0.0,0.0,0.0,0.0,-5.3231,0.0,-5.0905,0.0,0.0,0.0,0.0,0.0,0.0,0.0,0.0,0.0,-4.4655,0.0,-4.636,-4.6855,-4.7809,-4.8212,-4.8047,-4.8634,-4.8689,-4.8304,-4.8726,-4.8689,-4.8286,-4.8286,-4.8286,-4.8286,-4.8286,-4.8377,-4.8543,-4.8543,-4.8781,-4.9111,-4.8873,-4.8928,-4.9093,-6.0342,0.0,-6.0678,0.0,-6.1822,-6.2054,-6.2771,-6.2942,-6.2942,-6.2942,-6.2129,-6.1887,-6.2809,-6.2711,-6.3142,-6.4644,-6.5471,-6.6145,-6.6567,-6.6595,-6.6595,-6.6595,-6.6595,0.0,-6.505,-6.4921,-6.4431,-6.3785,-6.4263,-6.3756,-6.2246,-6.1708,-6.0331,0.0,-5.8496,-5.7472,-5.5782,-5.5469,-5.4883,-5.4186,-5.4737,-5.5151,-5.5426,-5.5472,-5.5357,-5.5197,-5.5036,-5.4737,-5.4416,-5.4416,-5.4416,-5.4416,-5.4416,-5.4416,-5.4416,-5.4416,-5.4416,-5.4416,-5.4416,-5.4416,-5.4416,-5.4416,-5.4416,-5.4416,-5.4416,-5.4416,-5.4416,-5.4416,-5.4416,-5.4301,-5.398,-5.4485,-5.4668,-5.3727,0.0,0.0,0.0,-5.4714,0.0,0.0,-5.2039,-5.0634,-4.9435,0.0,0.0,0.0,0.0,0.0,0.0,0.0,0.0,0.0,0.0,0.0,0.0,-4.7956,-4.8286,-4.8286,-4.8579,-4.8579,-4.8286,-4.8598,-4.8561,-4.8286,-4.8286,-4.8286,-4.8286,-4.8286,-4.8286,-4.8286,-4.8286,-4.8469,-4.8689,-4.8396,-4.8469,-4.8689,-6.1205,-6.1376,-6.1698,-6.2693,-6.2876,-6.2876,-6.2942,-6.2942,-6.2942,-6.2942,-6.342,-6.356,-6.2998,-6.401,-6.474,-6.4837,-6.5892,-6.6595,-6.6595,-6.6595,-6.6595,0.0,0.0,-6.6286,-6.5668,-6.5078,-6.4431,-6.3785,0.0,0.0,-5.9073,-5.8779,-5.856,-5.8504,-5.8507,-5.7725,-5.6385,-5.5231,-5.4897,-5.5151,-5.4623,-5.5013,-5.5817,-5.4806,-5.476,-5.5151,-5.46,-5.4416,-5.4416,-5.4416,-5.4416,-5.4416,-5.4416,-5.4416,-5.4416,-5.4416,-5.4416,-5.4416,-5.4416,-5.4416,-5.4416,-5.4416,-5.4416,-5.4416,-5.4416,-5.4416,-5.4416,-5.4416,-5.4416,-5.4416,-5.4393,-5.4416,-5.4577,-5.5105,0.0,0.0,0.0,-5.4347,0.0,-5.5664,-5.5824,-5.4427,-5.0827,0.0,0.0,0.0,0.0,0.0,0.0,0.0,0.0,-4.5278,-4.6067,0.0,-4.7681,-4.8084,-4.8286,-4.8286,-4.8286,-4.8286,-4.8286,-4.8286,-4.8286,-4.8286,-4.8286,-4.8286,-4.8286,-4.8286,-4.8286,-4.8286,-4.8286,-4.8286,-4.8286,-4.8286,-4.8286,-4.8286,-6.2391,-6.243,-6.2509,-6.2809,-6.2942,-6.2942,-6.2942,-6.2942,-6.3083,-6.3476,-6.3673,-6.3897,-6.415,-6.4909,-6.5387,0.0,-6.6117,-6.6595,0.0,-6.6595,-6.6595,-6.6595,-6.6595,-6.6314,-6.5696,-6.5471,-6.4853,-6.3785,0.0,0.0,0.0,-5.9685,-5.9129,-5.9124,-5.9518,-5.8677,-5.7078,-5.7058,-5.612,-5.4774,-5.5812,-5.5719,-5.498,-5.5882,-5.5626,-5.4646,-5.4462,-5.4416,-5.4416,-5.4416,-5.4416,-5.4416,-5.4416,-5.4416,-5.4416,-5.4416,-5.4416,-5.4416,-5.4416,-5.4416,-5.4416,-5.4416,-5.4416,-5.4416,-5.4416,-5.4416,-5.4416,-5.4416,-5.4416,-5.4416,-5.4416,-5.4416,-5.4462,-5.4646,-5.4393,0.0,-5.4623,0.0,-5.372,-5.2658,-5.1471,-4.9765,0.0,-4.5764,0.0,0.0,0.0,0.0,0.0,0.0,0.0,0.0,-4.6067,0.0,-4.7681,-4.8084,-4.8286,-4.8286,-4.8286,-4.8286,-4.8286,-4.8286,-4.8286,-4.8286,-4.8286,-4.8286,-4.8286,-4.8286,-4.8286,-4.8286,-4.8286,-4.8286,-4.8286,-4.8286,-4.8286,-4.8286,-6.2942,-6.2942,-6.2942,-6.2942,-6.2942,-6.2942,-6.2942,-6.2942,-6.3054,-6.342,-6.3869,-6.4319,-6.478,-6.5527,0.0,-6.5696,-6.623,-6.6595,-6.6595,-6.6595,-6.6595,-6.6595,-6.6595,-6.6398,-6.6033,-6.5808,0.0,-6.4488,-6.4109,-6.3072,-6.1431,-6.0249,-5.9699,-5.9699,-6.0065,-5.9078,-5.7323,-5.7667,-5.6638,-5.4797,-5.5707,-5.5544,-5.4797,-5.5707,-5.5405,-5.4416,-5.4416,-5.4416,-5.4416,-5.4416,-5.4416,-5.4416,-5.4416,-5.4416,-5.4416,-5.4416,-5.4416,-5.4416,-5.4416,-5.4416,-5.4416,-5.4416,-5.4416,-5.4416,-5.4416,-5.4416,-5.4416,-5.4416,-5.4416,-5.4416,-5.4416,-5.4416,-5.4485,-5.4691,-5.4531,-5.4485,-5.4691,0.0,-5.2973,0.0,0.0,0.0,0.0,-4.5113,-4.4221,0.0,0.0,0.0,0.0,0.0,0.0,-4.5278,-4.6213,0.0,-4.7681,-4.8084,-4.8286,-4.8286,-4.8286,-4.8286,-4.8286,-4.8286,-4.8286,-4.8286,-4.8286,-4.8286,-4.8286,-4.8286,-4.8286,-4.8286,-4.8286,-4.8286,-4.8286,-4.8286,-4.8286,-4.8286,-6.2942,-6.2942,-6.2942,0.0,-6.2942,0.0,-6.2942,-6.2942,-6.297,-6.3054,-6.4038,-6.4865,-6.4949,-6.5921,-6.637,-6.578,0.0,0.0,0.0,-6.6595,-6.6595,-6.6595,-6.6595,-6.6595,-6.6595,-6.6033,-6.5724,-6.5598,-6.3496,-6.2067,-6.1255,-6.0559,-6.0248,-6.0274,-6.0274,-5.9154,-5.7348,-5.7348,-5.6463,-5.5105,-5.4682,-5.4797,-5.5105,-5.4682,-5.4498,-5.4416,-5.4416,-5.4416,-5.4416,-5.4416,-5.4416,-5.4416,-5.4416,-5.4416,-5.4416,-5.4416,-5.4416,-5.4416,-5.4416,-5.4416,-5.4416,-5.4416,-5.4416,-5.4416,-5.4416,-5.4416,-5.4416,-5.4416,-5.4416,-5.4416,-5.4416,-5.4416,-5.4577,-5.5128,-5.476,-5.4518,-5.4962,-5.312,-5.1947,0.0,0.0,0.0,0.0,-4.7383,-4.6268,0.0,0.0,0.0,0.0,0.0,-4.5278,-4.5333,-4.6489,-4.7314,-4.7736,-4.8102,-4.8286,-4.8286,-4.8286,-4.8286,-4.8286,-4.8286,-4.8286,-4.8286,-4.8286,-4.8286,-4.8286,-4.8286,-4.8286,-4.8286,-4.8286,-4.8286,-4.8286,-4.8286,-4.8286,-4.8286,0.0,0.0,-6.2942,-6.2942,-6.2942,-6.2942,-6.2942,-6.2942,-6.3251,-6.4207,-6.4572,-6.5106,-6.6061,-6.6426,-6.6539,-6.6398,-6.6511,-6.6595,-6.6595,-6.6595,-6.6595,-6.6595,-6.6595,-6.6595,-6.6595,-6.6454,-6.5866,-6.4762,-6.3285,-6.2067,-6.1255,-6.0559,-6.0457,-6.0901,-6.0901,-5.9843,-5.8015,-5.8015,-5.6662,-5.4659,-5.5496,-5.5357,-5.4659,-5.5577,-5.5287,-5.4416,-5.4416,-5.4416,-5.4416,-5.4416,-5.4416,-5.4416,-5.4416,-5.4416,-5.4416,-5.4416,-5.4416,-5.4416,-5.4416,-5.4416,-5.4416,-5.4416,-5.4416,-5.4416,-5.4416,-5.4416,-5.4416,-5.4416,-5.4416,-5.4416,-5.4416,-5.4416,-5.4577,-5.5128,-5.476,-5.4084,-5.3202,-5.2239,-5.0867,0.0,-4.7666,-4.6641,-4.5063,-4.4431,-4.3978,0.0,0.0,0.0,0.0,-4.4508,-4.5095,-4.5737,-4.6635,-4.7442,-4.8139,-4.8231,-4.8286,-4.8286,-4.8286,-4.8286,-4.8286,-4.8286,-4.8286,-4.8286,-4.8286,-4.8286,-4.8286,-4.8286,-4.8286,-4.8286,-4.8286,-4.8286,-4.8286,-4.8286,-4.8286,-4.8286,-6.2942,-6.2942,-6.2942,-6.2942,-6.2942,-6.2942,-6.2942,-6.2942,-6.3251,-6.4207,-6.4572,-6.5106,-6.6061,-6.6426,-6.6595,-6.6595,-6.6595,-6.6595,-6.6595,-6.6595,-6.6595,-6.6595,-6.6595,-6.6595,-6.6595,-6.6595,-6.5864,-6.4396,-6.3711,-6.2732,-6.1595,-6.1227,-6.1189,-6.1502,-6.0878,-5.9718,-5.8134,-5.7582,-5.623,-5.4498,-5.5125,-5.5044,-5.4498,-5.5206,-5.4963,-5.4416,-5.4416,-5.4416,-5.4416,-5.4416,-5.4416,-5.4416,-5.4416,-5.4416,-5.4416,-5.4416,-5.4416,-5.4416,-5.4416,-5.4416,-5.4416,-5.4416,-5.4416,-5.4416,-5.4416,-5.4416,-5.4416,-5.4416,-5.4416,-5.4416,-5.4416,-5.4623,-5.4944,-5.5449,-5.5288,-5.46,-5.3249,-5.1938,-5.0092,-4.7376,-4.6152,-4.522,-4.4416,-4.3958,-4.3866,-4.4325,-4.3995,0.0,-4.4068,-4.4453,-4.4875,-4.5315,-4.6305,-4.7112,-4.7736,-4.8102,-4.8286,-4.8286,-4.8286,-4.8286,-4.8286,-4.8286,-4.8286,-4.8286,-4.8286,-4.8286,-4.8286,-4.8286,-4.8286,-4.8286,-4.8286,-4.8286,-4.8286,-4.8286,-4.8286,-4.8286,-6.2942,-6.2942,-6.2942,-6.2942,-6.2942,-6.297,-6.3054,-6.3054,-6.3307,-6.3982,-6.4544,-6.5134,-6.5752,-6.6286,-6.6595,-6.6595,-6.6595,-6.6595,-6.6595,-6.6595,-6.6595,-6.6595,-6.6595,-6.6595,-6.6595,-6.6455,-6.572,-6.431,-6.4165,-6.3359,-6.1973,-6.1973,-6.1973,-6.1973,-6.0863,-5.9612,-5.8134,-5.7028,-5.5748,-5.4416,-5.4416,-5.4416,-5.4416,-5.4416,-5.4416,-5.4416,-5.4416,-5.4416,-5.4416,-5.4416,-5.4416,-5.4416,-5.4416,-5.4416,-5.4416,-5.4416,-5.4416,-5.4416,-5.4416,-5.4416,-5.4416,-5.4416,-5.4416,-5.4416,-5.4416,-5.4416,-5.4439,-5.4508,-5.4462,-5.4462,-5.4623,-5.4944,-5.5426,-5.6069,-5.5771,-5.4992,-5.367,-5.1425,-4.9174,-4.7308,-4.5678,-4.4691,-4.4765,-4.471,-4.4673,-4.4673,-4.4361,-4.4178,-4.4178,-4.449,-4.471,-4.4765,-4.5938,-4.68,-4.7277,-4.7956,-4.8286,-4.8286,-4.8286,-4.8286,-4.8286,-4.8286,-4.8286,-4.8286,-4.8286,-4.8286,-4.8286,-4.8286,-4.8286,-4.8286,-4.8286,-4.8286,-4.8286,-4.8286,-4.8286,-4.8286,-6.2942,-6.2942,-6.2942,-6.2942,-6.2942,-6.3083,-6.3588,-6.3673,-6.4066,-6.5246,-6.5471,-6.578,-6.637,-6.6539,-6.6595,-6.6595,-6.6595,-6.6595,-6.6595,-6.6595,-6.6595,-6.6595,-6.6595,-6.6595,-6.6595,-6.5933,-6.5121,-6.431,-6.3626,-6.2842,-6.1973,-6.1973,-6.1973,-6.1973,-6.1796,-6.0406,-5.8212,-5.7976,-5.655,-5.4416,-5.4416,-5.4416,-5.4416,-5.4416,-5.4416,-5.4416,-5.4416,-5.4416,-5.4416,-5.4416,-5.4416,-5.4416,-5.4416,-5.4416,-5.4416,-5.4416,-5.4416,-5.4416,-5.4416,-5.4416,-5.4416,-5.4416,-5.4416,-5.4416,-5.4416,-5.4416,-5.4531,-5.499,-5.4737,-5.4668,-5.5541,-5.5426,-5.5656,-5.701,-5.518,-5.317,-5.2245,-4.968,-4.7276,-4.5778,-4.5059,-4.482,-4.5168,-4.4875,-4.4673,-4.4673,-4.4618,-4.4581,-4.4581,-4.4636,-4.4838,-4.5187,-4.6379,-4.7351,-4.8102,-4.8231,-4.8286,-4.8286,-4.8286,-4.8286,-4.8286,-4.8286,-4.8286,-4.8286,-4.8286,-4.8286,-4.8286,-4.8286,-4.8286,-4.8286,-4.8286,-4.8286,-4.8286,-4.8286,-4.8286,-4.8286,-6.2942,-6.3167,-6.3392,-6.3392,-6.3673,-6.401,-6.4291,-6.4319,-6.4769,-6.6005,-6.6173,-6.6539,-6.7494,-6.7297,-6.7073,-6.7073,-6.6792,-6.6595,-6.6595,-6.6595,-6.6595,-6.6595,-6.6595,-6.6595,-6.6595,-6.5834,-6.505,-6.431,-6.348,-6.2693,-6.1973,-6.1973,-6.1973,-6.1973,-6.1268,-6.0304,-5.9148,-5.774,-5.647,-5.5368,-5.4638,-5.4416,-5.4416,-5.4416,-5.4416,-5.4416,-5.4416,-5.4416,-5.4416,-5.4416,-5.4416,-5.4416,-5.4416,-5.4416,-5.4416,-5.4416,-5.4416,-5.4416,-5.4416,-5.4416,-5.4416,-5.4416,-5.4416,-5.4416,-5.4416,-5.4416,-5.4554,-5.5105,-5.5013,-5.5059,-5.5794,-5.5977,-5.623,-5.6942,-5.528,-5.3427,-5.1986,-4.9693,-4.755,-4.587,-4.5443,-4.5407,-4.5608,-4.5443,-4.5407,-4.5627,-4.526,-4.5095,-4.5315,-4.5132,-4.5095,-4.5297,-4.647,-4.7387,-4.7956,-4.8176,-4.8286,-4.8286,-4.8286,-4.8286,-4.8286,-4.8286,-4.8286,-4.8286,-4.8286,-4.8286,-4.8286,-4.8286,-4.8286,-4.8286,-4.8286,-4.8286,-4.8286,-4.8286,-4.8286,-4.8322,-6.3364,-6.3701,-6.401,-6.401,-6.4431,-6.4893,-6.5034,-6.5034,-6.5415,-6.6651,-6.682,-6.7241,-6.8365,-6.7888,-6.7494,-6.7494,-6.696,-6.6595,-6.6595,-6.6595,-6.6595,-6.6595,-6.6595,-6.6595,-6.6595,-6.5649,-6.4861,-6.431,-6.3332,-6.2545,-6.1973,-6.1973,-6.1973,-6.1973,-6.0711,-6.0074,-5.992,-5.74,-5.631,-5.615,-5.4882,-5.4416,-5.4416,-5.4416,-5.4416,-5.4416,-5.4416,-5.4416,-5.4416,-5.4416,-5.4416,-5.4416,-5.4416,-5.4416,-5.4416,-5.4416,-5.4416,-5.4416,-5.4416,-5.4416,-5.4416,-5.4416,-5.4416,-5.4416,-5.4416,-5.4508,-5.4737,-5.5265,-5.538,-5.5564,-5.6184,-5.6505,-5.6673,-5.645,-5.5026,-5.3255,-5.145,-4.94,-4.7605,-4.6072,-4.5883,-4.5883,-4.5883,-4.5883,-4.6012,-4.6324,-4.5865,-4.5663,-4.5883,-4.57,-4.5535,-4.5443,-4.6525,-4.7351,-4.7827,-4.8139,-4.8286,-4.8286,-4.8286,-4.8286,-4.8286,-4.8286,-4.8286,-4.8286,-4.8286,-4.8286,-4.8286,-4.8286,-4.8286,-4.8286,-4.8286,-4.8286,-4.8286,-4.8286,-4.844,-4.8668,-6.4696,-6.4724,-6.4752,-6.4752,-6.4809,-6.5034,-6.5527,-6.5612,-6.6061,-6.7297,-6.7438,-6.7719,-6.8393,-6.7888,-6.7494,-6.7494,-6.696,-6.6595,-6.6595,-6.6595,-6.6595,-6.6595,-6.6595,-6.6595,-6.6595,-6.5149,-6.4383,-6.431,-6.2842,-6.2048,-6.1973,-6.1973,-6.1973,-6.1973,-6.0711,-6.0074,-5.992,-5.74,-5.631,-5.615,-5.4882,-5.4416,-5.4416,-5.4416,-5.4416,-5.4416,-5.4416,-5.4416,-5.4416,-5.4416,-5.4416,-5.4416,-5.4416,-5.4416,-5.4416,-5.4416,-5.4416,-5.4416,-5.4416,-5.4416,-5.4416,-5.4416,-5.4416,-5.4416,-5.4416,-5.4806,-5.5288,-5.5771,-5.5885,-5.6184,-5.7171,-5.6987,-5.645,-5.5556,-5.3468,-5.1379,-4.9855,-4.7572,-4.6072,-4.5883,-4.5883,-4.5883,-4.5883,-4.5883,-4.5902,-4.5938,-4.6213,-4.625,-4.5902,-4.6213,-4.6213,-4.5865,-4.6672,-4.7479,-4.8231,-4.8267,-4.8286,-4.8286,-4.8286,-4.8286,-4.8286,-4.8286,-4.8286,-4.8286,-4.8286,-4.8286,-4.8286,-4.8286,-4.8286,-4.8286,-4.8286,-4.8286,-4.8286,-4.8286,-4.8823,-4.9554,-6.4837,-6.5078,-6.5331,-6.5331,-6.564,-6.5977,-6.6202,-6.6258,-6.6707,-6.7944,-6.8112,-6.8478,-6.9489,-6.8702,-6.8112,-6.8112,-6.7185,-6.6595,-6.6595,-6.6595,-6.6595,-6.6595,-6.6595,-6.6595,-6.6595,-6.5104,-6.431,-6.431,-6.2768,-6.1973,-6.1973,-6.1973,-6.1973,-6.1973,-6.1495,-6.0863,-5.9997,-5.8187,-5.7028,-5.615,-5.4882,-5.4416,-5.4416,-5.4416,-5.4416,-5.4416,-5.4416,-5.4416,-5.4416,-5.4416,-5.4416,-5.4416,-5.4416,-5.4416,-5.4416,-5.4416,-5.4416,-5.4416,-5.4416,-5.4416,-5.4416,-5.4416,-5.4416,-5.4508,-5.4829,-5.5059,-5.5449,-5.623,-5.6391,-5.662,-5.7355,-5.7309,-5.666,-5.5137,-5.3051,-5.1116,-4.9262,-4.7252,-4.5883,-4.5883,-4.5883,-4.5883,-4.5883,-4.5883,-4.5993,-4.6232,-4.6397,-4.6525,-4.6635,-4.6544,-4.6415,-4.625,-4.68,-4.7259,-4.7552,-4.8029,-4.8286,-4.8286,-4.8286,-4.8286,-4.8286,-4.8286,-4.8286,-4.8286,-4.8286,-4.8286,-4.8267,-4.8029,-4.8066,-4.8267,-4.8011,-4.8066,-4.8286,-4.8286,-4.8642,-4.9228,-6.5331,-6.5668,-6.5949,-6.5949,-6.6314,-6.6595,-6.6595,-6.6595,-6.7045,-6.8309,-6.8478,-6.8955,-7.0164,-6.9208,-6.8478,-6.8478,-6.7326,-6.6595,-6.6595,-6.6595,-6.6595,-6.6595,-6.6595,-6.6455,-6.6215,-6.4933,-6.4165,-6.3946,-6.2619,-6.1973,-6.1973,-6.1973,-6.1973,-6.1973,-6.1571,-6.0939,-5.9997,-5.8266,-5.7107,-5.615,-5.4882,-5.4416,-5.4416,-5.4416,-5.4416,-5.4416,-5.4416,-5.4416,-5.4416,-5.4416,-5.4416,-5.4416,-5.4416,-5.4416,-5.4416,-5.4416,-5.4416,-5.4416,-5.4416,-5.4416,-5.4416,-5.4416,-5.4531,-5.476,-5.5128,-5.5449,-5.5862,-5.6551,-5.6804,-5.7033,-5.7424,-5.7015,-5.5926,-5.4034,-5.2048,-5.0145,-4.8162,-4.671,-4.5883,-4.5883,-4.5883,-4.5883,-4.5883,-4.5883,-4.5993,-4.6269,-4.6415,-4.6599,-4.6892,-4.6635,-4.6415,-4.6305,-4.6819,-4.7112,-4.7112,-4.7882,-4.8286,-4.8286,-4.8286,-4.8286,-4.8286,-4.8286,-4.8286,-4.8286,-4.8286,-4.8286,-4.8267,-4.7992,-4.8029,-4.8249,-4.7992,-4.8047,-4.8304,-4.8432,-4.8844,-4.9368,-6.6595,-6.6595,-6.6595,-6.6595,-6.6595,-6.6595,-6.6595,-6.6595,-6.7045,-6.8309,-6.8478,-6.8955,-7.0164,-6.9208,-6.8478,-6.8478,-6.7326,-6.6595,-6.6595,-6.6595,-6.6595,-6.6595,-6.6595,-6.6215,-6.5407,-6.4645,-6.3946,-6.3111,-6.2321,-6.1973,-6.1973,-6.1973,-6.1973,-6.1973,-6.0711,-6.0074,-5.992,-5.74,-5.631,-5.615,-5.4882,-5.4416,-5.4416,-5.4416,-5.4416,-5.4416,-5.4416,-5.4416,-5.4416,-5.4416,-5.4416,-5.4416,-5.4416,-5.4416,-5.4416,-5.4416,-5.4416,-5.4416,-5.4416,-5.4416,-5.4416,-5.4416,-5.4829,-5.522,-5.522,-5.5977,-5.6689,-5.6689,-5.7102,-5.747,-5.747,-5.5926,-5.3946,-5.1958,-5.0054,-4.8162,-4.6166,-4.5883,-4.5883,-4.5883,-4.5883,-4.5883,-4.5883,-4.5883,-4.5883,-4.5883,-4.625,-4.6489,-4.647,-4.6489,-4.6305,-4.5902,-4.6672,-4.7112,-4.7112,-4.7882,-4.8286,-4.8286,-4.8286,-4.8286,-4.8286,-4.8286,-4.8286,-4.8286,-4.8286,-4.8286,-4.8286,-4.8286,-4.8286,-4.8286,-4.8286,-4.8286,-4.8341,-4.8763,-4.9468,-5.028,-6.6595,-6.6595,-6.6595,-6.6595,-6.6595,-6.6595,-6.6595,-6.6595,-6.7045,-6.8309,-6.8478,-6.8955,-7.0164,-6.9208,-6.8478,-6.8478,-6.7326,-6.6595,-6.6595,-6.6595,-6.6595,-6.6595,-6.6595,-6.6215,-6.5407,-6.4645,-6.3946,-6.3111,-6.2321,-6.1973,-6.1973,-6.1973,-6.1973,-6.1973,-6.0711,-5.9612,-5.8681,-5.7028,-5.5748,-5.4963,-5.4579,-5.4416,-5.4416,-5.4416,-5.4416,-5.4416,-5.4416,-5.4416,-5.4416,-5.4416,-5.4416,-5.4416,-5.4416,-5.4416,-5.4416,-5.4416,-5.4416,-5.4485,-5.4875,-5.4967,-5.4967,-5.4967,-5.5105,-5.5403,-5.6092,-5.6459,-5.6781,-5.7171,-5.7378,-5.7124,-5.5751,-5.5027,-5.3501,-5.0236,-4.9157,-4.8162,-4.6166,-4.5883,-4.5883,-4.5883,-4.5883,-4.5883,-4.5883,-4.5883,-4.5883,-4.5883,-4.6525,-4.68,-4.6489,-4.6764,-4.6599,-4.5902,-4.6397,-4.68,-4.7112,-4.7882,-4.8286,-4.8286,-4.8286,-4.8286,-4.8286,-4.8286,-4.8286,-4.8286,-4.8286,-4.8286,-4.8267,-4.7992,-4.8029,-4.8249,-4.7974,-4.8212,-4.8708,-4.8543,-4.9193,-5.0086,-6.6595,-6.6595,-6.6595,-6.6595,-6.6595,-6.6595,-6.6595,-6.6792,-6.7326,-6.8337,-6.8702,-6.9208,-7.0192,-6.9208,-6.8478,-6.8478,-6.7326,-6.6595,-6.6595,-6.6595,-6.6455,-6.6145,-6.6145,-6.5791,-6.5005,-6.421,-6.3433,-6.2693,-6.2198,-6.1973,-6.1973,-6.1973,-6.1721,-6.1167,-6.0457,-5.9123,-5.7424,-5.663,-5.5611,-5.4416,-5.4416,-5.4416,-5.4416,-5.4416,-5.4416,-5.4416,-5.4416,-5.4416,-5.4416,-5.4416,-5.4416,-5.4416,-5.4416,-5.4416,-5.4416,-5.4416,-5.4554,-5.4806,-5.5128,-5.5357,-5.5541,-5.5748,-5.5794,-5.5954,-5.6551,-5.685,-5.7079,-5.7424,-5.6928,-5.6013,-5.4851,-5.3302,-5.1507,-4.9157,-4.8162,-4.7251,-4.6072,-4.5883,-4.5883,-4.5883,-4.5883,-4.5883,-4.5883,-4.5883,-4.5883,-4.5883,-4.6654,-4.6929,-4.6507,-4.6874,-4.68,-4.614,-4.636,-4.6599,-4.6855,-4.7497,-4.7974,-4.8286,-4.8121,-4.8047,-4.8047,-4.8047,-4.8047,-4.8047,-4.8047,-4.8139,-4.8267,-4.8029,-4.7974,-4.8047,-4.7956,-4.8139,-4.8432,-4.8506,-4.9001,-4.9606,-6.6595,-6.6595,-6.6595,-6.6595,-6.6595,-6.6595,-6.6595,-6.7101,-6.7747,-6.8393,-6.9011,-6.9602,-7.0164,-6.918,-6.845,-6.8393,-6.7297,-6.6595,-6.6595,-6.6595,-6.6286,-6.555,-6.5407,-6.5005,-6.431,-6.348,-6.2768,-6.1973,-6.1973,-6.1973,-6.1973,-6.1973,-6.1344,-6.0074,-5.9997,-5.8578,-5.631,-5.615,-5.5449,-5.4416,-5.4416,-5.4416,-5.4416,-5.4416,-5.4416,-5.4416,-5.4416,-5.4416,-5.4416,-5.4416,-5.4416,-5.4416,-5.4416,-5.4416,-5.4416,-5.4462,-5.4829,-5.5243,-5.5311,-5.5656,-5.6115,-5.662,-5.6758,-5.6758,-5.6758,-5.7125,-5.747,-5.747,-5.5926,-5.4587,-5.4388,-5.1326,-4.8697,-4.8604,-4.7065,-4.5883,-4.5883,-4.5883,-4.5883,-4.5883,-4.5883,-4.5883,-4.5883,-4.5883,-4.5883,-4.5883,-4.6617,-4.6874,-4.6452,-4.6819,-4.6855,-4.6434,-4.6434,-4.6434,-4.647,-4.6819,-4.7406,-4.8176,-4.7809,-4.7662,-4.7699,-4.7699,-4.7717,-4.7754,-4.7754,-4.7956,-4.8286,-4.8286,-4.8066,-4.7791,-4.8139,-4.8084,-4.7882,-4.8598,-4.8909,-4.9001,-6.6595,-6.6595,-6.6595,-6.6595,-6.6595,-6.6595,-6.6595,-6.7101,-6.7747,-6.8393,-6.9011,-6.9433,-6.9573,-6.8927,-6.8281,-6.7775,-6.7016,-6.6595,-6.6595,-6.6595,-6.6525,-6.6356,-6.5149,-6.4428,-6.431,-6.348,-6.2768,-6.1973,-6.1973,-6.1973,-6.1973,-6.1973,-6.1344,-6.0074,-5.907,-5.774,-5.623,-5.5206,-5.4638,-5.4416,-5.4416,-5.4416,-5.4416,-5.4416,-5.4416,-5.4416,-5.4416,-5.4416,-5.4416,-5.4416,-5.4416,-5.4416,-5.4416,-5.4416,-5.4485,-5.4921,-5.5128,-5.538,-5.6161,-5.6436,-5.6643,-5.7171,-5.7309,-5.7309,-5.7309,-5.7401,-5.747,-5.747,-5.5926,-5.4123,-5.2587,-5.0418,-4.8347,-4.6803,-4.6166,-4.5883,-4.5883,-4.5883,-4.5883,-4.5883,-4.5883,-4.5883,-4.5883,-4.5883,-4.5883,-4.5883,-4.6342,-4.6434,-4.603,-4.6397,-4.6434,-4.603,-4.6012,-4.6158,-4.647,-4.6269,-4.6562,-4.7351,-4.7277,-4.7406,-4.7699,-4.7699,-4.7864,-4.8157,-4.8157,-4.8212,-4.8286,-4.8286,-4.8231,-4.8157,-4.8249,-4.8432,-4.8634,-4.8469,-4.8818,-4.9349,-6.6595,-6.6595,-6.6595,-6.6595,-6.6595,-6.6595,-6.6595,-6.7382,-6.8084,-6.8421,-6.9264,-6.9714,-6.9433,-6.8843,-6.8084,-6.7157,-6.6764,-6.6595,-6.6595,-6.6215,-6.5862,-6.5534,-6.4355,-6.358,-6.3212,-6.2768,-6.2396,-6.1973,-6.1973,-6.1646,-6.1091,-6.1091,-6.0074,-5.8266,-5.7582,-5.655,-5.5368,-5.4638,-5.4416,-5.4416,-5.4416,-5.4416,-5.4416,-5.4416,-5.4416,-5.4416,-5.4416,-5.4416,-5.4416,-5.4416,-5.4416,-5.4416,-5.4416,-5.4577,-5.4852,-5.5128,-5.5541,-5.6023,-5.6551,-5.6873,-5.7125,-5.7401,-5.747,-5.747,-5.747,-5.747,-5.747,-5.747,-5.5203,-5.2945,-5.1868,-4.9341,-4.7065,-4.6072,-4.5883,-4.5883,-4.5883,-4.5883,-4.5883,-4.5883,-4.5883,-4.5883,-4.5883,-4.5883,-4.5883,-4.5883,-4.625,-4.6379,-4.6177,-4.636,-4.6379,-4.6177,-4.5993,-4.5993,-4.6195,-4.5993,-4.6103,-4.6525,-4.6709,-4.702,-4.7424,-4.7424,-4.7626,-4.8011,-4.8212,-4.8396,-4.8579,-4.8579,-4.8469,-4.8286,-4.8286,-4.8304,-4.8322,-4.8304,-4.8561,-4.8891,-6.6595,-6.6595,-6.6595,-6.6595,-6.6595,-6.6595,-6.6595,-6.7663,-6.8478,-6.8478,-6.9545,-7.0023,-6.9321,-6.859,-6.7719,-6.6679,-6.6595,-6.6525,-6.6356,-6.5763,-6.505,-6.431,-6.3553,-6.2842,-6.2198,-6.2048,-6.1973,-6.1973,-6.1973,-6.1344,-6.0074,-6.0074,-5.8734,-5.631,-5.631,-5.5611,-5.4416,-5.4416,-5.4416,-5.4416,-5.4416,-5.4416,-5.4416,-5.4416,-5.4416,-5.4416,-5.4416,-5.4416,-5.4416,-5.4416,-5.4416,-5.4439,-5.4531,-5.4852,-5.5243,-5.5403,-5.6046,-5.6712,-5.6781,-5.7148,-5.747,-5.747,-5.747,-5.747,-5.747,-5.747,-5.747,-5.747,-5.4388,-5.1688,-5.1688,-4.8512,-4.5883,-4.5883,-4.5883,-4.5883,-4.5883,-4.5883,-4.5883,-4.5883,-4.5883,-4.5883,-4.5883,-4.5883,-4.5883,-4.5883,-4.6195,-4.6379,-4.6379,-4.6379,-4.6379,-4.6379,-4.6067,-4.5883,-4.5883,-4.5883,-4.592,-4.5993,-4.625,-4.6635,-4.7112,-4.724,-4.7516,-4.7919,-4.8249,-4.8634,-4.9001,-4.8854,-4.8634,-4.8377,-4.8304,-4.8084,-4.7827,-4.8157,-4.8286,-4.8286,-6.6595,-6.6595,-6.6595,-6.6595,-6.6595,-6.6595,-6.6595,-6.7663,-6.8478,-6.8478,-6.9545,-6.9854,-6.8731,-6.755,-6.6792,-6.6595,-6.6595,-6.6286,-6.5621,-6.5479,-6.505,-6.431,-6.3553,-6.3037,-6.2964,-6.2321,-6.1973,-6.1973,-6.1973,-6.1344,-6.0074,-6.0074,-5.8734,-5.631,-5.631,-5.5611,-5.4416,-5.4416,-5.4416,-5.4416,-5.4416,-5.4416,-5.4416,-5.4416,-5.4416,-5.4416,-5.4416,-5.4416,-5.4416,-5.4416,-5.4416,-5.4485,-5.4967,-5.5151,-5.538,-5.623,-5.6574,-5.6781,-5.724,-5.7424,-5.747,-5.747,-5.747,-5.747,-5.747,-5.747,-5.747,-5.747,-5.4388,-5.1688,-5.1688,-4.8512,-4.5883,-4.5883,-4.5883,-4.5883,-4.5883,-4.5883,-4.5883,-4.5883,-4.5883,-4.5883,-4.5883,-4.5883,-4.5883,-4.5883,-4.5938,-4.5975,-4.5975,-4.5975,-4.5975,-4.5975,-4.592,-4.5883,-4.5883,-4.5883,-4.6067,-4.6397,-4.6103,-4.636,-4.713,-4.7809,-4.8359,-4.8744,-4.8799,-4.9056,-4.9368,-4.8653,-4.8543,-4.8799,-4.8432,-4.8249,-4.8212,-4.8267,-4.8286,-4.8286,-6.6595,-6.6595,-6.6595,-6.6595,-6.6595,-6.6707,-6.7045,-6.7888,-6.859,-6.8955,-6.977,-6.9826,-6.8618,-6.7354,-6.6595,-6.6595,-6.6215,-6.5763,-6.5407,-6.4618,-6.3965,-6.3626,-6.2916,-6.247,-6.247,-6.2198,-6.1973,-6.1973,-6.1268,-6.0304,-5.8993,-5.8266,-5.7004,-5.5206,-5.5206,-5.4963,-5.4416,-5.4416,-5.4416,-5.4416,-5.4416,-5.4416,-5.4416,-5.4416,-5.4416,-5.4416,-5.4416,-5.4416,-5.4416,-5.4416,-5.46,-5.4898,-5.5151,-5.5587,-5.6115,-5.6551,-5.6896,-5.7171,-5.7424,-5.747,-5.747,-5.747,-5.747,-5.747,-5.747,-5.6668,-5.5839,-5.5839,-5.3679,-5.1417,-5.0236,-4.7791,-4.5883,-4.5883,-4.5883,-4.5883,-4.5883,-4.5883,-4.5883,-4.5883,-4.5883,-4.5883,-4.5883,-4.5883,-4.5883,-4.5883,-4.5883,-4.5883,-4.5883,-4.5883,-4.5883,-4.5883,-4.5883,-4.5993,-4.6213,-4.6213,-4.6415,-4.6837,-4.6874,-4.7094,-4.7442,-4.7571,-4.7974,-4.8579,-4.8799,-4.9001,-4.9148,-4.8781,-4.8744,-4.8873,-4.8451,-4.8286,-4.8286,-4.8286,-4.8286,-4.8286]}]]